[[{"header":{"parameterUnit":"m.s-1","parameterCategory":1,"la1":31.0,"la2":29.5877,"lo1":-88.7671,"lo2":-86.6584,"dy":0.0162,"dx":0.0185,"nx":115,"ny":88,"refTime":"2024-09-13T06:00:00:Z","depth":0,"parameterNumber":2,"parameterNumberName":"U-component_of_WINDS"},"data":[0.0,0.0,0.0,0.0,0.0,0.0,0.0,0.0,0.0,0.0,0.0,0.0,0.0,0.0,0.0,0.0,0.0,0.0,0.0,0.0,0.0,0.0,0.0,0.0,0.0,0.0,0.0,0.0,0.0,0.0,0.0,0.0,0.0,0.0,0.0,0.0,0.0,0.0,0.0,0.0,0.0,0.0,0.0,0.0,0.0,0.0,0.0,0.0,0.0,0.0,0.0,0.0,0.0,0.0,0.0,0.0,0.0,0.0,0.0,0.0,0.0,0.0,0.0,0.0,0.0,0.0,0.0,0.0,0.0,0.0,0.0,0.0,0.0,0.0,0.0,0.0,0.0,0.0,0.0,0.0,0.0,0.0,0.0,0.0,0.0,0.0,0.0,0.0,0.0,0.0,0.0,0.0,0.0,0.0,0.0,0.0,0.0,0.0,0.0,0.0,0.0,0.0,0.0,0.0,0.0,0.0,0.0,0.0,0.0,0.0,0.0,0.0,0.0,0.0,0.0,0.0,0.0,0.0,0.0,0.0,0.0,0.0,0.0,0.0,0.0,0.0,0.0,0.0,0.0,0.0,0.0,0.0,0.0,0.0,0.0,0.0,0.0,0.0,0.0,0.0,0.0,0.0,0.0,0.0,0.0,0.0,0.0,0.0,0.0,0.0,0.0,0.0,0.0,0.0,0.0,0.0,0.0,0.0,0.0,0.0,0.0,0.0,0.0,0.0,0.0,0.0,0.0,0.0,0.0,0.0,0.0,0.0,0.0,0.0,0.0,0.0,0.0,0.0,0.0,0.0,0.0,0.0,0.0,0.0,0.0,0.0,0.0,0.0,0.0,0.0,0.0,0.0,0.0,0.0,0.0,0.0,0.0,0.0,0.0,0.0,0.0,0.0,0.0,0.0,0.0,0.0,0.0,0.0,0.0,0.0,0.0,0.0,0.0,0.0,0.0,0.0,0.0,0.0,0.0,0.0,0.0,0.0,0.0,0.0,0.0,0.0,0.0,0.0,0.0,0.0,0.0,0.0,0.0,0.0,0.0,0.0,0.0,0.0,0.0,0.0,0.0,0.0,0.0,0.0,0.0,0.0,0.0,0.0,0.0,0.0,0.0,0.0,0.0,0.0,0.0,0.0,0.0,0.0,0.0,0.0,0.0,0.0,0.0,0.0,0.0,0.0,0.0,0.0,0.0,0.0,0.0,0.0,0.0,0.0,0.0,0.0,0.0,0.0,0.0,0.0,0.0,0.0,0.0,0.0,0.0,0.0,0.0,0.0,0.0,0.0,0.0,0.0,0.0,0.0,0.0,0.0,0.0,0.0,0.0,0.0,0.0,0.0,0.0,0.0,0.0,0.0,0.0,0.0,0.0,0.0,0.0,0.0,0.0,0.0,0.0,0.0,0.0,0.0,0.0,0.0,0.0,0.0,0.0,0.0,0.0,0.0,0.0,0.0,0.0,0.0,0.0,0.0,0.0,0.0,0.0,0.0,0.0,0.0,0.0,0.0,0.0,0.0,0.0,0.0,0.0,0.0,0.0,0.0,0.0,0.0,0.0,0.0,0.0,0.0,0.0,0.0,0.0,0.0,0.0,0.0,0.0,0.0,0.0,0.0,0.0,0.0,0.0,0.0,0.0,0.0,0.0,0.0,0.0,0.0,0.0,0.0,0.0,0.0,0.0,0.0,0.0,0.0,0.0,0.0,0.0,0.0,0.0,0.0,0.0,0.0,0.0,0.0,0.0,0.0,0.0,0.0,0.0,0.0,0.0,0.0,0.0,0.0,0.0,0.0,0.0,0.0,0.0,0.0,0.0,0.0,0.0,0.0,0.0,0.0,0.0,0.0,0.0,0.0,0.0,0.0,0.0,0.0,0.0,0.0,0.0,0.0,0.0,0.0,0.0,0.0,0.0,0.0,0.0,0.0,0.0,0.0,0.0,0.0,0.0,0.0,0.0,0.0,0.0,0.0,0.0,0.0,0.0,0.0,0.0,0.0,0.0,0.0,0.0,0.0,0.0,0.0,0.0,0.0,0.0,0.0,0.0,0.0,0.0,0.0,0.0,0.0,0.0,0.0,0.0,0.0,0.0,0.0,0.0,0.0,0.0,0.0,0.0,0.0,0.0,0.0,0.0,0.0,0.0,0.0,0.0,0.0,0.0,0.0,0.0,0.0,0.0,0.0,0.0,0.0,0.0,0.0,0.0,0.0,0.0,0.0,0.0,0.0,0.0,0.0,0.0,0.0,0.0,0.0,0.0,0.0,0.0,0.0,0.0,0.0,0.0,0.0,0.0,0.0,0.0,0.0,0.0,0.0,0.0,0.0,0.0,0.0,0.0,0.0,0.0,0.0,0.0,0.0,0.0,0.0,0.0,0.0,0.0,0.0,0.0,0.0,0.0,0.0,0.0,0.0,0.0,0.0,0.0,0.0,0.0,0.0,0.0,0.0,0.0,0.0,0.0,0.0,0.0,0.0,0.0,0.0,0.0,0.0,0.0,0.0,0.0,0.0,0.0,0.0,0.0,0.0,0.0,0.0,0.0,0.0,0.0,0.0,0.0,0.0,0.0,0.0,0.0,0.0,0.0,0.0,0.0,0.0,0.0,0.0,0.0,0.0,0.0,0.0,0.0,0.0,0.0,0.0,0.0,0.0,0.0,0.0,0.0,0.0,0.0,0.0,0.0,0.0,0.0,0.0,0.0,0.0,0.0,0.0,0.0,0.0,0.0,0.0,0.0,0.0,0.0,0.0,0.0,0.0,0.0,0.0,0.0,0.0,0.0,0.0,0.0,0.0,0.0,0.0,0.0,0.0,0.0,0.0,0.0,0.0,0.0,0.0,0.0,0.0,0.0,0.0,0.0,0.0,0.0,0.0,0.0,0.0,0.0,0.0,0.0,0.0,0.0,0.0,0.0,0.0,0.0,0.0,0.0,0.0,0.0,0.0,0.0,0.0,0.0,0.0,0.0,0.0,0.0,0.0,0.0,0.0,0.0,0.0,0.0,0.0,0.0,0.0,0.0,0.0,0.0,0.0,0.0,0.0,0.0,0.0,0.0,0.0,0.0,0.0,0.0,0.0,0.0,0.0,0.0,0.0,0.0,0.0,0.0,0.0,0.0,0.0,0.0,0.0,0.0,0.0,0.0,0.0,0.0,0.0,0.0,0.0,0.0,0.0,0.0,0.0,0.0,0.0,0.0,0.0,0.0,0.0,0.0,0.0,0.0,0.0,0.0,0.0,0.0,0.0,0.0,0.0,0.0,0.0,0.0,0.0,0.0,0.0,0.0,0.0,0.0,0.0,0.0,0.0,0.0,0.0,0.0,0.0,0.0,0.0,0.0,0.0,0.0,0.0,0.0,0.0,0.0,0.0,0.0,0.0,0.0,0.0,0.0,0.0,0.0,0.0,0.0,0.0,0.0,0.0,0.0,0.0,0.0,0.0,0.0,0.0,0.0,0.0,0.0,0.0,0.0,0.0,0.0,0.0,0.0,0.0,0.0,0.0,0.0,0.0,0.0,0.0,0.0,0.0,0.0,0.0,0.0,0.0,0.0,0.0,0.0,0.0,0.0,0.0,0.0,0.0,0.0,0.0,0.0,0.0,0.0,0.0,0.0,0.0,0.0,0.0,0.0,0.0,0.0,0.0,0.0,0.0,0.0,0.0,0.0,0.0,0.0,0.0,0.0,0.0,0.0,0.0,0.0,0.0,0.0,0.0,0.0,0.0,0.0,0.0,0.0,0.0,0.0,0.0,0.0,0.0,0.0,0.0,0.0,0.0,0.0,0.0,0.0,0.0,0.0,0.0,0.0,0.0,0.0,0.0,0.0,0.0,0.0,0.0,0.0,0.0,0.0,0.0,0.0,0.0,0.0,0.0,0.0,0.0,0.0,0.0,0.0,0.0,0.0,0.0,0.0,0.0,0.0,0.0,0.0,0.0,0.0,0.0,0.0,0.0,0.0,0.0,0.0,0.0,0.0,0.0,0.0,0.0,0.0,0.0,0.0,0.0,0.0,0.0,0.0,0.0,0.0,0.0,0.0,0.0,0.0,0.0,0.0,0.0,0.0,0.0,0.0,0.0,0.0,0.0,0.0,0.0,0.0,0.0,0.0,0.0,0.0,0.0,0.0,0.0,0.0,0.0,0.0,0.0,0.0,0.0,0.0,0.0,0.0,0.0,0.0,0.0,0.0,0.0,0.0,0.0,0.0,0.0,0.0,0.0,0.0,0.0,0.0,0.0,0.0,0.0,0.0,0.0,0.0,0.0,0.0,0.0,0.0,0.0,2.3241,0.0,0.0,0.0,0.0,0.0,0.0,0.0,0.0,0.0,0.0,0.0,0.0,0.0,0.0,0.0,0.0,0.0,0.0,0.0,0.0,0.0,0.0,0.0,0.0,0.0,0.0,0.0,0.0,0.0,0.0,0.0,0.0,0.0,0.0,0.0,0.0,0.0,0.0,0.0,0.0,0.0,0.0,0.0,0.0,0.0,0.0,0.0,0.0,0.0,0.0,0.0,0.0,0.0,0.0,0.0,0.0,0.0,0.0,0.0,0.0,0.0,0.0,0.0,0.0,0.0,0.0,0.0,0.0,0.0,0.0,0.0,0.0,0.0,0.0,0.0,0.0,0.0,0.0,0.0,0.0,0.0,0.0,0.0,0.0,0.0,0.0,0.0,0.0,0.0,0.0,0.0,0.0,0.0,0.0,0.0,0.0,0.0,0.0,0.0,0.0,0.0,0.0,0.0,0.0,0.0,0.0,0.0,0.0,0.0,0.0,2.3613,2.2852,2.3579,2.3613,2.2852,0.0,0.0,0.0,0.0,0.0,0.0,0.0,0.0,0.0,0.0,0.0,0.0,0.0,0.0,0.0,0.0,0.0,0.0,0.0,0.0,0.0,0.0,0.0,0.0,0.0,0.0,0.0,0.0,0.0,0.0,0.0,0.0,0.0,0.0,0.0,0.0,0.0,0.0,0.0,0.0,0.0,0.0,0.0,0.0,0.0,0.0,0.0,0.0,0.0,0.0,0.0,0.0,0.0,0.0,0.0,0.0,0.0,0.0,0.0,0.0,0.0,0.0,0.0,0.0,0.0,0.0,0.0,0.0,0.0,0.0,0.0,0.0,0.0,0.0,0.0,0.0,0.0,0.0,0.0,0.0,0.0,0.0,0.0,0.0,0.0,0.0,0.0,0.0,0.0,0.0,0.0,0.0,0.0,0.0,0.0,0.0,0.0,0.0,0.0,0.0,0.0,0.0,0.0,0.0,0.0,0.0,0.0,0.0,0.0,0.0,0.0,0.0,2.4137,2.4022,2.2546,0.0,0.0,0.0,0.0,0.0,0.0,0.0,0.0,0.0,0.0,0.0,0.0,0.0,0.0,0.0,0.0,0.0,0.0,0.0,0.0,0.0,0.0,0.0,0.0,0.0,0.0,0.0,0.0,0.0,0.0,0.0,0.0,0.0,0.0,0.0,0.0,0.0,0.0,0.0,0.0,0.0,0.0,0.0,0.0,0.0,0.0,0.0,0.0,0.0,0.0,0.0,0.0,0.0,0.0,0.0,0.0,0.0,0.0,0.0,0.0,0.0,0.0,0.0,0.0,0.0,0.0,0.0,0.0,0.0,0.0,0.0,0.0,0.0,0.0,0.0,0.0,0.0,0.0,0.0,0.0,0.0,0.0,0.0,0.0,0.0,0.0,0.0,0.0,0.0,0.0,0.0,0.0,0.0,0.0,0.0,0.0,0.0,0.0,0.0,0.0,0.0,0.0,0.0,0.0,0.0,0.0,0.0,0.0,0.0,0.0,2.4069,2.527,2.5423,0.0,2.3062,0.0,0.0,0.0,0.0,0.0,0.0,0.0,0.0,0.0,0.0,0.0,0.0,0.0,0.0,0.0,0.0,0.0,0.0,0.0,0.0,0.0,0.0,0.0,0.0,0.0,0.0,0.0,0.0,0.0,0.0,0.0,0.0,0.0,0.0,0.0,0.0,0.0,0.0,0.0,0.0,0.0,0.0,0.0,0.0,0.0,0.0,0.0,0.0,0.0,0.0,0.0,0.0,0.0,0.0,0.0,0.0,0.0,0.0,0.0,0.0,0.0,0.0,0.0,0.0,0.0,0.0,0.0,0.0,0.0,0.0,0.0,0.0,0.0,0.0,0.0,0.0,0.0,0.0,0.0,0.0,0.0,0.0,0.0,0.0,0.0,0.0,0.0,0.0,0.0,0.0,0.0,0.0,0.0,0.0,0.0,0.0,0.0,0.0,0.0,0.0,0.0,0.0,0.0,0.0,0.0,0.0,0.0,0.0,0.0,0.0,2.4842,2.5028,2.4557,2.388,0.0,0.0,0.0,0.0,0.0,0.0,0.0,0.0,0.0,0.0,0.0,0.0,0.0,0.0,0.0,0.0,0.0,0.0,0.0,0.0,0.0,0.0,0.0,0.0,0.0,0.0,0.0,0.0,0.0,0.0,0.0,0.0,0.0,0.0,0.0,0.0,0.0,0.0,0.0,0.0,0.0,0.0,0.0,0.0,0.0,0.0,0.0,0.0,0.0,0.0,0.0,0.0,0.0,0.0,0.0,0.0,0.0,0.0,0.0,0.0,0.0,0.0,0.0,0.0,0.0,0.0,0.0,0.0,0.0,0.0,0.0,0.0,0.0,0.0,0.0,0.0,0.0,0.0,0.0,0.0,0.0,0.0,0.0,0.0,0.0,0.0,0.0,0.0,0.0,0.0,0.0,0.0,0.0,0.0,0.0,0.0,0.0,0.0,0.0,0.0,0.0,0.0,0.0,0.0,0.0,0.0,0.0,0.0,0.0,0.0,2.488,2.538,2.5212,2.4625,2.3779,2.2654,0.0,0.0,0.0,0.0,0.0,0.0,0.0,0.0,0.0,0.0,0.0,0.0,0.0,0.0,0.0,0.0,0.0,0.0,0.0,0.0,0.0,0.0,0.0,0.0,0.0,0.0,0.0,0.0,0.0,0.0,0.0,0.0,0.0,0.0,0.0,0.0,0.0,0.0,0.0,0.0,0.0,0.0,0.0,0.0,0.0,0.0,0.0,0.0,0.0,0.0,0.0,0.0,0.0,0.0,0.0,0.0,0.0,0.0,0.0,0.0,0.0,0.0,0.0,0.0,0.0,0.0,0.0,0.0,0.0,0.0,0.0,0.0,0.0,0.0,0.0,0.0,0.0,0.0,0.0,0.0,0.0,0.0,0.0,0.0,0.0,0.0,0.0,0.0,0.0,0.0,0.0,0.0,0.0,0.0,0.0,0.0,0.0,0.0,0.0,0.0,0.0,0.0,0.0,0.0,0.0,0.0,0.0,0.0,0.0,2.5504,2.5473,2.674,2.6606,2.5092,0.0,0.0,0.0,0.0,0.0,0.0,0.0,0.0,0.0,0.0,0.0,0.0,0.0,0.0,0.0,0.0,0.0,0.0,0.0,0.0,0.0,0.0,0.0,0.0,0.0,0.0,0.0,0.0,0.0,0.0,0.0,0.0,0.0,0.0,0.0,0.0,0.0,0.0,0.0,0.0,0.0,0.0,0.0,0.0,0.0,0.0,0.0,0.0,0.0,0.0,0.0,0.0,0.0,0.0,0.0,0.0,0.0,0.0,0.0,0.0,0.0,0.0,0.0,0.0,0.0,0.0,0.0,0.0,0.0,0.0,0.0,0.0,0.0,0.0,0.0,0.0,0.0,0.0,0.0,0.0,0.0,0.0,0.0,0.0,0.0,0.0,0.0,0.0,0.0,0.0,0.0,0.0,0.0,0.0,0.0,0.0,0.0,0.0,0.0,0.0,0.0,0.0,0.0,0.0,0.0,0.0,0.0,0.0,0.0,2.4185,2.456,2.5885,2.8066,2.5452,2.3816,0.0,0.0,0.0,0.0,0.0,0.0,0.0,0.0,0.0,0.0,0.0,0.0,0.0,0.0,0.0,0.0,0.0,0.0,0.0,0.0,0.0,0.0,0.0,0.0,0.0,0.0,0.0,0.0,0.0,0.0,0.0,0.0,0.0,0.0,0.0,0.0,0.0,0.0,0.0,0.0,0.0,0.0,0.0,0.0,0.0,0.0,0.0,0.0,0.0,0.0,0.0,0.0,0.0,0.0,0.0,0.0,0.0,0.0,0.0,0.0,0.0,0.0,0.0,0.0,0.0,0.0,0.0,0.0,0.0,0.0,0.0,0.0,0.0,0.0,0.0,0.0,0.0,0.0,0.0,0.0,0.0,0.0,0.0,0.0,0.0,0.0,0.0,0.0,0.0,0.0,0.0,0.0,0.0,0.0,0.0,0.0,0.0,0.0,0.0,0.0,0.0,0.0,0.0,0.0,0.0,0.0,0.0,0.0,0.0,2.4195,0.0,2.6956,0.0,2.5433,2.3604,0.0,0.0,0.0,0.0,0.0,0.0,0.0,0.0,0.0,0.0,0.0,0.0,0.0,0.0,0.0,0.0,0.0,0.0,0.0,0.0,0.0,0.0,0.0,0.0,0.0,0.0,0.0,0.0,0.0,0.0,0.0,0.0,0.0,0.0,0.0,0.0,0.0,0.0,0.0,0.0,0.0,0.0,0.0,0.0,0.0,0.0,0.0,0.0,0.0,0.0,0.0,0.0,0.0,0.0,0.0,0.0,0.0,0.0,0.0,0.0,0.0,0.0,0.0,0.0,0.0,0.0,0.0,0.0,0.0,0.0,0.0,0.0,0.0,0.0,0.0,0.0,0.0,0.0,0.0,0.0,0.0,0.0,0.0,0.0,0.0,0.0,0.0,0.0,0.0,0.0,0.0,0.0,0.0,0.0,0.0,0.0,0.0,0.0,0.0,0.0,0.0,0.0,0.0,0.0,0.0,0.0,0.0,0.0,2.4178,2.7075,2.8457,2.839,2.7091,2.6771,2.4652,0.0,0.0,0.0,0.0,0.0,0.0,0.0,0.0,0.0,0.0,0.0,0.0,0.0,0.0,0.0,0.0,0.0,0.0,0.0,0.0,0.0,0.0,0.0,0.0,0.0,0.0,0.0,0.0,0.0,0.0,0.0,0.0,0.0,0.0,0.0,0.0,0.0,0.0,0.0,0.0,0.0,0.0,0.0,0.0,0.0,0.0,0.0,0.0,0.0,0.0,0.0,0.0,0.0,0.0,0.0,0.0,0.0,0.0,0.0,0.0,0.0,0.0,0.0,0.0,0.0,0.0,0.0,0.0,0.0,0.0,0.0,0.0,0.0,0.0,0.0,0.0,0.0,0.0,0.0,0.0,0.0,0.0,0.0,0.0,0.0,0.0,0.0,0.0,0.0,0.0,0.0,0.0,0.0,0.0,0.0,0.0,0.0,0.0,0.0,0.0,0.0,0.0,0.0,0.0,0.0,0.0,0.0,0.0,0.0,2.4832,2.5794,2.6811,2.7772,2.5217,2.3908,0.0,0.0,0.0,0.0,0.0,0.0,0.0,0.0,0.0,0.0,0.0,0.0,0.0,0.0,0.0,0.0,0.0,0.0,0.0,0.0,0.0,0.0,0.0,0.0,0.0,0.0,0.0,0.0,0.0,0.0,0.0,0.0,0.0,0.0,0.0,0.0,0.0,0.0,0.0,0.0,0.0,0.0,0.0,0.0,0.0,0.0,0.0,0.0,0.0,0.0,0.0,0.0,0.0,0.0,0.0,0.0,0.0,0.0,0.0,0.0,0.0,0.0,0.0,0.0,0.0,0.0,0.0,0.0,0.0,0.0,0.0,0.0,0.0,0.0,0.0,0.0,0.0,0.0,0.0,0.0,0.0,0.0,0.0,0.0,0.0,0.0,0.0,0.0,0.0,0.0,0.0,0.0,0.0,0.0,0.0,0.0,0.0,0.0,0.0,0.0,0.0,0.0,0.0,0.0,0.0,0.0,0.0,0.0,0.0,2.5102,2.6498,2.7615,2.8302,2.563,2.432,2.4513,0.0,0.0,0.0,0.0,0.0,0.0,0.0,0.0,0.0,0.0,0.0,0.0,0.0,0.0,0.0,0.0,0.0,0.0,0.0,0.0,0.0,0.0,0.0,0.0,0.0,0.0,0.0,0.0,0.0,0.0,0.0,0.0,0.0,0.0,0.0,0.0,0.0,0.0,0.0,0.0,0.0,0.0,0.0,0.0,0.0,0.0,0.0,0.0,0.0,0.0,0.0,0.0,0.0,0.0,0.0,0.0,0.0,0.0,0.0,0.0,0.0,0.0,0.0,0.0,0.0,0.0,0.0,0.0,0.0,0.0,0.0,0.0,0.0,0.0,0.0,0.0,0.0,0.0,0.0,0.0,0.0,0.0,0.0,0.0,0.0,0.0,0.0,0.0,0.0,0.0,0.0,0.0,0.0,0.0,0.0,0.0,0.0,0.0,0.0,0.0,0.0,0.0,0.0,0.0,0.0,0.0,0.0,0.0,2.7252,2.9971,3.0437,2.8639,2.7609,2.5747,0.0,0.0,0.0,0.0,0.0,0.0,0.0,0.0,0.0,0.0,0.0,0.0,0.0,0.0,0.0,0.0,0.0,0.0,0.0,0.0,0.0,0.0,0.0,0.0,0.0,0.0,0.0,0.0,0.0,0.0,0.0,0.0,0.0,0.0,0.0,0.0,0.0,0.0,0.0,0.0,0.0,0.0,0.0,0.0,0.0,0.0,0.0,0.0,0.0,0.0,0.0,0.0,0.0,0.0,0.0,0.0,0.0,0.0,0.0,0.0,0.0,0.0,0.0,0.0,0.0,0.0,0.0,0.0,0.0,0.0,0.0,0.0,0.0,0.0,0.0,0.0,0.0,0.0,0.0,0.0,0.0,0.0,0.0,0.0,0.0,0.0,0.0,0.0,0.0,0.0,0.0,0.0,0.0,0.0,0.0,0.0,0.0,0.0,0.0,0.0,0.0,0.0,0.0,0.0,0.0,0.0,0.0,0.0,0.0,2.8149,3.0821,3.1708,3.0542,2.7886,2.6255,0.0,0.0,0.0,0.0,0.0,0.0,0.0,0.0,0.0,0.0,0.0,0.0,0.0,0.0,0.0,0.0,0.0,0.0,0.0,0.0,0.0,0.0,0.0,0.0,0.0,0.0,0.0,0.0,0.0,0.0,0.0,0.0,0.0,0.0,0.0,0.0,0.0,0.0,0.0,0.0,0.0,0.0,0.0,0.0,0.0,0.0,0.0,0.0,0.0,0.0,0.0,0.0,0.0,0.0,0.0,0.0,0.0,0.0,0.0,0.0,0.0,0.0,0.0,0.0,0.0,0.0,0.0,0.0,0.0,0.0,0.0,0.0,0.0,0.0,0.0,0.0,0.0,0.0,0.0,0.0,0.0,0.0,0.0,0.0,0.0,0.0,0.0,0.0,0.0,0.0,0.0,0.0,0.0,0.0,0.0,0.0,0.0,0.0,0.0,0.0,0.0,0.0,0.0,0.0,0.0,0.0,0.0,0.0,2.845,2.9373,3.1825,3.2693,3.1769,2.942,2.7647,0.0,0.0,0.0,0.0,0.0,0.0,0.0,0.0,0.0,0.0,0.0,0.0,0.0,0.0,0.0,0.0,0.0,0.0,0.0,0.0,0.0,0.0,0.0,0.0,0.0,0.0,0.0,0.0,0.0,0.0,0.0,0.0,0.0,0.0,0.0,0.0,0.0,0.0,0.0,0.0,0.0,0.0,0.0,0.0,0.0,0.0,0.0,0.0,0.0,0.0,0.0,0.0,0.0,0.0,0.0,0.0,0.0,0.0,0.0,0.0,0.0,0.0,0.0,0.0,0.0,0.0,0.0,0.0,0.0,0.0,0.0,0.0,0.0,0.0,0.0,0.0,0.0,0.0,0.0,0.0,0.0,0.0,0.0,0.0,0.0,0.0,0.0,0.0,0.0,0.0,0.0,0.0,0.0,0.0,0.0,0.0,0.0,0.0,0.0,0.0,0.0,0.0,0.0,0.0,0.0,0.0,0.0,0.0,2.9488,3.0677,3.2736,3.3345,3.2436,3.1293,2.929,0.0,0.0,0.0,0.0,0.0,0.0,0.0,0.0,0.0,0.0,0.0,0.0,0.0,0.0,0.0,0.0,0.0,0.0,0.0,0.0,0.0,0.0,0.0,0.0,0.0,0.0,0.0,0.0,0.0,0.0,0.0,0.0,0.0,0.0,0.0,0.0,0.0,0.0,0.0,0.0,0.0,0.0,0.0,0.0,0.0,0.0,0.0,0.0,0.0,0.0,0.0,0.0,0.0,0.0,0.0,0.0,0.0,0.0,0.0,0.0,0.0,0.0,0.0,0.0,0.0,0.0,0.0,0.0,0.0,0.0,0.0,0.0,0.0,0.0,0.0,0.0,0.0,0.0,0.0,0.0,0.0,0.0,0.0,0.0,0.0,0.0,0.0,0.0,0.0,0.0,0.0,0.0,0.0,0.0,0.0,0.0,0.0,0.0,0.0,0.0,0.0,0.0,0.0,0.0,0.0,0.0,0.0,0.0,2.9591,3.0677,3.2385,3.3037,3.257,3.0838,2.8847,0.0,0.0,0.0,0.0,0.0,0.0,0.0,0.0,0.0,0.0,0.0,0.0,0.0,0.0,0.0,0.0,0.0,0.0,0.0,0.0,0.0,0.0,0.0,0.0,0.0,0.0,0.0,0.0,0.0,0.0,0.0,0.0,0.0,0.0,0.0,0.0,0.0,0.0,0.0,0.0,0.0,0.0,0.0,0.0,0.0,0.0,0.0,0.0,2.3382,0.0,0.0,0.0,0.0,0.0,0.0,0.0,0.0,0.0,0.0,0.0,0.0,0.0,0.0,0.0,0.0,0.0,0.0,0.0,0.0,0.0,0.0,0.0,0.0,0.0,0.0,0.0,0.0,0.0,0.0,0.0,0.0,0.0,0.0,0.0,0.0,0.0,0.0,0.0,0.0,0.0,0.0,0.0,0.0,0.0,0.0,0.0,0.0,0.0,0.0,0.0,0.0,0.0,0.0,0.0,0.0,0.0,0.0,0.0,2.9744,3.0742,3.1976,3.2333,3.1713,3.0704,2.9075,0.0,0.0,0.0,0.0,0.0,0.0,0.0,0.0,0.0,0.0,0.0,0.0,0.0,0.0,0.0,0.0,0.0,0.0,0.0,0.0,0.0,0.0,0.0,0.0,0.0,0.0,0.0,0.0,0.0,0.0,0.0,0.0,0.0,0.0,0.0,0.0,0.0,0.0,0.0,0.0,0.0,0.0,0.0,0.0,0.0,0.0,0.0,0.0,0.0,0.0,0.0,0.0,0.0,0.0,0.0,0.0,0.0,0.0,0.0,0.0,0.0,0.0,0.0,0.0,0.0,0.0,0.0,0.0,0.0,0.0,0.0,0.0,0.0,0.0,0.0,0.0,0.0,0.0,0.0,0.0,0.0,0.0,0.0,0.0,0.0,0.0,0.0,0.0,0.0,0.0,0.0,0.0,0.0,0.0,0.0,0.0,0.0,0.0,0.0,0.0,0.0,0.0,0.0,0.0,0.0,0.0,0.0,2.848,2.9793,3.0767,3.1517,3.1514,3.0737,3.0586,2.9351,2.6931,0.0,0.0,0.0,0.0,0.0,0.0,0.0,0.0,0.0,0.0,0.0,0.0,0.0,0.0,0.0,0.0,0.0,0.0,0.0,0.0,0.0,0.0,0.0,0.0,0.0,0.0,0.0,0.0,0.0,0.0,0.0,0.0,0.0,0.0,0.0,0.0,0.0,0.0,2.1269,2.2966,0.0,0.0,0.0,0.0,0.0,0.0,0.0,0.0,2.3382,0.0,0.0,0.0,0.0,0.0,0.0,0.0,0.0,0.0,0.0,0.0,0.0,0.0,0.0,0.0,0.0,0.0,0.0,0.0,0.0,0.0,0.0,0.0,0.0,0.0,0.0,0.0,0.0,0.0,0.0,0.0,0.0,0.0,0.0,0.0,0.0,0.0,0.0,0.0,0.0,0.0,0.0,0.0,0.0,0.0,0.0,0.0,0.0,0.0,0.0,0.0,0.0,0.0,0.0,0.0,0.0,2.7703,2.8296,2.9308,3.0748,3.0956,3.0917,3.0686,3.0051,2.8656,2.6518,0.0,0.0,0.0,0.0,0.0,0.0,0.0,0.0,0.0,0.0,0.0,0.0,0.0,0.0,0.0,0.0,0.0,0.0,0.0,0.0,0.0,0.0,0.0,0.0,0.0,0.0,0.0,0.0,0.0,0.0,0.0,0.0,0.0,0.0,0.0,0.0,0.0,0.0,0.0,2.429,2.5077,0.0,0.0,0.0,0.0,0.0,0.0,0.0,0.0,2.2075,0.0,0.0,0.0,0.0,0.0,0.0,0.0,0.0,0.0,0.0,0.0,0.0,0.0,0.0,0.0,0.0,0.0,0.0,0.0,0.0,0.0,0.0,0.0,0.0,0.0,0.0,0.0,0.0,0.0,0.0,0.0,0.0,0.0,0.0,0.0,0.0,0.0,0.0,0.0,0.0,0.0,0.0,0.0,0.0,0.0,0.0,0.0,0.0,0.0,0.0,0.0,0.0,0.0,0.0,0.0,2.7324,2.8073,2.9026,3.0227,3.0246,3.002,2.9551,2.8297,2.7008,0.0,0.0,0.0,0.0,0.0,0.0,0.0,0.0,0.0,0.0,0.0,0.0,0.0,0.0,0.0,0.0,0.0,0.0,0.0,0.0,0.0,0.0,0.0,0.0,0.0,0.0,0.0,0.0,0.0,0.0,0.0,0.0,0.0,0.0,0.0,0.0,0.0,0.0,0.0,0.0,2.4731,2.5922,2.6223,0.0,0.0,0.0,0.0,0.0,0.0,2.328,2.2097,0.0,0.0,0.0,0.0,0.0,0.0,0.0,0.0,0.0,0.0,0.0,0.0,0.0,0.0,0.0,0.0,0.0,0.0,0.0,0.0,0.0,0.0,0.0,0.0,0.0,0.0,0.0,0.0,0.0,0.0,0.0,0.0,0.0,0.0,0.0,0.0,0.0,0.0,0.0,0.0,0.0,0.0,0.0,0.0,0.0,0.0,0.0,0.0,0.0,0.0,0.0,0.0,0.0,0.0,0.0,2.6619,2.7642,2.861,2.9507,2.9662,2.9343,2.8548,2.7182,2.591,0.0,0.0,0.0,0.0,0.0,0.0,0.0,0.0,0.0,0.0,0.0,0.0,0.0,0.0,0.0,0.0,0.0,0.0,0.0,0.0,0.0,0.0,0.0,0.0,0.0,0.0,0.0,0.0,0.0,0.0,0.0,0.0,0.0,0.0,0.0,0.0,0.0,0.0,0.0,0.0,0.0,2.7263,2.6732,2.6301,0.0,0.0,0.0,0.0,2.5152,2.417,0.0,0.0,0.0,0.0,0.0,0.0,0.0,0.0,0.0,0.0,0.0,0.0,0.0,0.0,0.0,0.0,0.0,0.0,0.0,0.0,0.0,0.0,0.0,0.0,0.0,0.0,0.0,0.0,0.0,0.0,0.0,0.0,0.0,0.0,0.0,0.0,0.0,0.0,0.0,0.0,0.0,0.0,0.0,0.0,0.0,0.0,0.0,0.0,0.0,0.0,0.0,0.0,0.0,0.0,0.0,0.0,2.5597,2.671,2.7747,2.8714,2.9413,2.9429,2.8698,2.849,2.6749,0.0,0.0,0.0,0.0,0.0,0.0,0.0,0.0,0.0,0.0,0.0,0.0,0.0,0.0,0.0,0.0,0.0,0.0,0.0,0.0,0.0,0.0,0.0,0.0,0.0,0.0,0.0,0.0,0.0,0.0,0.0,0.0,0.0,0.0,0.0,0.0,0.0,0.0,0.0,0.0,0.0,2.9751,2.7634,2.8824,2.9025,0.0,0.0,2.6433,2.6622,2.6087,0.0,0.0,0.0,0.0,0.0,0.0,0.0,0.0,0.0,0.0,0.0,0.0,0.0,0.0,0.0,0.0,0.0,0.0,0.0,0.0,0.0,0.0,0.0,0.0,0.0,0.0,0.0,0.0,0.0,0.0,0.0,0.0,0.0,0.0,0.0,0.0,0.0,0.0,0.0,0.0,0.0,0.0,0.0,0.0,0.0,0.0,0.0,0.0,0.0,0.0,0.0,0.0,0.0,0.0,0.0,2.3249,2.5596,2.6202,2.7177,2.8588,2.8466,2.8272,2.8065,2.6655,2.4972,0.0,0.0,0.0,0.0,0.0,0.0,0.0,0.0,0.0,0.0,0.0,0.0,0.0,0.0,0.0,0.0,0.0,0.0,0.0,0.0,0.0,0.0,0.0,0.0,0.0,0.0,0.0,0.0,0.0,0.0,0.0,0.0,0.0,0.0,0.0,0.0,0.0,0.0,0.0,0.0,0.0,0.0,2.9561,3.0046,0.0,0.0,0.0,2.7541,2.7865,0.0,0.0,0.0,0.0,0.0,0.0,0.0,0.0,0.0,0.0,0.0,0.0,0.0,0.0,0.0,0.0,0.0,0.0,0.0,0.0,0.0,0.0,0.0,0.0,0.0,0.0,0.0,0.0,0.0,0.0,0.0,0.0,0.0,0.0,0.0,0.0,0.0,0.0,0.0,0.0,0.0,0.0,0.0,0.0,0.0,0.0,0.0,0.0,0.0,0.0,0.0,0.0,0.0,0.0,0.0,0.0,0.0,2.5473,2.6059,2.7091,2.8597,2.802,2.7653,2.7537,2.5494,0.0,0.0,0.0,0.0,0.0,0.0,0.0,0.0,0.0,0.0,0.0,0.0,0.0,0.0,0.0,0.0,0.0,0.0,0.0,0.0,0.0,0.0,0.0,0.0,0.0,0.0,0.0,1.863,0.0,0.0,0.0,0.0,0.0,0.0,0.0,0.0,0.0,0.0,0.0,0.0,0.0,0.0,3.0054,3.1025,3.1046,3.1213,0.0,0.0,2.8288,2.8834,2.6826,2.4504,0.0,0.0,0.0,0.0,0.0,0.0,0.0,0.0,0.0,0.0,0.0,0.0,0.0,0.0,0.0,0.0,0.0,0.0,0.0,0.0,0.0,0.0,0.0,0.0,0.0,0.0,0.0,0.0,0.0,0.0,0.0,0.0,0.0,0.0,0.0,0.0,0.0,0.0,0.0,0.0,0.0,0.0,0.0,0.0,0.0,0.0,0.0,0.0,0.0,0.0,0.0,0.0,0.0,0.0,0.0,2.476,2.6365,2.7686,2.8651,2.8715,2.8308,2.7504,2.6657,2.4543,0.0,0.0,0.0,0.0,0.0,0.0,0.0,0.0,0.0,0.0,0.0,0.0,0.0,0.0,0.0,0.0,0.0,0.0,0.0,0.0,0.0,0.0,0.0,0.0,0.0,0.0,0.0,0.0,0.0,0.0,0.0,0.0,0.0,0.0,0.0,0.0,0.0,0.0,0.0,0.0,0.0,3.127,3.126,3.2045,3.2347,0.0,0.0,2.8788,2.9454,2.8339,2.6546,2.3715,0.0,0.0,0.0,0.0,0.0,0.0,0.0,0.0,0.0,0.0,0.0,0.0,0.0,0.0,0.0,0.0,0.0,0.0,0.0,0.0,0.0,0.0,0.0,0.0,0.0,0.0,0.0,0.0,0.0,0.0,0.0,0.0,0.0,0.0,0.0,0.0,0.0,0.0,0.0,0.0,0.0,0.0,0.0,0.0,0.0,0.0,0.0,0.0,0.0,0.0,0.0,0.0,0.0,2.3303,2.5474,2.622,2.7308,2.8673,2.8303,2.7908,2.763,2.6848,2.5203,0.0,0.0,0.0,0.0,0.0,0.0,0.0,0.0,0.0,0.0,0.0,0.0,0.0,0.0,0.0,0.0,0.0,0.0,0.0,0.0,0.0,0.0,0.0,0.0,0.0,0.0,0.0,0.0,2.2311,2.2671,2.26,0.0,0.0,0.0,0.0,0.0,0.0,0.0,0.0,0.0,0.0,3.2088,3.2943,3.3109,0.0,0.0,3.1264,2.9925,3.0101,2.7889,2.5476,2.355,2.2098,0.0,0.0,0.0,0.0,0.0,0.0,0.0,0.0,0.0,0.0,0.0,0.0,0.0,0.0,0.0,0.0,0.0,0.0,0.0,0.0,0.0,0.0,0.0,0.0,0.0,0.0,0.0,0.0,0.0,0.0,0.0,0.0,0.0,0.0,0.0,0.0,0.0,0.0,0.0,0.0,0.0,0.0,0.0,0.0,0.0,0.0,0.0,0.0,0.0,0.0,0.0,0.0,2.3775,2.601,2.6408,2.7457,2.915,2.8403,2.7992,2.8006,2.6982,2.5685,0.0,0.0,0.0,0.0,0.0,0.0,0.0,0.0,0.0,0.0,0.0,0.0,0.0,0.0,0.0,0.0,0.0,0.0,0.0,0.0,0.0,0.0,0.0,0.0,0.0,0.0,0.0,0.0,2.3331,2.3468,2.3016,0.0,0.0,0.0,0.0,0.0,0.0,0.0,0.0,0.0,0.0,3.2766,3.4203,3.3435,3.2791,3.3244,3.1203,2.9617,2.978,2.7426,2.5117,2.3793,0.0,0.0,0.0,0.0,0.0,0.0,0.0,0.0,0.0,0.0,0.0,0.0,0.0,0.0,0.0,0.0,0.0,0.0,0.0,0.0,0.0,0.0,0.0,0.0,0.0,0.0,0.0,0.0,0.0,0.0,1.9538,0.0,0.0,0.0,0.0,0.0,0.0,0.0,0.0,0.0,0.0,0.0,0.0,0.0,0.0,0.0,0.0,0.0,0.0,0.0,0.0,0.0,0.0,2.4354,2.6099,2.7063,2.8389,2.9988,2.9284,2.8845,2.8717,2.7243,2.5907,2.4776,0.0,0.0,0.0,0.0,0.0,0.0,0.0,0.0,0.0,0.0,0.0,0.0,0.0,0.0,0.0,0.0,0.0,0.0,0.0,0.0,0.0,0.0,0.0,0.0,0.0,0.0,2.2734,2.2902,2.3025,0.0,0.0,0.0,0.0,0.0,0.0,0.0,0.0,0.0,0.0,3.3141,3.3324,3.4696,3.2882,3.1335,3.1363,2.912,2.7572,2.8268,2.728,2.6093,0.0,0.0,0.0,0.0,0.0,0.0,0.0,0.0,0.0,0.0,0.0,0.0,0.0,0.0,0.0,0.0,0.0,0.0,0.0,0.0,0.0,0.0,0.0,0.0,0.0,0.0,0.0,2.329,2.2977,0.0,0.0,0.0,0.0,0.0,0.0,0.0,0.0,0.0,0.0,0.0,2.6651,2.6232,0.0,0.0,0.0,0.0,0.0,0.0,0.0,0.0,0.0,0.0,0.0,0.0,2.5267,2.6923,2.7956,2.8998,3.0118,2.9884,2.9483,2.8888,2.8357,2.6784,2.4085,0.0,0.0,0.0,0.0,0.0,0.0,0.0,0.0,0.0,0.0,0.0,0.0,0.0,0.0,0.0,0.0,0.0,0.0,0.0,0.0,0.0,0.0,0.0,0.0,0.0,2.3521,0.0,0.0,0.0,0.0,0.0,0.0,0.0,0.0,0.0,0.0,0.0,3.028,3.227,3.3141,3.3617,3.3923,3.289,3.2241,0.0,0.0,0.0,0.0,0.0,0.0,0.0,0.0,0.0,0.0,0.0,0.0,0.0,0.0,2.5829,2.3207,2.2438,2.2306,2.2654,0.0,0.0,0.0,0.0,0.0,0.0,0.0,0.0,0.0,0.0,0.0,0.0,0.0,0.0,2.517,0.0,2.4321,0.0,0.0,0.0,0.0,0.0,0.0,0.0,0.0,2.7242,2.7796,2.8526,2.8104,2.7834,0.0,2.7355,2.5776,0.0,0.0,0.0,0.0,0.0,0.0,0.0,0.0,2.601,2.7403,2.8403,2.9331,3.0147,3.0204,2.9937,2.9363,2.9044,2.7687,2.5101,2.5409,2.49,0.0,0.0,0.0,0.0,0.0,0.0,0.0,0.0,0.0,0.0,0.0,0.0,0.0,0.0,0.0,0.0,0.0,0.0,0.0,0.0,0.0,0.0,0.0,2.4295,0.0,0.0,0.0,0.0,0.0,0.0,0.0,0.0,0.0,2.8635,3.0488,3.2302,3.3442,3.4166,3.4405,3.3803,0.0,0.0,0.0,0.0,0.0,0.0,0.0,2.7494,2.6979,2.6611,2.6305,2.5921,2.6967,2.7788,2.7134,0.0,0.0,2.4891,2.4085,2.4013,2.453,2.4759,2.4927,2.5107,2.5552,2.5733,0.0,0.0,0.0,0.0,0.0,0.0,0.0,0.0,2.689,2.6908,0.0,2.6059,0.0,0.0,0.0,0.0,0.0,0.0,0.0,0.0,2.9193,2.8962,2.8321,2.8252,2.8202,2.8225,2.8782,2.8251,2.6696,2.4889,0.0,0.0,0.0,0.0,0.0,0.0,2.6607,2.7566,2.8488,2.9383,3.0166,3.0204,3.0185,3.0166,2.9402,2.8567,2.7765,2.7384,2.6865,2.6046,2.4598,0.0,0.0,0.0,0.0,0.0,0.0,0.0,0.0,0.0,0.0,0.0,0.0,0.0,0.0,0.0,0.0,0.0,0.0,0.0,0.0,2.5024,0.0,0.0,0.0,0.0,0.0,0.0,0.0,0.0,0.0,0.0,3.1304,3.3276,3.526,3.6399,0.0,0.0,0.0,0.0,3.1994,3.1436,3.0705,3.0033,2.9274,2.9634,2.9572,2.8381,0.0,0.0,2.7316,2.8363,2.8892,2.7529,2.8135,2.8712,2.8481,2.7476,2.7055,2.7524,2.7224,2.7164,2.7633,2.7969,2.8128,2.7827,0.0,0.0,0.0,0.0,2.6314,2.7481,2.8595,2.8577,2.8913,2.9379,2.803,0.0,0.0,0.0,0.0,0.0,0.0,2.8843,3.0624,3.0739,3.111,3.1612,3.0449,2.9865,2.9893,2.9511,2.9085,2.8586,2.7431,2.5948,2.4252,0.0,0.0,0.0,0.0,2.7636,2.8413,2.9341,2.9956,3.0204,3.0204,3.0204,3.0204,2.9956,2.9421,2.8586,2.8474,2.7922,2.6902,2.6439,0.0,0.0,0.0,0.0,0.0,0.0,0.0,0.0,0.0,0.0,0.0,0.0,0.0,0.0,0.0,0.0,0.0,0.0,0.0,2.5282,2.6178,2.6889,0.0,0.0,0.0,0.0,0.0,0.0,0.0,0.0,0.0,3.4028,3.4736,3.5163,0.0,0.0,3.4778,3.3441,3.3163,3.3183,3.347,0.0,0.0,0.0,3.0008,2.9164,2.9264,2.9453,2.9351,2.8849,2.9108,2.9241,2.8611,2.8675,2.8791,2.8712,2.8361,2.8126,2.8234,2.815,2.8222,2.8727,2.8979,2.9102,3.1127,2.9123,2.8596,2.784,2.7108,2.8239,2.9339,3.029,3.0309,3.0735,3.1407,2.9855,2.8703,2.7846,2.7121,0.0,0.0,0.0,3.0517,3.2336,3.211,3.2377,3.3016,3.2094,3.1654,3.1643,3.1097,3.0873,3.094,3.0338,2.9226,2.7677,0.0,0.0,2.6732,2.7701,2.8447,2.8924,2.9765,3.0213,3.0253,3.0234,3.0226,3.0204,3.0204,2.9956,2.944,2.9421,2.9103,2.8423,2.7932,2.6992,0.0,0.0,0.0,0.0,0.0,0.0,0.0,0.0,0.0,0.0,0.0,2.3553,2.1738,0.0,0.0,0.0,2.5312,2.6484,2.7994,2.8897,0.0,0.0,0.0,0.0,0.0,0.0,0.0,3.2704,3.4432,3.5696,3.604,3.6013,3.5683,3.5105,3.518,3.488,3.3686,0.0,3.3978,3.4356,3.3311,3.2434,3.2146,3.0695,2.9669,2.9729,2.9779,2.9779,2.9599,2.9509,2.9443,2.9275,2.9106,2.904,2.8803,2.8894,2.8891,2.8823,2.8823,2.9003,2.9508,2.9605,2.963,3.4543,3.2913,3.0577,2.9544,2.9533,3.1043,3.1741,3.1801,3.1782,3.2251,3.2901,3.1458,3.0362,2.9582,2.8913,0.0,3.2083,3.1543,3.2177,3.3777,3.3248,3.3084,3.3199,3.3216,3.3231,3.3293,3.3103,3.3122,3.3266,3.3083,3.2648,3.1865,2.9525,2.8232,2.8056,2.8691,2.909,2.9202,2.987,3.024,3.0292,3.0304,3.0286,3.0218,3.0142,3.0103,3.0089,3.0089,3.0089,3.0051,2.9102,2.818,2.7336,0.0,0.0,0.0,0.0,0.0,0.0,0.0,0.0,0.0,0.0,0.0,0.0,0.0,0.0,0.0,2.964,0.0,3.1754,3.2478,0.0,0.0,0.0,3.2235,3.2517,3.4141,3.531,3.5353,0.0,0.0,3.748,3.7044,3.6523,3.5991,3.5864,3.5494,3.4467,3.4317,3.4414,3.4414,3.3673,3.2861,3.216,3.1241,3.0443,2.9921,2.9779,2.9779,2.9792,2.9792,2.9689,2.9509,2.9456,2.9349,2.8943,2.9314,2.9597,2.9518,2.9388,2.952,3.0025,3.0146,2.9904,3.5736,3.4747,3.4148,3.2834,3.1172,3.157,3.1782,3.1801,3.1801,3.2273,3.3007,3.2101,3.1586,3.1444,3.1277,3.1522,3.2123,3.2769,3.3358,3.3846,3.3878,3.4011,3.4128,3.3561,3.3285,3.3293,3.325,3.325,3.3293,3.325,3.3125,3.2931,3.231,3.1254,2.983,2.9428,2.9516,3.0081,3.022,3.026,3.0221,3.0267,3.0286,3.0204,2.9653,2.9309,2.9211,2.9197,2.9197,2.9216,2.9556,2.9375,2.8522,2.655,0.0,0.0,0.0,0.0,0.0,0.0,0.0,0.0,0.0,2.7853,2.455,0.0,2.8884,0.0,3.2692,3.4019,3.3692,3.4041,0.0,0.0,3.5083,3.4942,3.6686,3.6337,3.6189,3.6864,3.731,3.748,3.748,3.7029,3.6523,3.5976,3.5608,3.5023,3.4113,3.4196,3.4414,3.4278,3.3311,3.2304,3.2087,3.0934,2.9998,2.9792,2.9779,2.9779,2.9779,2.9779,2.9779,2.9727,2.9882,2.9948,2.9745,2.9931,3.0252,3.0447,3.0182,3.0062,3.0567,3.0687,3.0709,3.6734,3.5985,3.601,3.5219,3.3918,3.3194,3.2883,3.2906,3.2906,3.3212,3.3612,3.2895,3.2622,3.2705,3.2668,3.2874,3.3233,3.3904,3.431,3.4458,3.4661,3.4872,3.502,3.4609,3.44,3.442,3.442,3.442,3.442,3.442,3.442,3.442,3.4012,3.3292,3.2242,3.1399,3.1149,3.1457,3.1484,3.1462,3.1391,3.1066,3.0644,3.0161,2.9786,2.9346,2.8902,2.926,2.9292,2.8907,2.9327,2.9365,2.8869,2.7759,2.7088,0.0,0.0,0.0,0.0,0.0,0.0,0.0,0.0,0.0,0.0,0.0,3.1653,3.3002,3.5332,3.6635,3.632,3.6819,3.7445,3.8204,3.7061,3.6773,3.7879,3.7292,3.6963,3.7433,3.748,3.748,3.748,3.7044,3.6523,3.5991,3.5479,3.4905,3.4249,3.4278,3.4414,3.4346,3.3451,3.2506,3.1928,3.0797,2.9934,2.9934,2.9869,2.9779,2.9779,2.9779,2.9867,3.0131,3.0328,3.0443,3.0437,3.0823,3.1124,3.1187,3.1199,3.1174,3.1243,3.1315,3.1424,3.7657,3.6887,3.6956,3.6907,3.6677,3.5175,3.4511,3.4465,3.4372,3.434,3.4371,3.3743,3.3487,3.355,3.355,3.3944,3.4586,3.4813,3.4997,3.5119,3.5374,3.5588,3.5708,3.5765,3.5791,3.5791,3.5791,3.5791,3.5791,3.5791,3.5791,3.5779,3.5041,3.4664,3.4589,3.3837,3.3237,3.2827,3.2914,3.2928,3.2845,3.2121,3.1268,3.0327,3.0214,2.977,2.8898,2.9699,2.9832,2.9051,2.9174,2.9273,2.9303,2.9163,2.9091,0.0,2.8736,0.0,0.0,0.0,0.0,0.0,0.0,0.0,0.0,3.4245,3.5013,3.5526,3.7747,3.9217,3.9241,3.9787,4.0036,3.9732,3.8723,3.8001,3.7743,3.7642,3.7524,3.7524,3.7539,3.748,3.748,3.6968,3.6383,3.5913,3.5429,3.492,3.4481,3.4414,3.4481,3.4414,3.3811,3.272,3.1636,3.0646,3.0011,2.9998,3.0035,2.9905,2.993,3.0005,3.0168,3.0595,3.0821,3.0929,3.119,3.163,3.1905,3.1736,3.2031,3.2215,3.1889,3.1813,3.1572,3.8618,3.7853,3.786,3.7468,3.6851,3.6534,3.6005,3.5389,3.468,3.4427,3.4495,3.4389,3.4376,3.4358,3.4358,3.4451,3.4623,3.4926,3.51,3.5185,3.5519,3.5689,3.5773,3.5791,3.5791,3.5791,3.5791,3.5791,3.5791,3.5791,3.5791,3.5799,3.5624,3.5456,3.5328,0.0,0.0,0.0,3.287,3.2774,3.2664,3.255,3.2038,3.1115,3.0571,0.0,2.8968,2.9732,3.0128,2.9999,3.1226,0.0,0.0,0.0,0.0,0.0,0.0,0.0,0.0,0.0,0.0,0.0,3.503,3.4474,3.4443,3.7489,3.9211,3.8624,4.0548,4.1783,4.1641,4.1208,4.099,4.0972,3.9783,3.8974,3.9011,3.8327,3.7844,3.7844,3.7626,3.748,3.748,3.6708,3.6054,3.5913,3.5103,3.4534,3.4414,3.4549,3.4563,3.4346,3.3311,3.2074,3.1119,3.0432,2.9869,2.9907,3.0193,3.0407,3.0457,3.0783,3.106,3.1248,3.1599,3.1818,3.1813,3.2189,3.2451,3.2327,3.2476,3.2463,3.2025,3.195,3.1661,3.9156,0.0,3.8789,3.8546,0.0,3.7753,3.736,3.6892,3.5633,3.4888,3.4539,3.4583,3.4602,3.4602,3.4602,3.4602,3.4604,3.4945,3.5133,3.5215,3.5543,3.5728,3.5791,3.5791,3.5791,3.5791,3.5791,3.5791,3.5791,3.5791,3.5791,3.5791,3.5791,3.5745,3.565,3.5708,3.5282,3.4328,3.4202,3.4083,3.4012,3.3595,3.2953,3.2023,0.0,0.0,0.0,0.0,0.0,0.0,0.0,0.0,0.0,0.0,0.0,3.4679,3.4122,3.402,3.4772,3.4921,3.5911,3.7948,3.875,3.8724,3.7776,4.0039,4.1414,4.122,4.2106,4.2573,4.245,4.1874,4.1311,4.0891,4.0002,3.9315,3.8936,3.8327,3.7943,3.8075,3.7743,3.7539,3.7685,3.7118,3.6569,3.6321,3.5623,3.5037,3.4854,3.475,3.4698,3.4616,3.3241,3.2173,3.1796,3.0722,2.9934,2.9984,3.0096,3.0306,3.057,3.0834,3.116,3.165,3.2039,3.2193,3.2446,3.2721,3.281,3.2822,3.281,3.281,3.2376,3.2013,3.156,3.9701,3.9631,3.9551,3.952,3.9464,3.8801,3.845,3.8206,0.0,0.0,0.0,3.5052,3.4958,3.4827,3.4827,3.4733,3.4626,3.4926,3.5098,3.5215,3.5519,3.5718,3.5791,3.5791,3.5791,3.5791,3.5791,3.5791,3.5791,3.5791,3.5791,3.5791,3.5791,3.5791,3.5791,3.5708,3.5667,3.5657,3.5526,3.5445,3.5412,3.4663,3.3844,3.2905,3.2932,3.2485,3.16,3.2428,3.261,3.1946,3.1988,3.2655,3.4053,3.4144,3.5208,3.7471,3.7499,3.7508,3.7747,3.8244,3.8936,3.976,4.1637,4.2286,4.1247,4.1946,4.2611,4.3123,4.29,4.2729,4.2688,4.211,4.1437,4.0634,4.0101,3.9492,3.8805,3.8303,3.8173,3.8391,3.7992,3.7759,3.796,3.7669,3.7405,3.6876,3.6228,3.5657,3.5234,3.4817,3.4683,3.4683,3.3381,3.2417,3.2345,3.1246,3.0216,3.0088,3.0123,3.0322,3.0633,3.0922,3.1386,3.2215,3.2365,3.2579,3.2968,3.3068,3.3081,3.3081,3.3081,3.2995,3.2624,3.1901,3.1347,4.0603,4.0565,3.9877,3.9577,3.9577,3.9445,3.8995,3.8225,3.7324,3.6855,3.6742,3.6742,3.6366,3.5728,3.5709,3.5296,3.4623,3.4831,3.5032,0.0,3.5425,3.5629,3.5791,3.5791,3.5791,3.5791,3.5791,3.5791,3.5791,3.5791,3.5791,3.5791,3.5791,3.5791,3.5782,3.5618,3.5538,3.5538,3.5331,3.5219,3.516,3.5011,3.4554,3.3699,3.3745,3.3414,3.2577,3.3356,3.4053,3.4524,3.5209,3.5913,3.6618,3.6635,3.719,3.83,3.8256,3.8526,3.9407,4.0002,4.0886,4.2177,4.3169,4.3282,4.2327,4.2839,4.3266,4.334,4.316,4.3067,4.2992,4.2378,4.1828,4.1437,4.0638,4.002,3.9625,3.9073,3.8743,3.8815,3.8488,3.831,3.8327,3.796,3.7621,3.7294,3.6569,3.5559,3.5162,3.4668,3.4549,3.4481,3.3409,3.2561,3.2417,3.1334,3.0522,3.0152,3.0874,3.1259,3.126,3.1926,3.2528,3.2893,3.2893,3.2955,3.3081,3.3081,3.3081,3.3081,3.3081,3.2909,3.255,3.1913,3.1258,4.1191,4.0778,4.0403,3.9971,3.962,3.962,3.937,3.8976,3.8601,3.7906,3.7141,3.7122,3.6892,3.6554,3.6554,3.6085,3.5318,3.5529,3.5435,3.5234,3.5412,3.5618,3.5782,3.5791,3.5791,3.5791,3.5791,3.5791,3.5791,3.5791,3.5791,3.5791,3.5791,3.5782,3.5737,3.5585,3.5489,3.5443,3.536,3.5304,3.5258,3.519,3.4947,3.4547,3.4518,3.4314,3.3933,3.4732,3.5305,3.5571,3.6346,3.7116,3.7755,3.7769,3.8211,3.9067,3.9067,3.94,4.0282,4.1417,4.2277,4.2832,4.354,4.3749,4.3264,4.3379,4.3497,4.3428,4.334,4.3233,4.3104,4.2555,4.2015,4.1543,4.075,4.017,3.978,3.9582,3.945,3.9578,3.9259,3.9032,3.9186,3.8545,3.8059,3.796,3.7201,3.6511,3.6099,3.5866,3.5497,3.5007,3.422,3.3564,3.3085,3.2374,3.1589,3.1087,3.1258,3.1625,3.175,3.2365,3.2692,3.3018,3.3081,3.3081,3.3081,3.3081,3.3081,3.3081,3.2982,3.281,3.2723,3.2363,3.1613,4.1924,4.1342,4.0966,4.0347,3.9639,3.962,3.962,3.962,3.9602,3.8888,3.7737,3.7667,3.753,3.738,3.7361,3.6911,3.6258,3.6338,3.6197,3.5814,3.5957,3.606,3.6093,3.6101,3.5985,3.5829,3.5791,3.5791,3.581,3.6004,3.6207,3.6362,3.6401,3.6338,3.6209,3.6098,3.5963,3.5871,3.5687,3.5515,3.5339,3.5203,3.5136,3.5119,3.5172,3.5192,3.523,3.6006,3.6515,3.6599,3.7162,3.7815,3.8549,3.8582,3.8976,3.9746,3.9883,4.0309,4.1323,4.2462,4.3222,4.3237,4.3725,4.4023,4.3929,4.3767,4.36,4.3532,4.3446,4.3269,4.2994,4.2652,4.2074,4.1258,4.0784,4.022,3.964,3.966,3.988,4.0078,3.9745,3.9527,3.9575,3.907,3.8658,3.8479,3.8185,3.7763,3.7338,3.7226,3.6745,3.5857,3.5179,3.4695,3.4072,3.3482,3.2858,3.2082,3.1988,3.211,3.2268,3.2277,3.2554,3.2993,3.3081,3.3081,3.3081,3.3081,3.3081,3.3081,3.2982,3.2896,3.2896,3.2736,3.2176,4.3106,4.2825,4.1473,4.0347,3.9658,3.9639,3.9639,3.962,3.962,3.9545,3.9301,3.9376,3.8882,3.8263,3.8206,3.7756,3.7028,3.7065,3.7223,3.7408,3.7613,3.7423,3.6986,3.6984,3.6567,3.5929,3.5879,3.5948,3.5997,3.6626,3.7372,3.8091,3.8149,3.7967,3.7764,3.766,3.7533,3.7297,3.654,3.5799,3.5167,3.5001,3.4926,3.4945,3.5685,3.6082,3.6062,3.6859,3.7593,3.8203,3.8313,3.8719,3.9357,3.9489,3.9821,4.0591,4.0703,4.136,4.2862,4.3165,4.3512,4.408,4.4121,4.4135,4.4005,4.3832,4.3719,4.36,4.3481,4.3178,4.2788,4.2498,4.1888,4.1019,4.0689,4.0319,3.9711,3.9481,3.9495,3.9371,3.9549,3.9334,3.9483,3.933,3.9226,3.9185,3.9135,3.8898,3.841,3.8177,3.7963,3.699,3.5974,3.5352,3.5339,3.4522,3.3786,3.3154,3.3265,3.3092,3.2675,3.2667,3.3031,3.3006,3.3081,3.3081,3.3081,3.3081,3.3081,3.3081,3.3068,3.2982,3.281,3.2636,3.2288,4.3849,4.3257,4.2562,4.1511,4.0384,4.0309,4.0027,3.9639,3.962,3.962,3.962,3.962,3.9414,3.907,3.907,3.8601,3.7854,3.8045,3.7966,3.7756,3.7954,3.7986,3.7822,3.7674,3.748,3.7279,3.7168,3.7168,3.7327,3.7638,3.7987,3.8297,3.8336,3.8194,3.7896,3.7843,3.7704,3.7432,3.7028,3.6646,3.6307,3.5833,3.5548,3.5622,3.6316,3.6726,3.6801,3.7498,3.8079,3.839,3.886,3.9269,3.9602,4.0027,4.0459,4.0835,4.1755,4.2562,4.3257,4.3717,4.4046,4.4314,4.4255,4.4177,4.4005,4.3897,4.3734,4.3355,4.3178,4.2882,4.236,4.1871,4.141,4.0926,4.0483,4.0054,3.9781,4.0027,4.0188,4.0113,4.0425,4.0475,4.0105,3.9934,4.0089,4.0345,4.0447,4.028,4.0151,3.9738,3.9291,3.8832,3.7653,3.6702,3.6488,3.6182,3.5328,3.4489,3.4193,3.3757,3.3068,3.2867,3.3068,3.3081,3.3081,3.3081,3.3081,3.3081,3.3081,3.3081,3.3081,3.2995,3.2723,3.2723,3.2822,4.4467,4.3747,4.3415,4.2449,4.1154,4.1135,4.0666,3.9971,3.9915,3.9802,3.962,3.962,3.962,3.962,3.962,3.922,3.8742,3.8915,3.8803,3.8431,3.8589,3.8653,3.857,3.8433,3.8286,3.8179,3.8098,3.8276,3.8606,3.8655,3.8771,3.8946,3.8984,3.8813,3.8489,3.8457,3.8306,3.7988,3.7672,3.7498,3.7423,3.693,3.6516,3.6384,3.7032,3.7418,3.7437,3.8225,3.8657,3.8676,3.9258,3.962,3.9658,4.0365,4.0985,4.1529,4.2825,4.3632,4.3632,4.4149,4.443,4.4333,4.4285,4.4195,4.4055,4.3929,4.3664,4.3212,4.2885,4.248,4.1931,4.1437,4.1076,4.0849,4.032,4.0003,3.9934,4.0318,4.0447,4.0458,4.0604,4.1017,4.0574,4.0437,4.063,4.1444,4.1533,4.165,4.162,4.1047,4.05,4.0185,3.8987,3.8028,3.7416,3.7113,3.6632,3.5631,3.4915,3.4389,3.3398,3.3167,3.3081,3.3081,3.3081,3.3081,3.3081,3.3081,3.3081,3.3081,3.3081,3.3081,3.2909,3.2995,3.3081,4.5011,4.4581,4.3728,4.2852,4.1961,4.1961,4.1492,4.0741,4.0722,4.0309,3.9671,3.962,3.962,3.962,3.9602,3.9602,3.9526,3.9537,3.9681,3.9889,3.9834,3.9619,3.9262,3.9224,3.8805,3.8246,3.84,3.8817,3.9517,3.9555,3.9934,4.0613,4.0544,4.0417,4.0015,3.9924,3.985,3.9298,3.8625,3.8225,3.8244,3.8206,3.7817,3.7272,3.7831,3.8244,3.8338,3.907,3.9526,3.9521,3.9583,3.962,3.969,4.0403,4.1586,4.3013,4.3951,4.4421,4.4374,4.4402,4.4401,4.4314,4.4226,4.4135,4.4005,4.3961,4.3697,4.3211,4.2698,4.2162,4.1587,4.1321,4.1019,4.0614,4.037,4.0138,3.9952,4.0035,3.9917,3.988,4.0079,4.0475,4.0683,4.0508,4.1143,4.1955,4.1898,4.1732,4.2272,4.1869,4.1127,4.0339,3.952,3.8884,3.8429,3.7973,3.7035,3.6027,3.5318,3.491,3.3882,3.3081,3.3081,3.3081,3.3081,3.3081,3.3081,3.3081,3.3081,3.3081,3.3081,3.3081,3.2995,3.3081,3.3081,4.5264,4.5033,4.4657,4.3933,4.3069,4.3032,4.2454,4.1529,4.1022,4.0647,4.029,3.9821,3.962,3.962,3.9731,3.9727,3.9607,3.9867,3.9981,4.0041,4.0212,4.0128,3.9898,3.9874,3.9807,3.9634,3.9673,3.9928,4.0304,4.0382,4.0517,4.0718,4.0662,4.0466,4.0212,4.0081,3.9873,3.9588,3.9258,3.9126,3.9107,3.9126,3.8957,3.8756,3.8957,3.9126,3.9126,3.9451,3.962,3.962,3.962,3.9821,4.0422,4.1661,4.2881,4.3933,4.4346,4.4496,4.4515,4.4468,4.4411,4.4314,4.4255,4.4195,4.4036,4.3942,4.366,4.2959,4.2641,4.2162,4.1436,4.1041,4.0806,4.0583,4.0404,4.0255,4.0206,4.0442,4.0712,4.0606,4.0872,4.1498,4.2155,4.2242,4.2285,4.2982,4.2982,4.293,4.2883,4.2157,4.1229,4.0774,3.9748,3.887,3.8723,3.8429,3.7731,3.6535,3.5601,3.4746,3.3797,3.324,3.3081,3.3081,3.3081,3.3081,3.3081,3.3081,3.3081,3.3081,3.3081,3.3081,3.3081,3.3081,3.3081,4.5437,4.5303,4.5222,4.4791,4.4144,4.4014,4.3415,4.2485,4.1856,4.1454,4.1116,4.0691,4.0333,4.0064,4.0201,4.0008,3.9669,3.9956,4.006,4.0001,4.0139,4.0157,4.0139,4.0177,4.0266,4.0389,4.0473,4.0598,4.0778,4.0733,4.0706,4.0693,4.0569,4.0356,4.012,3.9977,3.9781,3.965,3.962,3.962,3.962,3.962,3.962,3.962,3.962,3.962,3.962,3.962,3.962,3.9639,3.9821,4.0459,4.1586,4.2675,4.3651,4.4383,4.4496,4.4496,4.4515,4.4487,4.443,4.4314,4.4255,4.4195,4.4005,4.4005,4.3627,4.3032,4.2659,4.2244,4.1552,4.1076,4.0745,4.0583,4.0436,4.0305,4.0239,4.0815,4.1202,4.1471,4.1917,4.2713,4.3387,4.3113,4.3148,4.3604,4.3522,4.3389,4.3366,4.2553,4.1559,4.1229,4.0224,3.9421,3.909,3.8738,3.8132,3.7007,3.5842,3.4828,3.3966,3.3484,3.3081,3.3081,3.3081,3.3081,3.3081,3.3081,3.3081,3.3081,3.3081,3.3081,3.3081,3.3081,3.3081,4.5526,4.5472,4.5284,4.5204,4.5046,4.4829,4.4332,4.3615,4.325,4.2656,4.2063,4.2138,4.158,4.0992,4.0919,4.0541,3.9934,3.9905,4.0,4.008,3.9848,3.9804,3.9916,4.0158,4.0269,4.0304,4.0441,4.0598,4.0778,4.0646,4.0554,4.0504,4.0489,4.0286,3.9914,3.9892,3.9777,3.965,3.962,3.962,3.962,3.962,3.962,3.962,3.962,3.962,3.962,3.962,3.9658,3.9746,4.0347,4.1548,4.2844,4.3332,4.3688,4.4364,4.4496,4.4496,4.4515,4.444,4.4401,4.4314,4.4244,4.4165,4.4055,4.4005,4.3777,4.3283,4.2848,4.2346,4.1839,4.1468,4.1022,4.0779,4.062,4.059,4.0526,4.0883,4.1525,4.2303,4.2884,4.3199,4.3211,4.3199,4.3387,4.3614,4.339,4.3207,4.3453,4.2912,4.2317,4.1591,4.0721,3.999,3.9523,3.9031,3.8219,3.742,3.6253,3.5142,3.4288,3.3654,3.3253,3.3081,3.3081,3.3081,3.3081,3.3081,3.3081,3.3081,3.3081,3.3081,3.3081,3.3081,3.3081,4.5708,4.5708,4.5642,4.5543,4.5381,4.5182,4.4794,4.434,4.3653,4.3144,4.2852,4.2359,4.1926,4.1606,4.1293,4.1016,4.0796,4.0241,3.987,3.9845,3.9956,3.9937,3.9958,4.0251,4.0473,4.0598,4.0673,4.0752,4.0778,4.0733,4.0646,4.0504,4.0356,4.0139,3.9892,3.9754,3.9631,3.962,3.962,3.962,3.962,3.962,3.962,3.962,3.962,3.962,3.962,3.962,3.9883,4.0365,4.0666,4.1567,4.3031,4.3839,4.4233,4.4458,4.4496,4.4496,4.4496,4.4487,4.443,4.4314,4.4304,4.4195,4.4055,4.4005,4.3712,4.3141,4.2792,4.2404,4.171,4.1823,4.1613,4.0831,4.1045,4.1221,4.124,4.1984,4.2997,4.3707,4.4041,4.4103,4.3956,4.3883,4.3853,4.3856,4.3648,4.3606,4.3486,4.3096,4.2317,4.1591,4.094,4.0285,3.9595,3.9177,3.8708,3.7829,3.6802,3.5628,3.4772,3.3907,3.3496,3.3081,3.3081,3.3081,3.3081,3.3081,3.3081,3.3081,3.3081,3.3081,3.3081,3.3081,3.3081,4.58,4.58,4.58,4.5737,4.5594,4.5399,4.5204,4.4979,4.4332,4.4001,4.3869,4.3434,4.2999,4.2664,4.2219,4.1768,4.138,4.0644,4.0154,3.9864,3.9958,4.002,3.9958,4.0323,4.0598,4.0746,4.072,4.0733,4.079,4.0626,4.0523,4.0372,4.0196,3.9979,3.98,3.9656,3.962,3.962,3.962,3.962,3.962,3.962,3.9752,3.999,4.0027,4.0196,4.044,4.0497,4.0572,4.091,4.136,4.2393,4.3651,4.4233,4.4496,4.4496,4.4496,4.4496,4.4496,4.4496,4.444,4.4344,4.4333,4.4226,4.4036,4.3892,4.3474,4.2941,4.2657,4.2346,4.1918,4.2091,4.2111,4.1802,4.195,4.2159,4.2329,4.2881,4.3673,4.4248,4.4536,4.4497,4.444,4.4384,4.427,4.4056,4.3939,4.3881,4.3628,4.3235,4.2506,4.1852,4.126,4.0462,3.961,3.925,3.9031,3.8234,3.7357,3.6267,3.5251,3.4384,3.3738,3.3253,3.3081,3.3081,3.3081,3.3081,3.3081,3.3081,3.3081,3.3081,3.3081,3.3081,3.3081,4.58,4.58,4.58,4.58,4.5752,4.5577,4.5472,4.5436,4.5206,4.5063,4.5063,4.4927,4.4605,4.4013,4.3558,4.2802,4.1704,4.1161,4.0802,4.0387,4.0157,4.002,4.012,4.0389,4.0646,4.0765,4.0626,4.0646,4.0759,4.0454,4.0195,4.0195,4.002,3.9823,3.9712,3.9658,3.9771,3.9783,3.9846,3.9902,3.9808,3.9865,4.0046,4.0722,4.0835,4.1154,4.1642,4.1867,4.168,4.1285,4.2506,4.3595,4.4308,4.4496,4.4496,4.4496,4.4496,4.4496,4.4496,4.4496,4.444,4.4344,4.4314,4.4207,4.4036,4.3712,4.3283,4.2829,4.2462,4.231,4.2419,4.2591,4.2814,4.3363,4.3217,4.322,4.3656,4.363,4.3965,4.4401,4.457,4.457,4.457,4.457,4.4384,4.4155,4.4039,4.3923,4.3687,4.3312,4.2834,4.2237,4.1591,4.0789,3.9935,3.9337,3.9177,3.8782,3.7919,3.6894,3.5561,3.4538,3.3823,3.3326,3.3081,3.3081,3.3081,3.3081,3.3081,3.3081,3.3081,3.3081,3.3081,3.3081,3.3081,4.58,4.58,4.58,4.58,4.5786,4.5594,4.5509,4.5472,4.5303,4.5243,4.5201,4.5201,4.5088,4.4781,4.4109,4.3656,4.3119,4.1992,4.138,4.1215,4.0622,4.046,4.0554,4.066,4.0752,4.0778,4.0733,4.0746,4.0778,4.0562,4.0377,4.0196,4.0112,3.9857,3.9682,4.0234,4.0478,4.0591,4.1098,4.1022,4.0628,4.106,4.1154,4.0835,4.1379,4.1792,4.2047,4.2637,4.29,4.275,4.3595,4.4271,4.4477,4.4496,4.4496,4.4496,4.4496,4.4496,4.4496,4.4496,4.444,4.4383,4.4314,4.4255,4.4135,4.366,4.3248,4.2829,4.244,4.2303,4.2594,4.3027,4.3687,4.4544,4.4199,4.4009,4.434,4.4504,4.4533,4.4609,4.457,4.457,4.457,4.457,4.4457,4.4212,4.4097,4.3998,4.3763,4.3568,4.3174,4.2506,4.1852,4.1127,4.0393,3.9737,3.9337,3.9104,3.8472,3.7677,3.6029,3.4454,3.3725,3.3154,3.3081,3.3081,3.3081,3.3081,3.3081,3.3081,3.3081,3.3081,3.3081,3.3081,3.3081,4.58,4.58,4.58,4.58,4.58,4.5673,4.5626,4.561,4.5507,4.5454,4.5436,4.5381,4.5323,4.5227,4.4605,4.4229,4.4034,4.3005,4.2255,4.1658,4.0998,4.0712,4.0778,4.079,4.079,4.079,4.081,4.079,4.0829,4.085,4.0802,4.0788,4.0745,4.0721,4.0729,4.1022,4.1304,4.1398,4.1747,4.1755,4.1417,4.1755,4.2018,4.1867,4.2355,4.2656,4.3069,4.3557,4.3801,4.3895,4.4252,4.4496,4.4496,4.4496,4.4496,4.4496,4.4496,4.4496,4.4496,4.4496,4.4468,4.4383,4.4344,4.4274,4.4073,4.3612,4.2996,4.2792,4.2279,4.2422,4.3103,4.3916,4.4711,4.5217,4.4974,4.473,4.4944,4.4835,4.4776,4.4682,4.4626,4.457,4.457,4.457,4.4457,4.427,4.4155,4.3981,4.3822,4.3628,4.3432,4.2772,4.2253,4.1591,4.0789,4.0146,3.9466,3.925,3.8708,3.7994,3.6582,3.469,3.3882,3.3313,3.324,3.3081,3.3081,3.3081,3.3081,3.3081,3.3081,3.3081,3.3081,3.3081,3.3081,4.58,4.58,4.58,4.58,4.58,4.58,4.5786,4.58,4.5771,4.5771,4.5737,4.5591,4.5543,4.5526,4.507,4.4703,4.4391,4.3943,4.3145,4.2261,4.1455,4.11,4.1332,4.1139,4.1197,4.1274,4.11,4.1197,4.1363,4.1505,4.1533,4.1547,4.1779,4.1912,4.1792,4.2018,4.213,4.2187,4.2431,4.2404,4.228,4.2431,4.2712,4.2975,4.3275,4.3688,4.4139,4.4439,4.4439,4.4477,4.4496,4.4496,4.4496,4.4496,4.4496,4.4496,4.4496,4.4496,4.4496,4.4515,4.4487,4.4411,4.4344,4.4304,4.4104,4.3493,4.2941,4.2792,4.2092,4.2467,4.3612,4.496,4.5526,4.5615,4.5424,4.5336,4.5194,4.4978,4.4831,4.4776,4.4665,4.4626,4.457,4.457,4.4497,4.4327,4.4155,4.3998,4.3822,4.3687,4.3432,4.2974,4.2506,4.2045,4.126,4.0547,3.9864,3.9394,3.8782,3.7994,3.6894,3.5467,3.4358,3.3641,3.3411,3.3167,3.3081,3.3081,3.3081,3.3081,3.3081,3.3081,3.3081,3.3081,3.3081,4.58,4.58,4.58,4.58,4.58,4.58,4.58,4.58,4.58,4.58,4.58,4.5752,4.5703,4.5708,4.5435,4.5372,4.5214,4.4542,4.3709,4.3027,4.2125,4.2222,4.2454,4.2164,4.2125,4.2492,4.2725,4.2725,4.2681,4.2424,4.2411,4.2408,4.2276,4.2036,4.2168,4.2787,4.3031,4.3125,4.3576,4.352,4.3219,4.3538,4.3651,4.3501,4.3895,4.4271,4.4439,4.4496,4.4496,4.4496,4.4496,4.4496,4.4496,4.4496,4.4496,4.4496,4.4496,4.4496,4.4496,4.4496,4.4487,4.4468,4.4373,4.4285,4.4255,4.366,4.3123,4.2829,4.2396,4.2607,4.3699,4.5114,4.5715,4.5667,4.5581,4.5528,4.5371,4.5194,4.5032,4.4869,4.4776,4.472,4.4626,4.4626,4.4497,4.431,4.4196,4.4056,4.3906,4.368,4.3492,4.3235,4.2912,4.238,4.1393,4.06,3.9864,3.9466,3.8943,3.8323,3.7218,3.6094,3.4979,3.4121,3.3398,3.324,3.3167,3.3081,3.3081,3.3081,3.3081,3.3081,3.3081,3.3081,3.3081,4.58,4.58,4.58,4.58,4.58,4.58,4.58,4.58,4.58,4.58,4.58,4.58,4.5752,4.5677,4.5541,4.5558,4.5449,4.4828,4.4457,4.4123,4.3343,4.3324,4.4136,4.3653,4.3363,4.3401,4.3285,4.3258,4.3166,4.3234,4.321,4.3178,4.3102,4.3275,4.3182,4.3613,4.3839,4.3914,4.4252,4.4271,4.4045,4.4252,4.4383,4.397,4.4271,4.4496,4.4496,4.4496,4.4496,4.4496,4.4496,4.4496,4.4496,4.4496,4.4496,4.4496,4.4496,4.4496,4.4496,4.4496,4.4496,4.4515,4.4373,4.4333,4.4177,4.3726,4.3248,4.2847,4.2566,4.2647,4.3717,4.5114,4.5783,4.5838,4.5684,4.5581,4.5476,4.53,4.5177,4.4978,4.4923,4.4831,4.472,4.4631,4.4321,4.4018,4.4175,4.4021,4.3695,4.3597,4.3756,4.3552,4.3295,4.271,4.1591,4.0668,3.9809,3.9481,3.9265,3.8649,3.7857,3.6738,3.5615,3.4746,3.3797,3.3411,3.324,3.3167,3.3167,3.3081,3.3081,3.3081,3.3081,3.3081,3.3081,4.58,4.58,4.58,4.58,4.58,4.58,4.58,4.58,4.58,4.58,4.58,4.58,4.5723,4.5594,4.5526,4.549,4.5368,4.5167,4.5084,4.5278,4.4117,4.4369,4.5084,4.4755,4.4233,4.3692,4.3866,4.3777,4.3758,4.3829,4.3988,4.3886,4.4199,4.4214,4.4402,4.4477,4.4402,4.4402,4.4486,4.4524,4.4421,4.4496,4.4467,4.4439,4.4458,4.4496,4.4496,4.4496,4.4496,4.4496,4.4496,4.4496,4.4496,4.4496,4.4496,4.4496,4.4496,4.4496,4.4496,4.4496,4.4496,4.4487,4.4401,4.4314,4.4177,4.386,4.3371,4.2955,4.2718,4.2987,4.388,4.5211,4.5883,4.5972,4.577,4.5667,4.5563,4.5406,4.53,4.5194,4.5086,4.4978,4.4729,4.4589,4.4139,4.3792,4.3985,4.3956,4.3558,4.3434,4.3564,4.3731,4.3462,4.274,4.1722,4.0873,3.995,3.9481,3.9424,3.9046,3.8412,3.7218,3.6015,3.5061,3.4358,3.381,3.3411,3.3326,3.324,3.3167,3.3081,3.3081,3.3081,3.3081,3.3081,4.58,4.58,4.58,4.58,4.58,4.58,4.58,4.58,4.58,4.58,4.58,4.58,4.5786,4.5708,4.5577,4.5526,4.55,4.5471,4.5587,4.5664,4.4813,4.5026,4.5452,4.5142,4.4891,4.5297,4.5225,4.504,4.4914,4.5016,4.469,4.4586,4.4501,4.4496,4.4496,4.4496,4.4496,4.4515,4.4597,4.4605,4.4542,4.4578,4.4578,4.4496,4.4496,4.4496,4.4496,4.4496,4.4496,4.4496,4.4496,4.4496,4.4496,4.4496,4.4496,4.4496,4.4496,4.4496,4.4496,4.4496,4.4496,4.4487,4.443,4.4373,4.4285,4.4135,4.3612,4.3192,4.3244,4.3663,4.3915,4.5242,4.5982,4.6023,4.5922,4.5821,4.5684,4.5528,4.5406,4.5247,4.5194,4.5069,4.4858,4.4579,4.413,4.38,4.3792,4.3613,4.3199,4.3121,4.3227,4.3397,4.3556,4.2717,4.1787,4.094,4.0146,3.9625,3.9424,3.9424,3.8634,3.7448,3.6411,3.5628,3.4759,3.3979,3.3654,3.3484,3.3398,3.3313,3.324,3.3081,3.3081,3.3081,3.3081,4.58,4.58,4.58,4.58,4.58,4.58,4.58,4.58,4.58,4.58,4.58,4.58,4.58,4.5786,4.5723,4.5658,4.5692,4.5757,4.58,4.5664,4.5432,4.5374,4.578,4.5355,4.5471,4.567,4.5688,4.556,4.5381,4.5206,4.5004,4.4681,4.4551,4.4496,4.4496,4.4496,4.4496,4.4542,4.4605,4.4632,4.4515,4.4578,4.4551,4.4524,4.4496,4.4496,4.4496,4.4496,4.4496,4.4496,4.4496,4.4496,4.4496,4.4496,4.4496,4.4496,4.4496,4.4496,4.4496,4.4496,4.4496,4.4515,4.444,4.4383,4.4344,4.4177,4.3763,4.3285,4.3444,4.3886,4.3921,4.5326,4.6032,4.614,4.604,4.5922,4.577,4.5667,4.5494,4.525,4.4887,4.4818,4.4966,4.4602,4.4153,4.3875,4.3644,4.328,4.2922,4.3098,4.3256,4.3093,4.3189,4.239,4.1677,4.1095,4.027,3.9681,3.9424,3.9424,3.9046,3.8008,3.7127,3.6411,3.54,3.423,3.3823,3.3654,3.3569,3.3386,3.324,3.3167,3.3081,3.3081,3.3081,4.58,4.58,4.58,4.58,4.58,4.58,4.58,4.58,4.58,4.58,4.58,4.58,4.58,4.58,4.58,4.58,4.58,4.58,4.58,4.58,4.5742,4.578,4.58,4.58,4.578,4.5728,4.561,4.5399,4.5244,4.5118,4.4862,4.4621,4.4496,4.4496,4.4496,4.4496,4.4496,4.4524,4.4632,4.4632,4.4605,4.4542,4.4496,4.4524,4.4496,4.4496,4.4496,4.4496,4.4496,4.4496,4.4496,4.4496,4.4496,4.4496,4.4496,4.4496,4.4496,4.4496,4.4496,4.4496,4.4496,4.4515,4.444,4.4411,4.4325,4.4109,4.373,4.325,4.3572,4.4019,4.423,4.5356,4.6063,4.6172,4.6073,4.5972,4.5871,4.5735,4.5493,4.5148,4.4664,4.4647,4.4953,4.4643,4.4124,4.3946,4.3769,4.3356,4.3044,4.3445,4.3485,4.2981,4.2601,4.1999,4.1501,4.1267,4.0416,3.961,3.9424,3.9424,3.9119,3.859,3.7857,3.7063,3.5642,3.462,3.423,3.3823,3.3641,3.3484,3.324,3.3167,3.3081,3.3081,3.3081,4.58,4.58,4.58,4.58,4.58,4.58,4.58,4.58,4.58,4.58,4.58,4.58,4.58,4.58,4.58,4.58,4.58,4.58,4.58,4.58,4.58,4.58,4.58,4.58,4.58,4.5752,4.5594,4.5419,4.5223,4.5011,4.4764,4.456,4.4496,4.4496,4.4496,4.4496,4.4496,4.4515,4.4632,4.4738,4.477,4.4624,4.4597,4.4605,4.457,4.4496,4.4496,4.4496,4.4496,4.4496,4.4496,4.4496,4.4496,4.4496,4.4496,4.4496,4.4496,4.4496,4.4496,4.4496,4.4496,4.4496,4.4468,4.444,4.4306,4.3949,4.3609,4.3545,4.3989,4.4316,4.4502,4.5446,4.6024,4.6189,4.6189,4.6073,4.5972,4.5871,4.5613,4.5234,4.4854,4.4906,4.511,4.4627,4.4197,4.4002,4.3807,4.3464,4.3068,4.3247,4.3478,4.2886,4.2501,4.1888,4.1477,4.1261,4.0588,3.9632,3.9451,3.9409,3.9192,3.89,3.8441,3.7477,3.6136,3.5101,3.462,3.4301,3.3882,3.3556,3.3398,3.324,3.3081,3.3081,3.3081,4.58,4.58,4.58,4.58,4.58,4.58,4.58,4.58,4.58,4.58,4.58,4.58,4.58,4.58,4.58,4.58,4.58,4.58,4.58,4.58,4.58,4.58,4.58,4.58,4.58,4.5752,4.5591,4.549,4.5265,4.5011,4.472,4.4681,4.456,4.4496,4.4496,4.4496,4.4496,4.4496,4.4551,4.4659,4.4693,4.4605,4.4524,4.4578,4.4542,4.4515,4.4496,4.4496,4.4496,4.4496,4.4496,4.4496,4.4496,4.4496,4.4496,4.4496,4.4496,4.4496,4.4496,4.4496,4.4496,4.4496,4.4496,4.4468,4.4306,4.3949,4.359,4.3505,4.3689,4.4025,4.4484,4.517,4.5738,4.6046,4.6119,4.614,4.6023,4.6023,4.5767,4.5439,4.5095,4.5183,4.5165,4.4785,4.4525,4.459,4.436,4.4031,4.3192,4.2475,4.2601,4.2711,4.2378,4.1993,4.1651,4.1355,4.0776,4.004,3.9576,3.9535,3.9409,3.9046,3.8738,3.8113,3.7,3.6042,3.5251,3.4538,3.3979,3.3738,3.3556,3.3398,3.324,3.3068,3.3068,4.58,4.58,4.58,4.58,4.58,4.58,4.58,4.58,4.58,4.58,4.58,4.58,4.58,4.58,4.58,4.58,4.58,4.58,4.58,4.58,4.58,4.58,4.58,4.58,4.58,4.58,4.5594,4.549,4.5362,4.5077,4.4776,4.4795,4.4568,4.4496,4.4496,4.4496,4.4496,4.4496,4.4496,4.4578,4.4659,4.4578,4.4524,4.4551,4.4551,4.4542,4.4496,4.4551,4.4551,4.4496,4.4496,4.4496,4.4496,4.4496,4.4496,4.4496,4.4496,4.4496,4.4496,4.4496,4.4496,4.4496,4.4515,4.4487,4.4411,4.406,4.3836,4.3786,4.3704,4.3976,4.431,4.483,4.5304,4.5765,4.6063,4.6052,4.609,4.6073,4.583,4.5381,4.5144,4.5268,4.5183,4.4906,4.4872,4.5093,4.4915,4.4531,4.3467,4.2221,4.2168,4.2395,4.2358,4.2138,4.1906,4.1455,4.0896,4.0337,3.9887,3.9586,3.9448,3.9307,3.9119,3.8412,3.7663,3.6986,3.6108,3.5101,3.4076,3.3907,3.3738,3.3569,3.3398,3.324,3.3068,4.58,4.58,4.58,4.58,4.58,4.58,4.58,4.58,4.58,4.58,4.58,4.58,4.58,4.58,4.58,4.58,4.58,4.58,4.58,4.58,4.58,4.58,4.58,4.58,4.58,4.5766,4.5626,4.556,4.5418,4.5099,4.4872,4.477,4.4595,4.4524,4.4496,4.4496,4.4496,4.4496,4.4496,4.457,4.4605,4.4578,4.4551,4.4632,4.4659,4.4632,4.4496,4.4578,4.4605,4.4515,4.4496,4.4496,4.4496,4.4496,4.4496,4.4496,4.4496,4.4496,4.4496,4.4496,4.4496,4.4496,4.4515,4.4515,4.4468,4.4411,4.4306,4.4158,4.3887,4.3917,4.425,4.4617,4.4789,4.5203,4.5536,4.5821,4.5961,4.6154,4.5877,4.5323,4.5242,4.5422,4.5407,4.5148,4.5062,4.5249,4.471,4.4309,4.3467,4.239,4.2134,4.2182,4.232,4.2232,4.2129,4.1776,4.145,4.0639,3.9926,3.9634,3.947,3.9403,3.9113,3.8913,3.8162,3.7605,3.6788,3.5507,3.4555,3.4121,3.3907,3.3654,3.3398,3.3227,3.3154,4.58,4.58,4.58,4.58,4.58,4.58,4.58,4.58,4.58,4.58,4.58,4.58,4.58,4.58,4.58,4.58,4.58,4.58,4.58,4.58,4.58,4.58,4.58,4.58,4.58,4.5786,4.5708,4.5673,4.5623,4.5245,4.5096,4.4938,4.4674,4.4551,4.4496,4.4496,4.4496,4.4496,4.4496,4.4542,4.4524,4.4524,4.4524,4.457,4.4578,4.4551,4.4496,4.4551,4.4542,4.4515,4.4496,4.4496,4.4496,4.4496,4.4496,4.4496,4.4496,4.4496,4.4496,4.4496,4.4496,4.4496,4.4496,4.4496,4.4496,4.444,4.4411,4.4221,4.3781,4.3651,4.4114,4.3904,4.3763,4.436,4.4904,4.5361,4.5642,4.5817,4.5944,4.5408,4.5568,4.58,4.5648,4.5511,4.5407,4.5319,4.4694,4.4002,4.3161,4.2359,4.1967,4.1865,4.195,4.2117,4.2044,4.1988,4.1943,4.1007,3.9969,3.9591,3.936,3.9033,3.8877,3.8743,3.8427,3.7473,3.657,3.5623,3.4846,3.431,3.3985,3.3823,3.3569,3.3313,3.3177,4.58,4.58,4.58,4.58,4.58,4.58,4.58,4.58,4.58,4.58,4.58,4.58,4.58,4.58,4.58,4.58,4.58,4.58,4.58,4.58,4.58,4.58,4.58,4.58,4.58,4.58,4.58,4.5766,4.5642,4.5399,4.5203,4.4985,4.4783,4.4621,4.4496,4.4515,4.4515,4.4496,4.4496,4.4496,4.4496,4.4496,4.4496,4.4542,4.457,4.4551,4.4524,4.4551,4.4551,4.4542,4.4496,4.4496,4.4496,4.4496,4.4496,4.4496,4.4496,4.4496,4.4496,4.4496,4.4496,4.4496,4.4496,4.4496,4.4468,4.444,4.444,4.4335,4.3642,4.3269,4.3887,4.3459,4.3288,4.386,4.4337,4.4746,4.4992,4.5185,4.547,4.5527,4.5793,4.6005,4.5837,4.5649,4.5459,4.5268,4.4593,4.3852,4.2926,4.2141,4.146,4.1392,4.1528,4.173,4.1929,4.1633,4.1304,4.1005,4.0052,3.9404,3.9051,3.872,3.8484,3.8307,3.7831,3.7085,3.6365,3.5516,3.4832,3.4222,3.4022,3.3843,3.3823,3.3543,3.3221,4.58,4.58,4.58,4.58,4.58,4.58,4.58,4.58,4.58,4.58,4.58,4.58,4.58,4.58,4.58,4.58,4.58,4.58,4.58,4.58,4.58,4.58,4.58,4.58,4.58,4.58,4.58,4.5737,4.5558,4.549,4.5265,4.4988,4.4843,4.47,4.4524,4.4515,4.4515,4.4496,4.4524,4.4524,4.4551,4.4551,4.4551,4.4578,4.4632,4.4605,4.4597,4.4578,4.4578,4.4496,4.4496,4.4496,4.4496,4.4496,4.4496,4.4496,4.4496,4.4496,4.4496,4.4496,4.4496,4.4496,4.4496,4.4496,4.4496,4.4468,4.4468,4.4411,4.3791,4.3406,4.3378,4.3224,4.3106,4.3236,4.3701,4.4067,4.4296,4.4887,4.5242,4.5523,4.5874,4.6122,4.6023,4.5821,4.5598,4.5182,4.4561,4.3734,4.2877,4.2057,4.1308,4.1087,4.1257,4.1443,4.1559,4.1,4.0641,4.0484,4.0124,3.9374,3.876,3.8299,3.8044,3.7857,3.7569,3.7172,3.6388,3.5536,3.458,3.3793,3.3962,3.3933,3.3914,3.3759,3.3352,4.58,4.58,4.58,4.58,4.58,4.58,4.58,4.58,4.58,4.58,4.58,4.58,4.58,4.58,4.58,4.58,4.58,4.58,4.58,4.58,4.58,4.58,4.58,4.58,4.58,4.5833,4.5833,4.5847,4.5786,4.5642,4.5472,4.5225,4.4985,4.4777,4.4712,4.4712,4.4789,4.4789,4.4789,4.4789,4.4764,4.4764,4.4764,4.4764,4.4738,4.4685,4.4624,4.4605,4.4551,4.4496,4.4496,4.4496,4.4496,4.4496,4.4496,4.4496,4.4496,4.4496,4.4496,4.4496,4.4496,4.4496,4.4496,4.4496,4.4496,4.4496,4.4496,4.4364,4.3855,4.3542,4.3359,4.2832,4.2638,4.2679,4.3013,4.3306,4.3676,4.4613,4.522,4.5383,4.5681,4.6014,4.6105,4.62,4.6017,4.5439,4.4801,4.3941,4.3048,4.2125,4.134,4.1017,4.0984,4.1223,4.1222,4.0858,4.0525,4.0365,3.992,3.9225,3.8621,3.8025,3.7606,3.736,3.7404,3.7316,3.597,3.4725,3.3834,3.333,3.343,3.377,3.3907,3.374,3.3508,4.58,4.58,4.58,4.58,4.58,4.58,4.58,4.58,4.58,4.58,4.58,4.58,4.58,4.58,4.58,4.58,4.58,4.58,4.58,4.58,4.58,4.58,4.58,4.58,4.58,4.5833,4.5847,4.586,4.586,4.5757,4.561,4.5417,4.5182,4.5026,4.4948,4.4943,4.487,4.487,4.4846,4.487,4.487,4.487,4.4846,4.4821,4.477,4.4738,4.4659,4.4597,4.457,4.4542,4.4496,4.4496,4.4496,4.4496,4.4496,4.4496,4.4496,4.4496,4.4496,4.4496,4.4496,4.4496,4.4496,4.4496,4.4496,4.4496,4.4496,4.4335,4.3918,4.3675,4.3424,4.2826,4.2627,4.2651,4.2673,4.2995,4.3255,4.413,4.4883,4.5103,4.5652,4.5975,4.6297,4.6418,4.6507,4.5774,4.5082,4.4123,4.3216,4.2326,4.1422,4.1013,4.0776,4.0881,4.1052,4.0985,4.0608,4.0294,3.9715,3.9161,3.8467,3.7928,3.739,3.6917,3.6892,3.6436,3.4996,3.3861,3.334,3.2978,3.2855,3.3268,3.3827,3.383,3.3688,4.58,4.58,4.58,4.58,4.58,4.58,4.58,4.58,4.58,4.58,4.58,4.58,4.58,4.58,4.58,4.58,4.58,4.58,4.58,4.58,4.58,4.58,4.58,4.58,4.5814,4.5814,4.5827,4.5874,4.5906,4.5847,4.5752,4.5623,4.5418,4.5323,4.5222,4.5132,4.5019,4.4991,4.4991,4.4991,4.501,4.4967,4.4943,4.4895,4.487,4.4796,4.4738,4.4685,4.4632,4.4578,4.4542,4.4496,4.4496,4.4496,4.4496,4.4496,4.4496,4.4496,4.4496,4.4496,4.4496,4.4496,4.4496,4.4496,4.4496,4.4496,4.4496,4.4411,4.414,4.3936,4.3679,4.332,4.2976,4.29,4.2768,4.2892,4.2886,4.353,4.424,4.4892,4.5668,4.6167,4.6757,4.6937,4.6534,4.598,4.5216,4.429,4.3376,4.2457,4.1636,4.092,4.0734,4.0603,4.0675,4.0797,4.0629,4.0289,3.9684,3.9144,3.8424,3.7865,3.7398,3.6909,3.6428,3.5737,3.4773,3.3896,3.3181,3.2854,3.2579,3.3025,3.3571,3.4092,3.4009,4.58,4.58,4.58,4.58,4.58,4.58,4.58,4.58,4.58,4.58,4.58,4.58,4.58,4.58,4.58,4.58,4.58,4.58,4.58,4.58,4.58,4.58,4.58,4.58,4.5847,4.586,4.5867,4.588,4.5925,4.5932,4.5932,4.5854,4.5661,4.558,4.551,4.5419,4.53,4.5194,4.517,4.5148,4.5148,4.5148,4.5084,4.5061,4.5014,4.4943,4.4895,4.484,4.477,4.4685,4.4659,4.4605,4.4496,4.4496,4.4496,4.4496,4.4496,4.4496,4.4496,4.4496,4.4496,4.4496,4.4496,4.4496,4.4496,4.4496,4.4496,4.4411,4.4306,4.4109,4.3936,4.3627,4.3389,4.3284,4.3195,4.3196,4.3251,4.3597,4.4305,4.4928,4.5707,4.6386,4.6952,4.6801,4.6427,4.6002,4.5333,4.4343,4.3497,4.2626,4.1812,4.1095,4.0745,4.0648,4.06,4.0673,4.0506,4.0222,3.9747,3.9295,3.8827,3.8286,3.7519,3.6997,3.6631,3.5913,3.5059,3.4182,3.3368,3.2677,3.239,3.2843,3.3354,3.3731,3.3992,4.58,4.58,4.58,4.58,4.58,4.58,4.58,4.58,4.58,4.58,4.58,4.58,4.58,4.58,4.58,4.58,4.58,4.58,4.58,4.58,4.58,4.58,4.58,4.58,4.5814,4.5841,4.5899,4.5893,4.5949,4.596,4.596,4.5972,4.5847,4.5805,4.5712,4.5632,4.5549,4.5438,4.538,4.5298,4.5277,4.5297,4.5256,4.5235,4.517,4.5148,4.5038,4.4967,4.4914,4.4815,4.4789,4.4712,4.4578,4.4524,4.4496,4.4496,4.4496,4.4496,4.4496,4.4496,4.4496,4.4496,4.4496,4.4496,4.4496,4.4496,4.4496,4.4468,4.4335,4.4199,4.4091,4.3936,4.3809,4.366,4.366,4.366,4.3812,4.3999,4.4488,4.504,4.5749,4.6418,4.6676,4.6537,4.6154,4.5526,4.4895,4.4151,4.3405,4.2758,4.1917,4.1168,4.0922,4.0745,4.0697,4.0648,4.0534,4.0387,4.0138,3.9696,3.9295,3.8739,3.8067,3.746,3.6846,3.6117,3.5255,3.4432,3.3687,3.2999,3.2434,3.2545,3.2896,3.3144,3.3221,4.58,4.58,4.58,4.58,4.58,4.58,4.58,4.58,4.58,4.58,4.58,4.58,4.58,4.58,4.58,4.58,4.58,4.58,4.58,4.58,4.58,4.58,4.5833,4.5814,4.5827,4.5827,4.5854,4.5905,4.5929,4.5953,4.5975,4.5997,4.5937,4.5887,4.5833,4.5776,4.5665,4.5618,4.5476,4.538,4.5339,4.5317,4.5256,4.517,4.5192,4.5213,4.5038,4.5014,4.5038,4.4967,4.4895,4.4865,4.4738,4.4605,4.4551,4.4515,4.4515,4.4496,4.4496,4.4496,4.4496,4.4496,4.4496,4.4496,4.4496,4.4496,4.4496,4.4496,4.4393,4.4335,4.4229,4.417,4.406,4.403,4.3999,4.4017,4.411,4.4376,4.4819,4.5321,4.5789,4.6415,4.6416,4.6285,4.588,4.5129,4.449,4.3871,4.3385,4.2858,4.2168,4.1405,4.1081,4.0888,4.0793,4.0745,4.0631,4.0534,4.0337,4.0171,3.9782,3.9242,3.8701,3.7796,3.6892,3.6243,3.5514,3.4846,3.4177,3.3577,3.2994,3.2434,3.2431,3.2763,3.2686,4.58,4.58,4.58,4.58,4.58,4.58,4.58,4.58,4.58,4.58,4.58,4.58,4.58,4.58,4.58,4.58,4.58,4.58,4.58,4.58,4.58,4.5833,4.5866,4.5827,4.5874,4.5912,4.5937,4.5949,4.5964,4.5977,4.5977,4.5997,4.5964,4.5949,4.5919,4.5847,4.5786,4.5727,4.5665,4.553,4.5476,4.5458,4.54,4.5298,4.5256,4.5256,4.5192,4.5192,4.517,4.508,4.5057,4.4967,4.4846,4.4719,4.464,4.4632,4.457,4.4524,4.4515,4.4496,4.4496,4.4496,4.4496,4.4496,4.4496,4.4496,4.4496,4.4496,4.4468,4.444,4.4411,4.4364,4.4335,4.4335,4.4306,4.4354,4.4354,4.4707,4.5126,4.5488,4.5937,4.6019,4.6042,4.5857,4.5519,4.4985,4.4397,4.3863,4.3591,4.3102,4.2629,4.1881,4.1324,4.1076,4.0935,4.0793,4.0745,4.0697,4.0551,4.037,4.0204,3.9489,3.8739,3.7738,3.6892,3.643,3.5991,3.5529,3.4876,3.4235,3.348,3.2887,3.2631,3.2782,3.2445,4.491,4.5278,4.5664,4.58,4.58,4.58,4.58,4.58,4.58,4.58,4.58,4.58,4.58,4.58,4.58,4.58,4.58,4.58,4.58,4.58,4.58,4.5833,4.5847,4.5847,4.5874,4.5925,4.5949,4.5972,4.5997,4.5977,4.5977,4.5977,4.5997,4.5975,4.5937,4.5917,4.5893,4.5835,4.5827,4.5771,4.5632,4.5547,4.5458,4.5339,4.5277,4.5277,4.5277,4.5277,4.5256,4.517,4.5125,4.508,4.4967,4.4846,4.4796,4.4745,4.4685,4.4578,4.4578,4.457,4.4524,4.4496,4.4515,4.4515,4.4496,4.4496,4.4496,4.4496,4.4496,4.4468,4.4468,4.444,4.444,4.444,4.4411,4.444,4.443,4.4589,4.4766,4.4875,4.509,4.5084,4.5071,4.5021,4.4705,4.4605,4.4079,4.4042,4.3712,4.3422,4.2923,4.2426,4.1864,4.129,4.1047,4.0935,4.084,4.0793,4.0745,4.0583,4.032,3.9489,3.8652,3.7953,3.7358,3.6831,3.6445,3.5943,3.5544,3.4942,3.4153,3.334,3.3165,3.2845,3.2412,4.3788,4.4504,4.5297,4.5645,4.5664,4.5761,4.58,4.58,4.58,4.58,4.58,4.58,4.58,4.58,4.58,4.58,4.58,4.58,4.58,4.58,4.58,4.5833,4.5847,4.586,4.5887,4.5944,4.598,4.5994,4.5997,4.5977,4.5977,4.5977,4.5977,4.5997,4.5977,4.5977,4.5956,4.5944,4.5953,4.5949,4.5814,4.5648,4.5495,4.538,4.5298,4.5277,4.5277,4.5277,4.5277,4.5256,4.5192,4.517,4.5103,4.4991,4.4943,4.4895,4.4796,4.4719,4.4693,4.4659,4.4578,4.457,4.4542,4.4542,4.4524,4.4496,4.4496,4.4496,4.4496,4.4496,4.4496,4.4496,4.4496,4.4496,4.4496,4.4496,4.4505,4.4496,4.4486,4.4458,4.4437,4.4416,4.4337,4.427,4.4172,4.4055,4.4005,4.4005,4.3942,4.3693,4.3353,4.2959,4.2505,4.1931,4.1363,4.1152,4.1134,4.0888,4.0793,4.0697,4.0419,3.9749,3.9086,3.8446,3.7854,3.7222,3.6646,3.6085,3.5737,3.5593,3.4595,3.3742,3.3452,3.3107,3.2589,4.3401,4.3634,4.4465,4.4852,4.4949,4.549,4.58,4.58,4.58,4.58,4.58,4.58,4.58,4.58,4.58,4.58,4.58,4.58,4.58,4.58,4.58,4.5847,4.5893,4.5906,4.5912,4.5949,4.5983,4.5986,4.5977,4.5977,4.5977,4.5977,4.5977,4.5977,4.5977,4.5977,4.5977,4.5977,4.5997,4.5983,4.5887,4.5727,4.5618,4.5476,4.5379,4.5338,4.5277,4.5277,4.5277,4.5277,4.5256,4.5235,4.5192,4.5125,4.508,4.5033,4.4919,4.487,4.4821,4.4815,4.4738,4.464,4.4659,4.4605,4.4578,4.4524,4.4496,4.4496,4.4496,4.4496,4.4496,4.4496,4.4496,4.4496,4.4496,4.4496,4.4487,4.4505,4.4477,4.4449,4.4401,4.4381,4.4322,4.4274,4.4233,4.4116,4.4036,4.4036,4.4005,4.386,4.3744,4.3387,4.3032,4.2426,4.176,4.1552,4.1418,4.1134,4.0888,4.0793,4.0517,4.012,3.9473,3.8941,3.8165,3.7429,3.6845,3.6445,3.6289,3.6006,3.4912,3.4138,3.3799,3.3438,3.2904]},{"header":{"parameterUnit":"m.s-1","parameterCategory":1,"la1":31.0,"la2":29.5877,"lo1":-88.7671,"lo2":-86.6584,"dy":0.0162,"dx":0.0185,"nx":115,"ny":88,"refTime":"2024-09-13T06:00:00:Z","depth":0,"parameterNumber":3,"parameterNumberName":"V-component_of_WINDS"},"data":[0.0,0.0,0.0,0.0,0.0,0.0,0.0,0.0,0.0,0.0,0.0,0.0,0.0,0.0,0.0,0.0,0.0,0.0,0.0,0.0,0.0,0.0,0.0,0.0,0.0,0.0,0.0,0.0,0.0,0.0,0.0,0.0,0.0,0.0,0.0,0.0,0.0,0.0,0.0,0.0,0.0,0.0,0.0,0.0,0.0,0.0,0.0,0.0,0.0,0.0,0.0,0.0,0.0,0.0,0.0,0.0,0.0,0.0,0.0,0.0,0.0,0.0,0.0,0.0,0.0,0.0,0.0,0.0,0.0,0.0,0.0,0.0,0.0,0.0,0.0,0.0,0.0,0.0,0.0,0.0,0.0,0.0,0.0,0.0,0.0,0.0,0.0,0.0,0.0,0.0,0.0,0.0,0.0,0.0,0.0,0.0,0.0,0.0,0.0,0.0,0.0,0.0,0.0,0.0,0.0,0.0,0.0,0.0,0.0,0.0,0.0,0.0,0.0,0.0,0.0,0.0,0.0,0.0,0.0,0.0,0.0,0.0,0.0,0.0,0.0,0.0,0.0,0.0,0.0,0.0,0.0,0.0,0.0,0.0,0.0,0.0,0.0,0.0,0.0,0.0,0.0,0.0,0.0,0.0,0.0,0.0,0.0,0.0,0.0,0.0,0.0,0.0,0.0,0.0,0.0,0.0,0.0,0.0,0.0,0.0,0.0,0.0,0.0,0.0,0.0,0.0,0.0,0.0,0.0,0.0,0.0,0.0,0.0,0.0,0.0,0.0,0.0,0.0,0.0,0.0,0.0,0.0,0.0,0.0,0.0,0.0,0.0,0.0,0.0,0.0,0.0,0.0,0.0,0.0,0.0,0.0,0.0,0.0,0.0,0.0,0.0,0.0,0.0,0.0,0.0,0.0,0.0,0.0,0.0,0.0,0.0,0.0,0.0,0.0,0.0,0.0,0.0,0.0,0.0,0.0,0.0,0.0,0.0,0.0,0.0,0.0,0.0,0.0,0.0,0.0,0.0,0.0,0.0,0.0,0.0,0.0,0.0,0.0,0.0,0.0,0.0,0.0,0.0,0.0,0.0,0.0,0.0,0.0,0.0,0.0,0.0,0.0,0.0,0.0,0.0,0.0,0.0,0.0,0.0,0.0,0.0,0.0,0.0,0.0,0.0,0.0,0.0,0.0,0.0,0.0,0.0,0.0,0.0,0.0,0.0,0.0,0.0,0.0,0.0,0.0,0.0,0.0,0.0,0.0,0.0,0.0,0.0,0.0,0.0,0.0,0.0,0.0,0.0,0.0,0.0,0.0,0.0,0.0,0.0,0.0,0.0,0.0,0.0,0.0,0.0,0.0,0.0,0.0,0.0,0.0,0.0,0.0,0.0,0.0,0.0,0.0,0.0,0.0,0.0,0.0,0.0,0.0,0.0,0.0,0.0,0.0,0.0,0.0,0.0,0.0,0.0,0.0,0.0,0.0,0.0,0.0,0.0,0.0,0.0,0.0,0.0,0.0,0.0,0.0,0.0,0.0,0.0,0.0,0.0,0.0,0.0,0.0,0.0,0.0,0.0,0.0,0.0,0.0,0.0,0.0,0.0,0.0,0.0,0.0,0.0,0.0,0.0,0.0,0.0,0.0,0.0,0.0,0.0,0.0,0.0,0.0,0.0,0.0,0.0,0.0,0.0,0.0,0.0,0.0,0.0,0.0,0.0,0.0,0.0,0.0,0.0,0.0,0.0,0.0,0.0,0.0,0.0,0.0,0.0,0.0,0.0,0.0,0.0,0.0,0.0,0.0,0.0,0.0,0.0,0.0,0.0,0.0,0.0,0.0,0.0,0.0,0.0,0.0,0.0,0.0,0.0,0.0,0.0,0.0,0.0,0.0,0.0,0.0,0.0,0.0,0.0,0.0,0.0,0.0,0.0,0.0,0.0,0.0,0.0,0.0,0.0,0.0,0.0,0.0,0.0,0.0,0.0,0.0,0.0,0.0,0.0,0.0,0.0,0.0,0.0,0.0,0.0,0.0,0.0,0.0,0.0,0.0,0.0,0.0,0.0,0.0,0.0,0.0,0.0,0.0,0.0,0.0,0.0,0.0,0.0,0.0,0.0,0.0,0.0,0.0,0.0,0.0,0.0,0.0,0.0,0.0,0.0,0.0,0.0,0.0,0.0,0.0,0.0,0.0,0.0,0.0,0.0,0.0,0.0,0.0,0.0,0.0,0.0,0.0,0.0,0.0,0.0,0.0,0.0,0.0,0.0,0.0,0.0,0.0,0.0,0.0,0.0,0.0,0.0,0.0,0.0,0.0,0.0,0.0,0.0,0.0,0.0,0.0,0.0,0.0,0.0,0.0,0.0,0.0,0.0,0.0,0.0,0.0,0.0,0.0,0.0,0.0,0.0,0.0,0.0,0.0,0.0,0.0,0.0,0.0,0.0,0.0,0.0,0.0,0.0,0.0,0.0,0.0,0.0,0.0,0.0,0.0,0.0,0.0,0.0,0.0,0.0,0.0,0.0,0.0,0.0,0.0,0.0,0.0,0.0,0.0,0.0,0.0,0.0,0.0,0.0,0.0,0.0,0.0,0.0,0.0,0.0,0.0,0.0,0.0,0.0,0.0,0.0,0.0,0.0,0.0,0.0,0.0,0.0,0.0,0.0,0.0,0.0,0.0,0.0,0.0,0.0,0.0,0.0,0.0,0.0,0.0,0.0,0.0,0.0,0.0,0.0,0.0,0.0,0.0,0.0,0.0,0.0,0.0,0.0,0.0,0.0,0.0,0.0,0.0,0.0,0.0,0.0,0.0,0.0,0.0,0.0,0.0,0.0,0.0,0.0,0.0,0.0,0.0,0.0,0.0,0.0,0.0,0.0,0.0,0.0,0.0,0.0,0.0,0.0,0.0,0.0,0.0,0.0,0.0,0.0,0.0,0.0,0.0,0.0,0.0,0.0,0.0,0.0,0.0,0.0,0.0,0.0,0.0,0.0,0.0,0.0,0.0,0.0,0.0,0.0,0.0,0.0,0.0,0.0,0.0,0.0,0.0,0.0,0.0,0.0,0.0,0.0,0.0,0.0,0.0,0.0,0.0,0.0,0.0,0.0,0.0,0.0,0.0,0.0,0.0,0.0,0.0,0.0,0.0,0.0,0.0,0.0,0.0,0.0,0.0,0.0,0.0,0.0,0.0,0.0,0.0,0.0,0.0,0.0,0.0,0.0,0.0,0.0,0.0,0.0,0.0,0.0,0.0,0.0,0.0,0.0,0.0,0.0,0.0,0.0,0.0,0.0,0.0,0.0,0.0,0.0,0.0,0.0,0.0,0.0,0.0,0.0,0.0,0.0,0.0,0.0,0.0,0.0,0.0,0.0,0.0,0.0,0.0,0.0,0.0,0.0,0.0,0.0,0.0,0.0,0.0,0.0,0.0,0.0,0.0,0.0,0.0,0.0,0.0,0.0,0.0,0.0,0.0,0.0,0.0,0.0,0.0,0.0,0.0,0.0,0.0,0.0,0.0,0.0,0.0,0.0,0.0,0.0,0.0,0.0,0.0,0.0,0.0,0.0,0.0,0.0,0.0,0.0,0.0,0.0,0.0,0.0,0.0,0.0,0.0,0.0,0.0,0.0,0.0,0.0,0.0,0.0,0.0,0.0,0.0,0.0,0.0,0.0,0.0,0.0,0.0,0.0,0.0,0.0,0.0,0.0,0.0,0.0,0.0,0.0,0.0,0.0,0.0,0.0,0.0,0.0,0.0,0.0,0.0,0.0,0.0,0.0,0.0,0.0,0.0,0.0,0.0,0.0,0.0,0.0,0.0,0.0,0.0,0.0,0.0,0.0,0.0,0.0,0.0,0.0,0.0,0.0,0.0,0.0,0.0,0.0,0.0,0.0,0.0,0.0,0.0,0.0,0.0,0.0,0.0,0.0,0.0,0.0,0.0,0.0,0.0,0.0,0.0,0.0,0.0,0.0,0.0,0.0,0.0,0.0,0.0,0.0,0.0,0.0,0.0,0.0,0.0,0.0,0.0,0.0,0.0,0.0,0.0,0.0,0.0,0.0,0.0,0.0,0.0,0.0,0.0,0.0,0.0,0.0,0.0,0.0,0.0,0.0,0.0,0.0,0.0,0.0,0.0,0.0,0.0,0.0,0.0,0.0,0.0,0.0,0.0,0.0,0.0,0.0,0.0,0.0,0.0,0.0,0.0,0.0,0.0,0.0,0.0,0.0,0.0,0.0,0.0,0.0,0.0,0.0,0.0,0.0,0.0,0.0,0.0,1.3418,0.0,0.0,0.0,0.0,0.0,0.0,0.0,0.0,0.0,0.0,0.0,0.0,0.0,0.0,0.0,0.0,0.0,0.0,0.0,0.0,0.0,0.0,0.0,0.0,0.0,0.0,0.0,0.0,0.0,0.0,0.0,0.0,0.0,0.0,0.0,0.0,0.0,0.0,0.0,0.0,0.0,0.0,0.0,0.0,0.0,0.0,0.0,0.0,0.0,0.0,0.0,0.0,0.0,0.0,0.0,0.0,0.0,0.0,0.0,0.0,0.0,0.0,0.0,0.0,0.0,0.0,0.0,0.0,0.0,0.0,0.0,0.0,0.0,0.0,0.0,0.0,0.0,0.0,0.0,0.0,0.0,0.0,0.0,0.0,0.0,0.0,0.0,0.0,0.0,0.0,0.0,0.0,0.0,0.0,0.0,0.0,0.0,0.0,0.0,0.0,0.0,0.0,0.0,0.0,0.0,0.0,0.0,0.0,0.0,0.0,1.3633,1.3193,1.3613,1.3633,1.3193,0.0,0.0,0.0,0.0,0.0,0.0,0.0,0.0,0.0,0.0,0.0,0.0,0.0,0.0,0.0,0.0,0.0,0.0,0.0,0.0,0.0,0.0,0.0,0.0,0.0,0.0,0.0,0.0,0.0,0.0,0.0,0.0,0.0,0.0,0.0,0.0,0.0,0.0,0.0,0.0,0.0,0.0,0.0,0.0,0.0,0.0,0.0,0.0,0.0,0.0,0.0,0.0,0.0,0.0,0.0,0.0,0.0,0.0,0.0,0.0,0.0,0.0,0.0,0.0,0.0,0.0,0.0,0.0,0.0,0.0,0.0,0.0,0.0,0.0,0.0,0.0,0.0,0.0,0.0,0.0,0.0,0.0,0.0,0.0,0.0,0.0,0.0,0.0,0.0,0.0,0.0,0.0,0.0,0.0,0.0,0.0,0.0,0.0,0.0,0.0,0.0,0.0,0.0,0.0,0.0,0.0,0.0,0.0,0.0,0.0,0.0,0.0,1.3936,1.3939,1.3214,0.0,0.0,0.0,0.0,0.0,0.0,0.0,0.0,0.0,0.0,0.0,0.0,0.0,0.0,0.0,0.0,0.0,0.0,0.0,0.0,0.0,0.0,0.0,0.0,0.0,0.0,0.0,0.0,0.0,0.0,0.0,0.0,0.0,0.0,0.0,0.0,0.0,0.0,0.0,0.0,0.0,0.0,0.0,0.0,0.0,0.0,0.0,0.0,0.0,0.0,0.0,0.0,0.0,0.0,0.0,0.0,0.0,0.0,0.0,0.0,0.0,0.0,0.0,0.0,0.0,0.0,0.0,0.0,0.0,0.0,0.0,0.0,0.0,0.0,0.0,0.0,0.0,0.0,0.0,0.0,0.0,0.0,0.0,0.0,0.0,0.0,0.0,0.0,0.0,0.0,0.0,0.0,0.0,0.0,0.0,0.0,0.0,0.0,0.0,0.0,0.0,0.0,0.0,0.0,0.0,0.0,0.0,0.0,0.0,0.0,1.3896,1.459,1.4678,0.0,1.4063,0.0,0.0,0.0,0.0,0.0,0.0,0.0,0.0,0.0,0.0,0.0,0.0,0.0,0.0,0.0,0.0,0.0,0.0,0.0,0.0,0.0,0.0,0.0,0.0,0.0,0.0,0.0,0.0,0.0,0.0,0.0,0.0,0.0,0.0,0.0,0.0,0.0,0.0,0.0,0.0,0.0,0.0,0.0,0.0,0.0,0.0,0.0,0.0,0.0,0.0,0.0,0.0,0.0,0.0,0.0,0.0,0.0,0.0,0.0,0.0,0.0,0.0,0.0,0.0,0.0,0.0,0.0,0.0,0.0,0.0,0.0,0.0,0.0,0.0,0.0,0.0,0.0,0.0,0.0,0.0,0.0,0.0,0.0,0.0,0.0,0.0,0.0,0.0,0.0,0.0,0.0,0.0,0.0,0.0,0.0,0.0,0.0,0.0,0.0,0.0,0.0,0.0,0.0,0.0,0.0,0.0,0.0,0.0,0.0,0.0,1.4198,1.4305,1.4107,1.4066,0.0,0.0,0.0,0.0,0.0,0.0,0.0,0.0,0.0,0.0,0.0,0.0,0.0,0.0,0.0,0.0,0.0,0.0,0.0,0.0,0.0,0.0,0.0,0.0,0.0,0.0,0.0,0.0,0.0,0.0,0.0,0.0,0.0,0.0,0.0,0.0,0.0,0.0,0.0,0.0,0.0,0.0,0.0,0.0,0.0,0.0,0.0,0.0,0.0,0.0,0.0,0.0,0.0,0.0,0.0,0.0,0.0,0.0,0.0,0.0,0.0,0.0,0.0,0.0,0.0,0.0,0.0,0.0,0.0,0.0,0.0,0.0,0.0,0.0,0.0,0.0,0.0,0.0,0.0,0.0,0.0,0.0,0.0,0.0,0.0,0.0,0.0,0.0,0.0,0.0,0.0,0.0,0.0,0.0,0.0,0.0,0.0,0.0,0.0,0.0,0.0,0.0,0.0,0.0,0.0,0.0,0.0,0.0,0.0,0.0,1.3933,1.4359,1.4337,1.4145,1.4007,1.4019,0.0,0.0,0.0,0.0,0.0,0.0,0.0,0.0,0.0,0.0,0.0,0.0,0.0,0.0,0.0,0.0,0.0,0.0,0.0,0.0,0.0,0.0,0.0,0.0,0.0,0.0,0.0,0.0,0.0,0.0,0.0,0.0,0.0,0.0,0.0,0.0,0.0,0.0,0.0,0.0,0.0,0.0,0.0,0.0,0.0,0.0,0.0,0.0,0.0,0.0,0.0,0.0,0.0,0.0,0.0,0.0,0.0,0.0,0.0,0.0,0.0,0.0,0.0,0.0,0.0,0.0,0.0,0.0,0.0,0.0,0.0,0.0,0.0,0.0,0.0,0.0,0.0,0.0,0.0,0.0,0.0,0.0,0.0,0.0,0.0,0.0,0.0,0.0,0.0,0.0,0.0,0.0,0.0,0.0,0.0,0.0,0.0,0.0,0.0,0.0,0.0,0.0,0.0,0.0,0.0,0.0,0.0,0.0,0.0,1.4137,1.4193,1.5129,1.5284,1.478,0.0,0.0,0.0,0.0,0.0,0.0,0.0,0.0,0.0,0.0,0.0,0.0,0.0,0.0,0.0,0.0,0.0,0.0,0.0,0.0,0.0,0.0,0.0,0.0,0.0,0.0,0.0,0.0,0.0,0.0,0.0,0.0,0.0,0.0,0.0,0.0,0.0,0.0,0.0,0.0,0.0,0.0,0.0,0.0,0.0,0.0,0.0,0.0,0.0,0.0,0.0,0.0,0.0,0.0,0.0,0.0,0.0,0.0,0.0,0.0,0.0,0.0,0.0,0.0,0.0,0.0,0.0,0.0,0.0,0.0,0.0,0.0,0.0,0.0,0.0,0.0,0.0,0.0,0.0,0.0,0.0,0.0,0.0,0.0,0.0,0.0,0.0,0.0,0.0,0.0,0.0,0.0,0.0,0.0,0.0,0.0,0.0,0.0,0.0,0.0,0.0,0.0,0.0,0.0,0.0,0.0,0.0,0.0,0.0,1.3131,1.3544,1.4496,1.5879,1.4547,1.375,0.0,0.0,0.0,0.0,0.0,0.0,0.0,0.0,0.0,0.0,0.0,0.0,0.0,0.0,0.0,0.0,0.0,0.0,0.0,0.0,0.0,0.0,0.0,0.0,0.0,0.0,0.0,0.0,0.0,0.0,0.0,0.0,0.0,0.0,0.0,0.0,0.0,0.0,0.0,0.0,0.0,0.0,0.0,0.0,0.0,0.0,0.0,0.0,0.0,0.0,0.0,0.0,0.0,0.0,0.0,0.0,0.0,0.0,0.0,0.0,0.0,0.0,0.0,0.0,0.0,0.0,0.0,0.0,0.0,0.0,0.0,0.0,0.0,0.0,0.0,0.0,0.0,0.0,0.0,0.0,0.0,0.0,0.0,0.0,0.0,0.0,0.0,0.0,0.0,0.0,0.0,0.0,0.0,0.0,0.0,0.0,0.0,0.0,0.0,0.0,0.0,0.0,0.0,0.0,0.0,0.0,0.0,0.0,0.0,1.2865,0.0,1.4942,0.0,1.4463,1.3491,0.0,0.0,0.0,0.0,0.0,0.0,0.0,0.0,0.0,0.0,0.0,0.0,0.0,0.0,0.0,0.0,0.0,0.0,0.0,0.0,0.0,0.0,0.0,0.0,0.0,0.0,0.0,0.0,0.0,0.0,0.0,0.0,0.0,0.0,0.0,0.0,0.0,0.0,0.0,0.0,0.0,0.0,0.0,0.0,0.0,0.0,0.0,0.0,0.0,0.0,0.0,0.0,0.0,0.0,0.0,0.0,0.0,0.0,0.0,0.0,0.0,0.0,0.0,0.0,0.0,0.0,0.0,0.0,0.0,0.0,0.0,0.0,0.0,0.0,0.0,0.0,0.0,0.0,0.0,0.0,0.0,0.0,0.0,0.0,0.0,0.0,0.0,0.0,0.0,0.0,0.0,0.0,0.0,0.0,0.0,0.0,0.0,0.0,0.0,0.0,0.0,0.0,0.0,0.0,0.0,0.0,0.0,0.0,1.2855,1.4396,1.529,1.5495,1.494,1.4993,1.4019,0.0,0.0,0.0,0.0,0.0,0.0,0.0,0.0,0.0,0.0,0.0,0.0,0.0,0.0,0.0,0.0,0.0,0.0,0.0,0.0,0.0,0.0,0.0,0.0,0.0,0.0,0.0,0.0,0.0,0.0,0.0,0.0,0.0,0.0,0.0,0.0,0.0,0.0,0.0,0.0,0.0,0.0,0.0,0.0,0.0,0.0,0.0,0.0,0.0,0.0,0.0,0.0,0.0,0.0,0.0,0.0,0.0,0.0,0.0,0.0,0.0,0.0,0.0,0.0,0.0,0.0,0.0,0.0,0.0,0.0,0.0,0.0,0.0,0.0,0.0,0.0,0.0,0.0,0.0,0.0,0.0,0.0,0.0,0.0,0.0,0.0,0.0,0.0,0.0,0.0,0.0,0.0,0.0,0.0,0.0,0.0,0.0,0.0,0.0,0.0,0.0,0.0,0.0,0.0,0.0,0.0,0.0,0.0,0.0,1.3413,1.3932,1.4557,1.5079,1.405,1.3389,0.0,0.0,0.0,0.0,0.0,0.0,0.0,0.0,0.0,0.0,0.0,0.0,0.0,0.0,0.0,0.0,0.0,0.0,0.0,0.0,0.0,0.0,0.0,0.0,0.0,0.0,0.0,0.0,0.0,0.0,0.0,0.0,0.0,0.0,0.0,0.0,0.0,0.0,0.0,0.0,0.0,0.0,0.0,0.0,0.0,0.0,0.0,0.0,0.0,0.0,0.0,0.0,0.0,0.0,0.0,0.0,0.0,0.0,0.0,0.0,0.0,0.0,0.0,0.0,0.0,0.0,0.0,0.0,0.0,0.0,0.0,0.0,0.0,0.0,0.0,0.0,0.0,0.0,0.0,0.0,0.0,0.0,0.0,0.0,0.0,0.0,0.0,0.0,0.0,0.0,0.0,0.0,0.0,0.0,0.0,0.0,0.0,0.0,0.0,0.0,0.0,0.0,0.0,0.0,0.0,0.0,0.0,0.0,0.0,1.2379,1.3429,1.4375,1.5207,1.3989,1.3412,1.3588,0.0,0.0,0.0,0.0,0.0,0.0,0.0,0.0,0.0,0.0,0.0,0.0,0.0,0.0,0.0,0.0,0.0,0.0,0.0,0.0,0.0,0.0,0.0,0.0,0.0,0.0,0.0,0.0,0.0,0.0,0.0,0.0,0.0,0.0,0.0,0.0,0.0,0.0,0.0,0.0,0.0,0.0,0.0,0.0,0.0,0.0,0.0,0.0,0.0,0.0,0.0,0.0,0.0,0.0,0.0,0.0,0.0,0.0,0.0,0.0,0.0,0.0,0.0,0.0,0.0,0.0,0.0,0.0,0.0,0.0,0.0,0.0,0.0,0.0,0.0,0.0,0.0,0.0,0.0,0.0,0.0,0.0,0.0,0.0,0.0,0.0,0.0,0.0,0.0,0.0,0.0,0.0,0.0,0.0,0.0,0.0,0.0,0.0,0.0,0.0,0.0,0.0,0.0,0.0,0.0,0.0,0.0,0.0,1.1428,1.3501,1.4763,1.4988,1.468,1.3979,0.0,0.0,0.0,0.0,0.0,0.0,0.0,0.0,0.0,0.0,0.0,0.0,0.0,0.0,0.0,0.0,0.0,0.0,0.0,0.0,0.0,0.0,0.0,0.0,0.0,0.0,0.0,0.0,0.0,0.0,0.0,0.0,0.0,0.0,0.0,0.0,0.0,0.0,0.0,0.0,0.0,0.0,0.0,0.0,0.0,0.0,0.0,0.0,0.0,0.0,0.0,0.0,0.0,0.0,0.0,0.0,0.0,0.0,0.0,0.0,0.0,0.0,0.0,0.0,0.0,0.0,0.0,0.0,0.0,0.0,0.0,0.0,0.0,0.0,0.0,0.0,0.0,0.0,0.0,0.0,0.0,0.0,0.0,0.0,0.0,0.0,0.0,0.0,0.0,0.0,0.0,0.0,0.0,0.0,0.0,0.0,0.0,0.0,0.0,0.0,0.0,0.0,0.0,0.0,0.0,0.0,0.0,0.0,0.0,1.166,1.2296,1.3377,1.4814,1.4362,1.4107,0.0,0.0,0.0,0.0,0.0,0.0,0.0,0.0,0.0,0.0,0.0,0.0,0.0,0.0,0.0,0.0,0.0,0.0,0.0,0.0,0.0,0.0,0.0,0.0,0.0,0.0,0.0,0.0,0.0,0.0,0.0,0.0,0.0,0.0,0.0,0.0,0.0,0.0,0.0,0.0,0.0,0.0,0.0,0.0,0.0,0.0,0.0,0.0,0.0,0.0,0.0,0.0,0.0,0.0,0.0,0.0,0.0,0.0,0.0,0.0,0.0,0.0,0.0,0.0,0.0,0.0,0.0,0.0,0.0,0.0,0.0,0.0,0.0,0.0,0.0,0.0,0.0,0.0,0.0,0.0,0.0,0.0,0.0,0.0,0.0,0.0,0.0,0.0,0.0,0.0,0.0,0.0,0.0,0.0,0.0,0.0,0.0,0.0,0.0,0.0,0.0,0.0,0.0,0.0,0.0,0.0,0.0,0.0,1.085,1.0836,1.1583,1.255,1.3731,1.3485,1.3709,0.0,0.0,0.0,0.0,0.0,0.0,0.0,0.0,0.0,0.0,0.0,0.0,0.0,0.0,0.0,0.0,0.0,0.0,0.0,0.0,0.0,0.0,0.0,0.0,0.0,0.0,0.0,0.0,0.0,0.0,0.0,0.0,0.0,0.0,0.0,0.0,0.0,0.0,0.0,0.0,0.0,0.0,0.0,0.0,0.0,0.0,0.0,0.0,0.0,0.0,0.0,0.0,0.0,0.0,0.0,0.0,0.0,0.0,0.0,0.0,0.0,0.0,0.0,0.0,0.0,0.0,0.0,0.0,0.0,0.0,0.0,0.0,0.0,0.0,0.0,0.0,0.0,0.0,0.0,0.0,0.0,0.0,0.0,0.0,0.0,0.0,0.0,0.0,0.0,0.0,0.0,0.0,0.0,0.0,0.0,0.0,0.0,0.0,0.0,0.0,0.0,0.0,0.0,0.0,0.0,0.0,0.0,0.0,1.0226,0.9746,1.1112,1.1972,1.2127,1.2485,1.2964,0.0,0.0,0.0,0.0,0.0,0.0,0.0,0.0,0.0,0.0,0.0,0.0,0.0,0.0,0.0,0.0,0.0,0.0,0.0,0.0,0.0,0.0,0.0,0.0,0.0,0.0,0.0,0.0,0.0,0.0,0.0,0.0,0.0,0.0,0.0,0.0,0.0,0.0,0.0,0.0,0.0,0.0,0.0,0.0,0.0,0.0,0.0,0.0,0.0,0.0,0.0,0.0,0.0,0.0,0.0,0.0,0.0,0.0,0.0,0.0,0.0,0.0,0.0,0.0,0.0,0.0,0.0,0.0,0.0,0.0,0.0,0.0,0.0,0.0,0.0,0.0,0.0,0.0,0.0,0.0,0.0,0.0,0.0,0.0,0.0,0.0,0.0,0.0,0.0,0.0,0.0,0.0,0.0,0.0,0.0,0.0,0.0,0.0,0.0,0.0,0.0,0.0,0.0,0.0,0.0,0.0,0.0,0.0,1.0045,0.9746,1.0367,1.1134,1.1935,1.2147,1.2468,0.0,0.0,0.0,0.0,0.0,0.0,0.0,0.0,0.0,0.0,0.0,0.0,0.0,0.0,0.0,0.0,0.0,0.0,0.0,0.0,0.0,0.0,0.0,0.0,0.0,0.0,0.0,0.0,0.0,0.0,0.0,0.0,0.0,0.0,0.0,0.0,0.0,0.0,0.0,0.0,0.0,0.0,0.0,0.0,0.0,0.0,0.0,0.0,2.1519,0.0,0.0,0.0,0.0,0.0,0.0,0.0,0.0,0.0,0.0,0.0,0.0,0.0,0.0,0.0,0.0,0.0,0.0,0.0,0.0,0.0,0.0,0.0,0.0,0.0,0.0,0.0,0.0,0.0,0.0,0.0,0.0,0.0,0.0,0.0,0.0,0.0,0.0,0.0,0.0,0.0,0.0,0.0,0.0,0.0,0.0,0.0,0.0,0.0,0.0,0.0,0.0,0.0,0.0,0.0,0.0,0.0,0.0,0.0,0.9521,0.9472,0.9776,1.0272,1.0842,1.0948,1.1453,0.0,0.0,0.0,0.0,0.0,0.0,0.0,0.0,0.0,0.0,0.0,0.0,0.0,0.0,0.0,0.0,0.0,0.0,0.0,0.0,0.0,0.0,0.0,0.0,0.0,0.0,0.0,0.0,0.0,0.0,0.0,0.0,0.0,0.0,0.0,0.0,0.0,0.0,0.0,0.0,0.0,0.0,0.0,0.0,0.0,0.0,0.0,0.0,0.0,0.0,0.0,0.0,0.0,0.0,0.0,0.0,0.0,0.0,0.0,0.0,0.0,0.0,0.0,0.0,0.0,0.0,0.0,0.0,0.0,0.0,0.0,0.0,0.0,0.0,0.0,0.0,0.0,0.0,0.0,0.0,0.0,0.0,0.0,0.0,0.0,0.0,0.0,0.0,0.0,0.0,0.0,0.0,0.0,0.0,0.0,0.0,0.0,0.0,0.0,0.0,0.0,0.0,0.0,0.0,0.0,0.0,0.0,0.9048,0.8967,0.9187,0.9336,0.9485,0.9618,0.9644,1.0322,1.178,0.0,0.0,0.0,0.0,0.0,0.0,0.0,0.0,0.0,0.0,0.0,0.0,0.0,0.0,0.0,0.0,0.0,0.0,0.0,0.0,0.0,0.0,0.0,0.0,0.0,0.0,0.0,0.0,0.0,0.0,0.0,0.0,0.0,0.0,0.0,0.0,0.0,0.0,1.8817,2.0319,0.0,0.0,0.0,0.0,0.0,0.0,0.0,0.0,2.2092,0.0,0.0,0.0,0.0,0.0,0.0,0.0,0.0,0.0,0.0,0.0,0.0,0.0,0.0,0.0,0.0,0.0,0.0,0.0,0.0,0.0,0.0,0.0,0.0,0.0,0.0,0.0,0.0,0.0,0.0,0.0,0.0,0.0,0.0,0.0,0.0,0.0,0.0,0.0,0.0,0.0,0.0,0.0,0.0,0.0,0.0,0.0,0.0,0.0,0.0,0.0,0.0,0.0,0.0,0.0,0.0,0.9471,0.8854,0.8681,0.9181,0.9169,0.9231,0.9455,0.9259,0.9519,1.0379,0.0,0.0,0.0,0.0,0.0,0.0,0.0,0.0,0.0,0.0,0.0,0.0,0.0,0.0,0.0,0.0,0.0,0.0,0.0,0.0,0.0,0.0,0.0,0.0,0.0,0.0,0.0,0.0,0.0,0.0,0.0,0.0,0.0,0.0,0.0,0.0,0.0,0.0,0.0,1.9846,2.0489,0.0,0.0,0.0,0.0,0.0,0.0,0.0,0.0,2.2366,0.0,0.0,0.0,0.0,0.0,0.0,0.0,0.0,0.0,0.0,0.0,0.0,0.0,0.0,0.0,0.0,0.0,0.0,0.0,0.0,0.0,0.0,0.0,0.0,0.0,0.0,0.0,0.0,0.0,0.0,0.0,0.0,0.0,0.0,0.0,0.0,0.0,0.0,0.0,0.0,0.0,0.0,0.0,0.0,0.0,0.0,0.0,0.0,0.0,0.0,0.0,0.0,0.0,0.0,0.0,0.8878,0.8516,0.8392,0.8596,0.8744,0.875,0.8613,0.8449,0.8841,0.0,0.0,0.0,0.0,0.0,0.0,0.0,0.0,0.0,0.0,0.0,0.0,0.0,0.0,0.0,0.0,0.0,0.0,0.0,0.0,0.0,0.0,0.0,0.0,0.0,0.0,0.0,0.0,0.0,0.0,0.0,0.0,0.0,0.0,0.0,0.0,0.0,0.0,0.0,0.0,2.0387,2.1368,2.1617,0.0,0.0,0.0,0.0,0.0,0.0,2.3179,2.2782,0.0,0.0,0.0,0.0,0.0,0.0,0.0,0.0,0.0,0.0,0.0,0.0,0.0,0.0,0.0,0.0,0.0,0.0,0.0,0.0,0.0,0.0,0.0,0.0,0.0,0.0,0.0,0.0,0.0,0.0,0.0,0.0,0.0,0.0,0.0,0.0,0.0,0.0,0.0,0.0,0.0,0.0,0.0,0.0,0.0,0.0,0.0,0.0,0.0,0.0,0.0,0.0,0.0,0.0,0.0,0.8457,0.8253,0.8069,0.7976,0.8226,0.8206,0.7783,0.7666,0.817,0.0,0.0,0.0,0.0,0.0,0.0,0.0,0.0,0.0,0.0,0.0,0.0,0.0,0.0,0.0,0.0,0.0,0.0,0.0,0.0,0.0,0.0,0.0,0.0,0.0,0.0,0.0,0.0,0.0,0.0,0.0,0.0,0.0,0.0,0.0,0.0,0.0,0.0,0.0,0.0,0.0,2.2474,2.2531,2.3269,0.0,0.0,0.0,0.0,2.4395,2.3751,0.0,0.0,0.0,0.0,0.0,0.0,0.0,0.0,0.0,0.0,0.0,0.0,0.0,0.0,0.0,0.0,0.0,0.0,0.0,0.0,0.0,0.0,0.0,0.0,0.0,0.0,0.0,0.0,0.0,0.0,0.0,0.0,0.0,0.0,0.0,0.0,0.0,0.0,0.0,0.0,0.0,0.0,0.0,0.0,0.0,0.0,0.0,0.0,0.0,0.0,0.0,0.0,0.0,0.0,0.0,0.0,0.8627,0.823,0.7891,0.7694,0.795,0.7817,0.7288,0.7236,0.7544,0.0,0.0,0.0,0.0,0.0,0.0,0.0,0.0,0.0,0.0,0.0,0.0,0.0,0.0,0.0,0.0,0.0,0.0,0.0,0.0,0.0,0.0,0.0,0.0,0.0,0.0,0.0,0.0,0.0,0.0,0.0,0.0,0.0,0.0,0.0,0.0,0.0,0.0,0.0,0.0,0.0,2.2829,2.3188,2.3341,2.3714,0.0,0.0,2.4434,2.5374,2.4973,0.0,0.0,0.0,0.0,0.0,0.0,0.0,0.0,0.0,0.0,0.0,0.0,0.0,0.0,0.0,0.0,0.0,0.0,0.0,0.0,0.0,0.0,0.0,0.0,0.0,0.0,0.0,0.0,0.0,0.0,0.0,0.0,0.0,0.0,0.0,0.0,0.0,0.0,0.0,0.0,0.0,0.0,0.0,0.0,0.0,0.0,0.0,0.0,0.0,0.0,0.0,0.0,0.0,0.0,0.0,0.7386,0.8193,0.7886,0.7537,0.7327,0.7561,0.7377,0.6673,0.6522,0.6867,0.0,0.0,0.0,0.0,0.0,0.0,0.0,0.0,0.0,0.0,0.0,0.0,0.0,0.0,0.0,0.0,0.0,0.0,0.0,0.0,0.0,0.0,0.0,0.0,0.0,0.0,0.0,0.0,0.0,0.0,0.0,0.0,0.0,0.0,0.0,0.0,0.0,0.0,0.0,0.0,0.0,0.0,2.4045,2.4439,0.0,0.0,0.0,2.5795,2.6675,0.0,0.0,0.0,0.0,0.0,0.0,0.0,0.0,0.0,0.0,0.0,0.0,0.0,0.0,0.0,0.0,0.0,0.0,0.0,0.0,0.0,0.0,0.0,0.0,0.0,0.0,0.0,0.0,0.0,0.0,0.0,0.0,0.0,0.0,0.0,0.0,0.0,0.0,0.0,0.0,0.0,0.0,0.0,0.0,0.0,0.0,0.0,0.0,0.0,0.0,0.0,0.0,0.0,0.0,0.0,0.0,0.0,0.7666,0.7472,0.7259,0.713,0.7181,0.6959,0.6357,0.6003,0.0,0.0,0.0,0.0,0.0,0.0,0.0,0.0,0.0,0.0,0.0,0.0,0.0,0.0,0.0,0.0,0.0,0.0,0.0,0.0,0.0,0.0,0.0,0.0,0.0,0.0,0.0,1.3166,0.0,0.0,0.0,0.0,0.0,0.0,0.0,0.0,0.0,0.0,0.0,0.0,0.0,0.0,2.4337,2.5124,2.5592,2.6307,0.0,0.0,2.708,2.7723,2.6593,2.5264,0.0,0.0,0.0,0.0,0.0,0.0,0.0,0.0,0.0,0.0,0.0,0.0,0.0,0.0,0.0,0.0,0.0,0.0,0.0,0.0,0.0,0.0,0.0,0.0,0.0,0.0,0.0,0.0,0.0,0.0,0.0,0.0,0.0,0.0,0.0,0.0,0.0,0.0,0.0,0.0,0.0,0.0,0.0,0.0,0.0,0.0,0.0,0.0,0.0,0.0,0.0,0.0,0.0,0.0,0.0,0.7041,0.725,0.7225,0.7077,0.6894,0.6666,0.6413,0.591,0.5949,0.0,0.0,0.0,0.0,0.0,0.0,0.0,0.0,0.0,0.0,0.0,0.0,0.0,0.0,0.0,0.0,0.0,0.0,0.0,0.0,0.0,0.0,0.0,0.0,0.0,0.0,0.0,0.0,0.0,0.0,0.0,0.0,0.0,0.0,0.0,0.0,0.0,0.0,0.0,0.0,0.0,2.6239,2.6463,2.6652,2.7143,0.0,0.0,2.78,2.8319,2.8339,2.7609,2.5767,0.0,0.0,0.0,0.0,0.0,0.0,0.0,0.0,0.0,0.0,0.0,0.0,0.0,0.0,0.0,0.0,0.0,0.0,0.0,0.0,0.0,0.0,0.0,0.0,0.0,0.0,0.0,0.0,0.0,0.0,0.0,0.0,0.0,0.0,0.0,0.0,0.0,0.0,0.0,0.0,0.0,0.0,0.0,0.0,0.0,0.0,0.0,0.0,0.0,0.0,0.0,0.0,0.0,0.6737,0.7245,0.6964,0.6809,0.6818,0.6599,0.6315,0.6125,0.5768,0.5703,0.0,0.0,0.0,0.0,0.0,0.0,0.0,0.0,0.0,0.0,0.0,0.0,0.0,0.0,0.0,0.0,0.0,0.0,0.0,0.0,0.0,0.0,0.0,0.0,0.0,0.0,0.0,0.0,1.621,1.6776,1.742,0.0,0.0,0.0,0.0,0.0,0.0,0.0,0.0,0.0,0.0,2.6569,2.8012,2.7905,0.0,0.0,2.815,2.7906,2.8942,2.7768,2.6497,2.5813,2.5198,0.0,0.0,0.0,0.0,0.0,0.0,0.0,0.0,0.0,0.0,0.0,0.0,0.0,0.0,0.0,0.0,0.0,0.0,0.0,0.0,0.0,0.0,0.0,0.0,0.0,0.0,0.0,0.0,0.0,0.0,0.0,0.0,0.0,0.0,0.0,0.0,0.0,0.0,0.0,0.0,0.0,0.0,0.0,0.0,0.0,0.0,0.0,0.0,0.0,0.0,0.0,0.0,0.6649,0.7213,0.6707,0.6529,0.6663,0.6427,0.6206,0.6145,0.5797,0.5694,0.0,0.0,0.0,0.0,0.0,0.0,0.0,0.0,0.0,0.0,0.0,0.0,0.0,0.0,0.0,0.0,0.0,0.0,0.0,0.0,0.0,0.0,0.0,0.0,0.0,0.0,0.0,0.0,1.7264,1.7926,1.8472,0.0,0.0,0.0,0.0,0.0,0.0,0.0,0.0,0.0,0.0,2.7251,2.8699,2.8937,2.9139,2.9541,2.897,2.8852,2.991,2.8524,2.7291,2.7011,0.0,0.0,0.0,0.0,0.0,0.0,0.0,0.0,0.0,0.0,0.0,0.0,0.0,0.0,0.0,0.0,0.0,0.0,0.0,0.0,0.0,0.0,0.0,0.0,0.0,0.0,0.0,0.0,0.0,0.0,0.6728,0.0,0.0,0.0,0.0,0.0,0.0,0.0,0.0,0.0,0.0,0.0,0.0,0.0,0.0,0.0,0.0,0.0,0.0,0.0,0.0,0.0,0.0,0.6754,0.681,0.6497,0.6489,0.6854,0.6425,0.6329,0.663,0.5977,0.5862,0.6465,0.0,0.0,0.0,0.0,0.0,0.0,0.0,0.0,0.0,0.0,0.0,0.0,0.0,0.0,0.0,0.0,0.0,0.0,0.0,0.0,0.0,0.0,0.0,0.0,0.0,0.0,1.6822,1.7733,1.8397,0.0,0.0,0.0,0.0,0.0,0.0,0.0,0.0,0.0,0.0,2.7441,2.8588,2.8348,2.9477,3.0392,3.0419,3.0552,3.0891,3.1395,3.1382,3.0959,0.0,0.0,0.0,0.0,0.0,0.0,0.0,0.0,0.0,0.0,0.0,0.0,0.0,0.0,0.0,0.0,0.0,0.0,0.0,0.0,0.0,0.0,0.0,0.0,0.0,0.0,0.0,0.8247,0.8137,0.0,0.0,0.0,0.0,0.0,0.0,0.0,0.0,0.0,0.0,0.0,0.5847,0.5277,0.0,0.0,0.0,0.0,0.0,0.0,0.0,0.0,0.0,0.0,0.0,0.0,0.6593,0.69,0.6454,0.6362,0.6539,0.642,0.6334,0.6404,0.6092,0.6061,0.6173,0.0,0.0,0.0,0.0,0.0,0.0,0.0,0.0,0.0,0.0,0.0,0.0,0.0,0.0,0.0,0.0,0.0,0.0,0.0,0.0,0.0,0.0,0.0,0.0,0.0,1.7564,0.0,0.0,0.0,0.0,0.0,0.0,0.0,0.0,0.0,0.0,0.0,2.474,2.6839,2.7563,2.8333,2.9359,2.9614,2.9804,0.0,0.0,0.0,0.0,0.0,0.0,0.0,0.0,0.0,0.0,0.0,0.0,0.0,0.0,3.3059,2.9704,2.8719,2.855,2.8996,0.0,0.0,0.0,0.0,0.0,0.0,0.0,0.0,0.0,0.0,0.0,0.0,0.0,0.0,0.8728,0.0,0.8315,0.0,0.0,0.0,0.0,0.0,0.0,0.0,0.0,0.5604,0.5214,0.5351,0.4829,0.4783,0.0,0.5441,0.5361,0.0,0.0,0.0,0.0,0.0,0.0,0.0,0.0,0.6606,0.6832,0.6427,0.6301,0.6408,0.642,0.6363,0.6241,0.624,0.6138,0.5968,0.6512,0.6905,0.0,0.0,0.0,0.0,0.0,0.0,0.0,0.0,0.0,0.0,0.0,0.0,0.0,0.0,0.0,0.0,0.0,0.0,0.0,0.0,0.0,0.0,0.0,1.7732,0.0,0.0,0.0,0.0,0.0,0.0,0.0,0.0,0.0,2.567,2.5132,2.5465,2.769,2.804,2.8487,2.9645,0.0,0.0,0.0,0.0,0.0,0.0,0.0,3.1351,3.2153,3.2282,3.2053,3.1585,3.3302,3.4623,3.4419,0.0,0.0,3.1859,3.0828,3.0735,3.1397,3.169,3.1905,3.2136,3.2705,3.3085,0.0,0.0,0.0,0.0,0.0,0.0,0.0,0.0,0.9193,0.92,0.0,0.8846,0.0,0.0,0.0,0.0,0.0,0.0,0.0,0.0,0.4951,0.4006,0.3791,0.3719,0.365,0.3466,0.443,0.4538,0.399,0.4613,0.0,0.0,0.0,0.0,0.0,0.0,0.6634,0.6491,0.6316,0.6245,0.6412,0.642,0.6416,0.6412,0.625,0.6137,0.5965,0.6828,0.7198,0.6857,0.847,0.0,0.0,0.0,0.0,0.0,0.0,0.0,0.0,0.0,0.0,0.0,0.0,0.0,0.0,0.0,0.0,0.0,0.0,0.0,0.0,1.7038,0.0,0.0,0.0,0.0,0.0,0.0,0.0,0.0,0.0,0.0,2.6501,2.6469,2.6813,2.8056,0.0,0.0,0.0,0.0,3.1031,3.0624,3.111,3.1786,3.2513,3.3056,3.3425,3.3526,0.0,0.0,3.2991,3.4407,3.5362,3.4454,3.537,3.6258,3.6291,3.5168,3.4629,3.523,3.4845,3.4768,3.5368,3.5799,3.6492,0.965,0.0,0.0,0.0,0.0,0.9125,0.9396,0.9637,0.9631,0.9674,0.9759,0.9108,0.0,0.0,0.0,0.0,0.0,0.0,0.7191,0.6509,0.6045,0.5206,0.4232,0.3941,0.3733,0.367,0.3885,0.3829,0.3573,0.3672,0.4459,0.5822,0.0,0.0,0.0,0.0,0.619,0.656,0.6438,0.6367,0.642,0.642,0.642,0.642,0.6367,0.6254,0.6141,0.6378,0.6768,0.7208,0.7706,0.0,0.0,0.0,0.0,0.0,0.0,0.0,0.0,0.0,0.0,0.0,0.0,0.0,0.0,0.0,0.0,0.0,0.0,0.0,1.8201,1.7492,1.7798,0.0,0.0,0.0,0.0,0.0,0.0,0.0,0.0,0.0,2.7311,2.6534,2.6618,0.0,0.0,2.8925,3.0111,3.0388,3.054,3.0804,0.0,0.0,0.0,3.3769,3.445,3.4876,3.51,3.5135,3.4841,3.5311,3.5631,3.5489,3.5889,3.6196,3.6258,3.6137,3.5999,3.6138,3.603,3.6122,3.6769,3.7092,3.7417,1.0566,1.0028,1.0056,0.979,0.94,0.9655,0.9817,0.9988,0.9994,1.0135,1.0281,0.9557,0.9119,0.8914,0.8356,0.0,0.0,0.0,0.7821,0.7095,0.646,0.5563,0.4493,0.4012,0.3746,0.3675,0.3956,0.3859,0.3457,0.3725,0.4368,0.5317,0.0,0.0,0.611,0.5888,0.5852,0.6148,0.6327,0.6284,0.6086,0.6083,0.6218,0.642,0.642,0.6367,0.6258,0.6254,0.6519,0.7021,0.7289,0.7549,0.0,0.0,0.0,0.0,0.0,0.0,0.0,0.0,0.0,0.0,0.0,1.3462,1.4185,0.0,0.0,0.0,1.5587,1.6953,1.8179,1.8144,0.0,0.0,0.0,0.0,0.0,0.0,0.0,2.6959,2.7022,2.7144,2.753,2.7015,2.7257,2.8682,2.8744,2.9138,3.0598,0.0,3.0594,3.0934,3.2028,3.2861,3.3143,3.3941,3.4738,3.5429,3.5489,3.5489,3.5589,3.5638,3.5718,3.5831,3.5943,3.6022,3.6211,3.6488,3.6813,3.6892,3.6892,3.7123,3.7769,3.7892,3.8095,1.1558,1.1013,1.0603,1.0245,1.0097,1.0387,1.039,1.0333,1.0327,1.0401,1.0611,0.9994,0.9573,0.9256,0.884,0.0,0.9351,0.8452,0.7948,0.7721,0.6237,0.524,0.4592,0.4005,0.3713,0.3499,0.4285,0.4287,0.357,0.4282,0.4588,0.4407,0.4215,0.4282,0.4758,0.5318,0.5523,0.5346,0.6009,0.6152,0.5683,0.5617,0.5818,0.6354,0.6338,0.633,0.6396,0.6396,0.6396,0.6388,0.7121,0.7419,0.7325,0.0,0.0,0.0,0.0,0.0,0.0,0.0,0.0,0.0,0.0,0.0,0.0,0.0,0.0,0.0,1.5265,0.0,1.7241,1.8941,0.0,0.0,0.0,2.4402,2.5634,2.5961,2.6487,2.7621,0.0,0.0,2.7231,2.7788,2.8407,2.9015,2.9172,2.9651,3.0898,3.1035,3.0986,3.0986,3.1676,3.2434,3.3157,3.3945,3.4714,3.5344,3.5489,3.5489,3.5504,3.5504,3.5539,3.5638,3.5733,3.5921,3.6224,3.6853,3.7376,3.7612,3.7615,3.7784,3.8431,3.8585,3.8797,1.1871,1.1626,1.1509,1.1066,1.043,1.041,1.0327,1.0333,1.0333,1.0331,1.0407,0.9968,0.9582,0.924,0.9116,0.9113,0.9211,0.8398,0.7625,0.704,0.5821,0.4856,0.4115,0.375,0.3572,0.3499,0.3715,0.3715,0.3499,0.3715,0.3774,0.3752,0.3681,0.4115,0.4925,0.4595,0.4543,0.4966,0.5533,0.5951,0.6148,0.5815,0.5818,0.642,0.5898,0.583,0.6209,0.6273,0.6273,0.6277,0.6552,0.6647,0.6519,0.7238,0.0,0.0,0.0,0.0,0.0,0.0,0.0,0.0,0.0,1.351,1.3961,0.0,1.5277,0.0,1.5158,1.6684,1.9062,1.9358,0.0,0.0,2.3111,2.4467,2.5688,2.6279,2.6779,2.7278,2.7232,2.7231,2.7231,2.7777,2.8407,2.9003,2.9484,3.0177,3.1259,3.1198,3.0986,3.1136,3.2028,3.3017,3.3227,3.4356,3.5279,3.5504,3.5489,3.5489,3.5489,3.5489,3.5489,3.5584,3.609,3.6491,3.6732,3.746,3.8203,3.8795,3.8631,3.8477,3.9123,3.9277,3.9483,1.2024,1.1866,1.1787,1.1443,1.1021,1.0785,1.0605,1.0533,1.0533,1.0472,1.0437,0.9979,0.9663,0.9378,0.9367,0.9427,0.9451,0.8611,0.7842,0.7167,0.5878,0.4901,0.4222,0.3867,0.3616,0.3618,0.3618,0.3618,0.3618,0.3618,0.3618,0.3618,0.3575,0.3867,0.4388,0.4204,0.4447,0.5264,0.5339,0.5689,0.6173,0.5898,0.6026,0.6618,0.6128,0.6037,0.6341,0.6353,0.6293,0.6409,0.6502,0.651,0.64,0.6857,0.7195,0.0,0.0,0.0,0.0,0.0,0.0,0.0,0.0,0.0,0.0,0.0,1.561,1.6007,1.6288,1.7376,1.972,2.0514,2.151,2.2955,2.4298,2.5392,2.64,2.6723,2.6979,2.7196,2.7231,2.7231,2.7231,2.7788,2.8407,2.9015,2.9639,3.0343,3.111,3.1136,3.0986,3.1061,3.1882,3.2791,3.3353,3.4505,3.5359,3.5359,3.5439,3.5489,3.5489,3.5489,3.5594,3.5908,3.6304,3.6767,3.7252,3.7895,3.8606,3.9032,3.9222,3.9367,3.9809,3.9902,4.004,1.1964,1.1808,1.1652,1.1548,1.1564,1.126,1.0964,1.0784,1.0755,1.0663,1.0426,1.0075,0.984,0.962,0.962,0.9733,0.9836,0.8841,0.808,0.7625,0.5999,0.5002,0.4543,0.4075,0.3841,0.3841,0.3841,0.3841,0.3841,0.3841,0.3841,0.3761,0.3683,0.372,0.3865,0.408,0.4745,0.5714,0.5434,0.5584,0.6162,0.6098,0.6291,0.6862,0.656,0.6396,0.6539,0.6448,0.6477,0.6573,0.6735,0.6826,0.6698,0.6867,0.6917,0.0,0.7834,0.0,0.0,0.0,0.0,0.0,0.0,0.0,0.0,1.4448,1.6049,1.8297,1.7903,1.8079,1.9565,2.1603,2.2999,2.3404,2.5147,2.6362,2.6798,2.6974,2.7138,2.7138,2.7149,2.7231,2.7231,2.7857,2.8554,2.9081,2.9729,3.0355,3.0911,3.0986,3.0911,3.0986,3.1529,3.2577,3.363,3.4639,3.5294,3.5279,3.5478,3.5639,3.5669,3.5759,3.5953,3.6462,3.6731,3.7023,3.7669,3.837,3.8877,3.9191,3.9555,3.996,4.027,4.0355,4.0593,1.1899,1.1663,1.1575,1.1455,1.1267,1.1169,1.1094,1.0904,1.0686,1.0443,1.0218,1.0024,0.9857,0.9852,0.9852,0.9879,0.9846,0.8546,0.7621,0.6919,0.5467,0.454,0.3997,0.3841,0.3841,0.3841,0.3841,0.3841,0.3841,0.3841,0.3841,0.3763,0.3744,0.4196,0.4886,0.0,0.0,0.0,0.5574,0.6222,0.7241,0.6844,0.681,0.7183,0.6289,0.0,0.6223,0.6387,0.6404,0.6445,0.678,0.0,0.0,0.0,0.0,0.0,0.0,0.0,0.0,0.0,0.0,0.0,1.3975,1.3841,1.3654,1.4767,1.6443,1.8423,1.8266,1.8276,1.8977,2.0433,2.1338,2.1329,2.3434,2.4829,2.4734,2.5852,2.6622,2.6622,2.6962,2.7231,2.7231,2.8167,2.8937,2.9081,3.0114,3.0823,3.0986,3.0836,3.0849,3.1061,3.2028,3.3213,3.4109,3.4854,3.5439,3.5484,3.5983,3.6237,3.6297,3.6686,3.7015,3.724,3.7659,3.8087,3.8421,3.9048,3.9541,3.9743,3.9748,3.991,4.0261,4.0347,4.0524,1.1878,0.0,1.1674,1.1601,0.0,1.1183,1.1067,1.0928,1.064,1.0334,1.0067,0.9916,0.9922,0.9922,0.9922,0.9922,0.9841,0.847,0.7468,0.6765,0.5312,0.4387,0.3841,0.3841,0.3841,0.3841,0.3841,0.3841,0.3841,0.3841,0.3841,0.3841,0.3841,0.4073,0.4535,0.4384,0.4488,0.4977,0.5417,0.601,0.6611,0.6606,0.663,0.688,0.0,0.0,0.0,0.0,0.0,0.0,0.0,0.0,0.0,0.0,0.0,0.8406,0.9463,1.0239,1.0383,1.16,1.2628,1.3252,1.3913,1.4382,1.4406,1.5269,1.6314,1.7709,1.7873,1.8071,1.8458,1.9637,2.0709,2.14,2.2979,2.4211,2.4925,2.5852,2.6445,2.629,2.6798,2.7149,2.688,2.7592,2.8315,2.8633,2.9496,3.019,3.0432,3.0609,3.0698,3.0761,3.2101,3.3171,3.3506,3.4572,3.5359,3.5419,3.5708,3.6118,3.6432,3.6746,3.7135,3.7719,3.8182,3.8537,3.9013,3.9343,3.9625,3.964,3.9625,3.9625,3.998,4.0246,4.0578,1.176,1.1927,1.1716,1.1613,1.1596,1.1218,1.1025,1.0955,0.0,0.0,0.0,1.0051,1.0024,0.9986,0.9986,0.996,0.9765,0.8546,0.754,0.6765,0.5467,0.4465,0.3841,0.3841,0.3841,0.3841,0.3841,0.3841,0.3841,0.3841,0.3841,0.3841,0.3841,0.3841,0.3841,0.4543,0.4854,0.4932,0.5547,0.5931,0.6005,0.6424,0.6655,0.6769,0.6925,0.7053,0.7078,0.7041,0.7304,0.7743,0.7901,0.8369,0.9124,0.9309,0.9187,0.8737,0.9611,0.9963,0.9586,1.0966,1.1997,1.2632,1.3932,1.487,1.5217,1.5579,1.6144,1.677,1.7333,1.7699,1.79,1.908,2.0322,2.1719,2.2688,2.3846,2.52,2.5957,2.6113,2.5895,2.6479,2.6809,2.6456,2.6869,2.7301,2.7914,2.8688,2.9394,2.996,3.0533,3.0685,3.0685,3.1955,3.2988,3.3058,3.4099,3.5067,3.5228,3.5583,3.5977,3.6507,3.6851,3.7404,3.8392,3.8571,3.8826,3.929,3.9409,3.9424,3.9424,3.9424,3.9496,3.9753,4.0285,4.0668,1.1739,1.1728,1.1435,1.1348,1.1348,1.1311,1.1182,1.0961,1.0702,1.0568,1.0536,1.0536,1.0428,1.0245,1.0239,1.0121,0.9846,0.9008,0.7927,0.0,0.5928,0.4849,0.3841,0.3841,0.3841,0.3841,0.3841,0.3841,0.3841,0.3841,0.3841,0.3841,0.3841,0.3841,0.3919,0.4927,0.547,0.547,0.6468,0.7246,0.7714,0.7842,0.774,0.7625,0.7327,0.7102,0.6999,0.709,0.7472,0.8129,0.8291,0.8871,0.9812,0.9902,0.9791,0.9549,1.034,1.0684,1.0191,1.1282,1.25,1.3603,1.4339,1.4798,1.4989,1.5698,1.6177,1.6312,1.6784,1.7073,1.7261,1.8427,1.9505,2.0322,2.1836,2.3105,2.3927,2.4892,2.5401,2.5327,2.5717,2.6085,2.6096,2.6456,2.6835,2.7221,2.8315,2.9574,3.0164,3.0672,3.0836,3.0911,3.1982,3.2846,3.2988,3.4045,3.4957,3.5148,3.6149,3.6924,3.7255,3.8048,3.8766,3.92,3.92,3.9275,3.9424,3.9424,3.9424,3.9424,3.9424,3.9568,3.9839,4.0301,4.0737,1.1811,1.1693,1.1585,1.1462,1.1267,1.1267,1.1289,1.1176,1.1069,1.0869,1.0562,1.0557,1.0579,1.0482,1.0482,1.0347,1.0044,0.9271,0.8181,0.6769,0.6005,0.4927,0.3919,0.3841,0.3841,0.3841,0.3841,0.3841,0.3841,0.3841,0.3841,0.3841,0.3841,0.3919,0.4309,0.516,0.578,0.617,0.6633,0.7022,0.7253,0.748,0.7588,0.7501,0.7811,0.8001,0.7912,0.8098,0.8476,0.8951,0.9231,0.9685,1.047,1.0563,1.0507,1.0559,1.0926,1.1112,1.1077,1.1876,1.2825,1.3608,1.4147,1.4638,1.4791,1.5468,1.5832,1.6021,1.6312,1.6704,1.6979,1.8064,1.9147,2.015,2.1667,2.2843,2.3784,2.4854,2.5497,2.5335,2.5862,2.6203,2.5937,2.6122,2.6279,2.6456,2.7906,2.9303,3.0024,3.0904,3.1268,3.0701,3.1633,3.2413,3.2513,3.4115,3.5238,3.5292,3.6437,3.7357,3.7838,3.8571,3.896,3.9349,3.9424,3.9424,3.9424,3.9424,3.9424,3.9424,3.9481,3.9625,3.9696,3.9965,4.0462,1.2021,1.1855,1.1747,1.1569,1.1273,1.1267,1.1267,1.1267,1.1262,1.1059,1.0821,1.0712,1.0762,1.0719,1.0713,1.0584,1.0311,0.9652,0.844,0.6962,0.6179,0.5148,0.3953,0.3874,0.3862,0.3845,0.3841,0.3841,0.3843,0.3864,0.3805,0.3822,0.3826,0.422,0.4928,0.5556,0.626,0.6973,0.7099,0.7064,0.6949,0.7322,0.7548,0.7625,0.8363,0.8774,0.8784,0.9061,0.9358,0.9807,1.0045,1.0398,1.0963,1.1063,1.1176,1.1397,1.1342,1.1558,1.1849,1.2477,1.3008,1.3425,1.3891,1.4304,1.4592,1.507,1.5547,1.5737,1.6028,1.6501,1.7153,1.7885,1.9063,2.0683,2.1686,2.2755,2.4054,2.5024,2.5406,2.5165,2.5688,2.5915,2.57,2.5616,2.5708,2.6323,2.7489,2.8716,2.9833,3.096,3.1107,3.1033,3.1537,3.2213,3.2192,3.3775,3.5082,3.5319,3.6476,3.743,3.8117,3.8467,3.8796,3.932,3.9424,3.9424,3.9424,3.9424,3.9424,3.9424,3.9481,3.9553,3.9553,3.9711,4.0091,1.2361,1.228,1.1892,1.1569,1.1278,1.1273,1.1273,1.1267,1.1267,1.1246,1.1177,1.1198,1.1149,1.0972,1.0955,1.0826,1.053,1.0105,0.8937,0.7356,0.6801,0.5676,0.4051,0.3887,0.3924,0.4014,0.3929,0.4016,0.4101,0.393,0.3928,0.4004,0.401,0.4578,0.5644,0.6302,0.7126,0.8269,0.8688,0.8595,0.8038,0.8322,0.8546,0.8551,0.8897,0.908,0.9159,0.9275,0.9635,1.0236,1.0355,1.0647,1.1193,1.123,1.1418,1.1639,1.1671,1.186,1.2291,1.2581,1.2992,1.3476,1.3806,1.4022,1.4298,1.4879,1.5267,1.5547,1.5933,1.6683,1.7505,1.8149,1.9422,2.1239,2.1863,2.258,2.3861,2.4313,2.444,2.4602,2.4833,2.4698,2.4792,2.4815,2.5231,2.6431,2.7023,2.8003,2.9606,3.0504,3.1017,3.1453,3.1967,3.2394,3.2811,3.3192,3.4381,3.5553,3.6461,3.7404,3.8258,3.8931,3.9364,3.9334,3.9424,3.9424,3.9424,3.9424,3.9424,3.9424,3.9409,3.9481,3.9625,3.9768,4.0051,1.1955,1.2404,1.2204,1.1903,1.158,1.1558,1.1478,1.1273,1.1267,1.1267,1.1267,1.1267,1.1209,1.1203,1.1203,1.1069,1.0765,0.9839,0.8765,0.751,0.6436,0.5339,0.4477,0.4876,0.4851,0.4577,0.4976,0.4976,0.4501,0.4371,0.4412,0.4448,0.4453,0.5113,0.6427,0.6843,0.7671,0.8987,0.9404,0.9477,0.9305,0.9267,0.9276,0.9378,0.9731,1.0013,1.0033,1.0223,1.0471,1.0737,1.0868,1.1075,1.1262,1.1478,1.1602,1.1709,1.1973,1.2204,1.2404,1.2639,1.3047,1.3443,1.3636,1.3823,1.4298,1.4688,1.5166,1.5994,1.6574,1.7326,1.8419,1.9413,2.0421,2.1418,2.2325,2.3125,2.3667,2.4169,2.4506,2.4702,2.5016,2.5046,2.4939,2.4954,2.5295,2.62,2.6898,2.7943,2.8904,3.0217,3.1394,3.1868,3.2301,3.2471,3.271,3.374,3.4717,3.5714,3.6828,3.7989,3.8718,3.917,3.9409,3.9424,3.9424,3.9424,3.9424,3.9424,3.9424,3.9424,3.9424,3.9496,3.9696,3.9696,3.964,1.1293,1.2029,1.2347,1.2172,1.1801,1.1795,1.1661,1.1462,1.1445,1.1413,1.1267,1.1267,1.1267,1.1267,1.1267,1.1246,1.0927,1.0064,0.8958,0.7819,0.6891,0.6036,0.5249,0.5658,0.5722,0.5366,0.5524,0.5379,0.4826,0.4746,0.4761,0.4782,0.4787,0.5628,0.722,0.7388,0.8229,0.9824,1.0182,1.0223,1.0203,1.0155,1.0041,1.0005,1.0444,1.0729,1.0735,1.0961,1.1085,1.109,1.1257,1.1267,1.1278,1.1575,1.1752,1.1908,1.228,1.2511,1.2511,1.2764,1.3055,1.3448,1.3539,1.3829,1.4208,1.4592,1.5248,1.6264,1.7109,1.8141,1.933,2.0322,2.1042,2.1606,2.2696,2.3329,2.3523,2.3987,2.4303,2.455,2.4761,2.5135,2.5108,2.5145,2.5388,2.6149,2.6843,2.7698,2.8338,3.0097,3.15,3.1965,3.2569,3.2912,3.2813,3.3564,3.4914,3.61,3.7116,3.8026,3.9104,3.9352,3.9424,3.9424,3.9424,3.9424,3.9424,3.9424,3.9424,3.9424,3.9424,3.9424,3.9568,3.9496,3.9424,1.0288,1.1322,1.2024,1.2186,1.2032,1.2032,1.1898,1.1682,1.1677,1.1558,1.1375,1.1267,1.1267,1.1267,1.1262,1.1262,1.1241,1.1058,0.9986,0.8388,0.8831,0.8151,0.6306,0.63,0.632,0.6229,0.5482,0.5024,0.494,0.4944,0.4903,0.4987,0.5068,0.613,0.7869,0.8123,0.92,1.0898,1.0984,1.0961,1.0966,1.0955,1.0755,1.06,1.0848,1.0966,1.0993,1.1203,1.1241,1.1332,1.1257,1.1267,1.1381,1.1585,1.1925,1.2334,1.2603,1.2737,1.2829,1.2942,1.3152,1.3443,1.3732,1.4022,1.4298,1.4496,1.5153,1.6156,1.7468,1.8772,2.0059,2.0602,2.1239,2.2167,2.2608,2.3057,2.3416,2.3583,2.363,2.3844,2.4082,2.4561,2.4931,2.5067,2.5709,2.6216,2.6308,2.6715,2.8245,2.959,3.0711,3.1801,3.2722,3.3505,3.385,3.3892,3.4687,3.5871,3.6894,3.7601,3.8634,3.9424,3.9424,3.9424,3.9424,3.9424,3.9424,3.9424,3.9424,3.9424,3.9424,3.9424,3.9496,3.9424,3.9424,0.9209,1.019,1.0515,1.0852,1.1239,1.1229,1.1574,1.1908,1.1763,1.1655,1.1553,1.1418,1.1267,1.1267,1.0646,1.0738,1.117,1.0125,0.9414,0.9152,0.8273,0.78,0.7755,0.757,0.7288,0.681,0.6461,0.5967,0.5396,0.5406,0.5424,0.5542,0.6077,0.7044,0.8273,0.8978,0.9941,1.1165,1.1257,1.1219,1.1214,1.1219,1.1171,1.1022,1.1171,1.1219,1.1219,1.1219,1.1267,1.1267,1.1267,1.1418,1.1591,1.1946,1.2296,1.2597,1.2716,1.2759,1.2764,1.2856,1.305,1.3443,1.3636,1.3829,1.4202,1.449,1.514,1.6814,1.7554,1.8772,2.0546,2.1365,2.1811,2.2264,2.2627,2.2891,2.3213,2.3467,2.3742,2.4038,2.4316,2.5058,2.5706,2.6013,2.6167,2.6858,2.6858,2.7087,2.7849,2.9246,3.0508,3.1146,3.2476,3.3641,3.381,3.385,3.4423,3.5746,3.6866,3.7753,3.8708,3.9265,3.9424,3.9424,3.9424,3.9424,3.9424,3.9424,3.9424,3.9424,3.9424,3.9424,3.9424,3.9424,3.9424,0.8421,0.9114,0.9509,0.993,1.0395,1.077,1.1228,1.1683,1.1903,1.1887,1.179,1.1285,1.1185,1.1205,1.0397,1.044,1.1094,0.9685,0.9157,0.9327,0.8623,0.8536,0.8807,0.854,0.8009,0.7577,0.7228,0.6612,0.5822,0.5997,0.6174,0.6263,0.6789,0.7753,0.8894,0.9598,1.0381,1.1089,1.1267,1.1267,1.1267,1.1267,1.1267,1.1267,1.1267,1.1267,1.1267,1.1267,1.1267,1.1273,1.1418,1.1602,1.1925,1.2237,1.2517,1.2727,1.2759,1.2759,1.2764,1.2861,1.3055,1.3443,1.3636,1.3829,1.4298,1.4298,1.5235,1.6626,1.7561,1.8588,2.0266,2.1383,2.2008,2.2264,2.253,2.2803,2.2998,2.3446,2.3908,2.4185,2.4814,2.5538,2.6199,2.6162,2.6441,2.7115,2.7063,2.6981,2.7494,2.8702,3.0056,3.0508,3.1853,3.2932,3.3386,3.3674,3.4184,3.5426,3.6632,3.7677,3.856,3.9031,3.9424,3.9424,3.9424,3.9424,3.9424,3.9424,3.9424,3.9424,3.9424,3.9424,3.9424,3.9424,3.9424,0.7925,0.812,0.911,0.9402,0.9678,1.0556,1.095,1.1077,1.1994,1.2231,1.1962,1.1094,1.1141,1.1368,1.0582,1.0485,1.0794,1.0135,0.9419,0.9069,1.012,1.0294,0.9767,0.8719,0.8193,0.8017,0.7404,0.6612,0.5822,0.6438,0.6877,0.7051,0.7139,0.8105,0.9859,0.9946,1.0472,1.1089,1.1267,1.1267,1.1267,1.1267,1.1267,1.1267,1.1267,1.1267,1.1267,1.1267,1.1278,1.1397,1.1569,1.1914,1.2285,1.2425,1.2527,1.2721,1.2759,1.2759,1.2764,1.2953,1.3152,1.3443,1.3738,1.3925,1.4208,1.4298,1.486,1.6075,1.7095,1.8303,1.9621,2.0788,2.1697,2.2026,2.24,2.2615,2.2928,2.3485,2.3975,2.4424,2.5135,2.5446,2.558,2.5829,2.6199,2.6727,2.672,2.6607,2.7284,2.8269,2.9084,3.0079,3.1247,3.2239,3.2871,3.3484,3.4262,3.5047,3.6253,3.7357,3.8248,3.8885,3.928,3.9424,3.9424,3.9424,3.9424,3.9424,3.9424,3.9424,3.9424,3.9424,3.9424,3.9424,3.9424,0.6933,0.6933,0.7229,0.7826,0.8616,0.9604,1.0445,1.1158,1.2004,1.2371,1.2186,1.1847,1.1726,1.1636,1.0775,1.0037,0.97,0.9754,1.0033,1.0212,0.9685,0.968,0.9593,0.8281,0.7228,0.6612,0.626,0.6,0.5822,0.5997,0.6438,0.7051,0.7753,0.8715,0.9946,1.0559,1.1084,1.1267,1.1267,1.1267,1.1267,1.1267,1.1267,1.1267,1.1267,1.1267,1.1267,1.1267,1.1342,1.1575,1.1661,1.1919,1.2339,1.2571,1.2684,1.2748,1.2759,1.2759,1.2759,1.2861,1.3055,1.3443,1.3545,1.3829,1.4208,1.4298,1.5051,1.6452,1.7289,1.8218,2.0119,2.1081,2.1662,2.2054,2.2518,2.2967,2.3332,2.4117,2.4824,2.5234,2.5555,2.572,2.5892,2.5978,2.622,2.6744,2.6747,2.6853,2.7305,2.7987,2.9084,3.0079,3.0991,3.1901,3.2785,3.3313,3.3797,3.4664,3.5695,3.6894,3.7782,3.8664,3.9046,3.9424,3.9424,3.9424,3.9424,3.9424,3.9424,3.9424,3.9424,3.9424,3.9424,3.9424,3.9424,0.6437,0.6437,0.6437,0.6734,0.7528,0.8517,0.9402,1.0075,1.095,1.138,1.1345,1.1233,1.112,1.0934,1.0624,0.9835,0.8984,0.9664,1.0105,1.0217,0.9593,0.9331,0.9593,0.8021,0.6612,0.5908,0.6086,0.5997,0.5733,0.6435,0.7054,0.7665,0.8544,0.9506,1.0386,1.0997,1.1267,1.1267,1.1267,1.1267,1.1267,1.1267,1.1305,1.1467,1.1478,1.1526,1.1596,1.1612,1.1634,1.1731,1.186,1.2156,1.2517,1.2684,1.2759,1.2759,1.2759,1.2759,1.2759,1.2759,1.2953,1.3346,1.3448,1.3732,1.4202,1.458,1.5609,1.6915,1.7669,1.8743,2.0672,2.1331,2.1805,2.2226,2.2777,2.3369,2.3827,2.4633,2.5215,2.5547,2.5713,2.582,2.5917,2.6014,2.6207,2.6602,2.6794,2.689,2.7262,2.7809,2.8806,2.9715,3.0531,3.1613,3.2797,3.3227,3.3484,3.4275,3.5142,3.6267,3.7309,3.8188,3.8811,3.928,3.9424,3.9424,3.9424,3.9424,3.9424,3.9424,3.9424,3.9424,3.9424,3.9424,3.9424,0.6437,0.6437,0.6437,0.6437,0.6634,0.7627,0.812,0.8319,0.93,0.9784,0.9784,0.9857,0.9685,0.9556,1.0156,0.9783,0.9055,0.9597,0.942,0.8953,0.8995,0.9331,0.8894,0.7577,0.6438,0.5911,0.6435,0.6438,0.5819,0.7224,0.8452,0.8452,0.9331,1.0299,1.1013,1.1278,1.131,1.1408,1.1332,1.1348,1.1321,1.1337,1.1483,1.1677,1.1709,1.1801,1.1941,1.2005,1.1951,1.1838,1.2188,1.2501,1.2705,1.2759,1.2759,1.2759,1.2759,1.2759,1.2759,1.2759,1.2953,1.3346,1.3443,1.3727,1.4202,1.5051,1.6075,1.7196,1.8133,1.9393,2.0804,2.1468,2.1933,2.2573,2.31,2.3711,2.4574,2.4937,2.5256,2.5635,2.5732,2.5732,2.5732,2.5732,2.6014,2.64,2.6592,2.6784,2.7167,2.7726,2.8351,2.9165,3.0079,3.1158,3.2339,3.3154,3.3313,3.3713,3.4594,3.5628,3.6986,3.8023,3.8738,3.9192,3.9424,3.9424,3.9424,3.9424,3.9424,3.9424,3.9424,3.9424,3.9424,3.9424,3.9424,0.6437,0.6437,0.6437,0.6437,0.6537,0.7528,0.8024,0.812,0.9114,0.941,0.9608,0.9608,0.9481,0.9518,0.9577,0.8981,0.8479,0.883,0.8607,0.7732,0.7712,0.7408,0.6877,0.6349,0.6,0.5822,0.5997,0.5908,0.5822,0.7061,0.7848,0.8544,0.9538,1.04,1.1192,1.1537,1.1607,1.1639,1.1785,1.1763,1.165,1.1774,1.1801,1.1709,1.1865,1.1984,1.2156,1.2226,1.2301,1.2258,1.2501,1.2694,1.2754,1.2759,1.2759,1.2759,1.2759,1.2759,1.2759,1.2759,1.2953,1.3147,1.3443,1.3636,1.4022,1.514,1.617,1.7196,1.8234,1.9502,2.089,2.1687,2.25,2.356,2.3749,2.4019,2.4832,2.5179,2.5324,2.5625,2.5732,2.5732,2.5732,2.5732,2.5927,2.6304,2.6496,2.6699,2.7081,2.7357,2.7904,2.8806,2.9715,3.0711,3.1701,3.2612,3.3154,3.3398,3.4037,3.4828,3.6503,3.8098,3.8797,3.9337,3.9424,3.9424,3.9424,3.9424,3.9424,3.9424,3.9424,3.9424,3.9424,3.9424,3.9424,0.6437,0.6437,0.6437,0.6437,0.6437,0.703,0.7329,0.7428,0.7922,0.8219,0.8319,0.8718,0.8913,0.8996,0.9685,0.92,0.8062,0.8652,0.8118,0.6784,0.6585,0.6266,0.5822,0.5733,0.5733,0.5733,0.5735,0.5733,0.6011,0.7111,0.8116,0.8856,1.0159,1.1102,1.1583,1.1763,1.1844,1.1871,1.2069,1.1973,1.1876,1.1973,1.2048,1.2005,1.2145,1.2231,1.235,1.249,1.256,1.2587,1.2689,1.2759,1.2759,1.2759,1.2759,1.2759,1.2759,1.2759,1.2759,1.2759,1.2856,1.3147,1.3346,1.3642,1.4214,1.5337,1.6828,1.7289,1.8603,1.9895,2.1139,2.2136,2.3028,2.379,2.4039,2.4287,2.4913,2.5109,2.5333,2.5538,2.5635,2.5732,2.5732,2.5732,2.5927,2.6207,2.64,2.6688,2.6986,2.7262,2.7536,2.8445,2.9176,3.0079,3.1158,3.2077,3.297,3.3227,3.3797,3.4511,3.5949,3.7857,3.8634,3.9177,3.9265,3.9424,3.9424,3.9424,3.9424,3.9424,3.9424,3.9424,3.9424,3.9424,3.9424,0.6437,0.6437,0.6437,0.6437,0.6437,0.6437,0.6537,0.6437,0.6637,0.6637,0.6734,0.7425,0.7826,0.7925,0.9375,0.9604,0.7727,0.8542,0.7705,0.6599,0.5918,0.5776,0.5809,0.5782,0.579,0.5801,0.5776,0.579,0.6274,0.788,0.8828,0.9401,1.1,1.1919,1.1984,1.2048,1.2081,1.2097,1.2167,1.2259,1.2124,1.2167,1.2248,1.2323,1.2409,1.2527,1.2657,1.2743,1.2743,1.2754,1.2759,1.2759,1.2759,1.2759,1.2759,1.2759,1.2759,1.2759,1.2759,1.2764,1.2861,1.305,1.3346,1.3545,1.4118,1.5615,1.6915,1.7289,1.9072,2.0256,2.1389,2.2539,2.3322,2.3746,2.4026,2.4233,2.4538,2.4932,2.5235,2.5333,2.5528,2.5635,2.5732,2.5732,2.582,2.611,2.64,2.6699,2.6986,2.7167,2.7536,2.8175,2.8806,2.9441,3.0531,3.1536,3.2426,3.3056,3.3713,3.4511,3.5628,3.7049,3.8159,3.887,3.9119,3.9352,3.9424,3.9424,3.9424,3.9424,3.9424,3.9424,3.9424,3.9424,3.9424,0.6437,0.6437,0.6437,0.6437,0.6437,0.6437,0.6437,0.6437,0.6437,0.6437,0.6437,0.6634,0.683,0.6933,0.8216,0.7898,0.706,0.7654,0.7314,0.6239,0.592,0.5934,0.5966,0.5926,0.592,0.5972,0.6005,0.6005,0.6569,0.7959,0.9112,0.9402,1.1032,1.2054,1.2091,1.2269,1.2339,1.2366,1.2495,1.2479,1.2393,1.2484,1.2517,1.2474,1.2587,1.2694,1.2743,1.2759,1.2759,1.2759,1.2759,1.2759,1.2759,1.2759,1.2759,1.2759,1.2759,1.2759,1.2759,1.2759,1.2861,1.2856,1.3249,1.3539,1.3636,1.514,1.6445,1.7196,1.8434,1.9868,2.1432,2.2493,2.3167,2.3646,2.3854,2.3954,2.4251,2.4538,2.4833,2.5128,2.5333,2.543,2.5635,2.5635,2.582,2.61,2.6294,2.6602,2.6774,2.703,2.7441,2.7809,2.8269,2.8991,3.0351,3.1436,3.2426,3.297,3.3556,3.4204,3.5318,3.6411,3.751,3.8397,3.9104,3.9265,3.9352,3.9424,3.9424,3.9424,3.9424,3.9424,3.9424,3.9424,3.9424,0.6437,0.6437,0.6437,0.6437,0.6437,0.6437,0.6437,0.6437,0.6437,0.6437,0.6437,0.6437,0.6634,0.7132,0.7723,0.7624,0.7198,0.7,0.6843,0.6299,0.6092,0.6089,0.6203,0.6135,0.6094,0.61,0.6083,0.6272,0.7127,0.8404,0.9481,1.0068,1.165,1.2409,1.2382,1.2506,1.2571,1.2592,1.2689,1.2694,1.263,1.2689,1.2727,1.2608,1.2694,1.2759,1.2759,1.2759,1.2759,1.2759,1.2759,1.2759,1.2759,1.2759,1.2759,1.2759,1.2759,1.2759,1.2759,1.2759,1.2759,1.2764,1.3249,1.3448,1.3823,1.4949,1.617,1.7203,1.8288,1.9548,2.144,2.2493,2.3076,2.3356,2.3655,2.3854,2.4053,2.4341,2.4529,2.4932,2.503,2.5235,2.543,2.5509,2.546,2.5671,2.6021,2.632,2.6255,2.6455,2.6945,2.7347,2.7715,2.8538,3.0079,3.1347,3.2525,3.2982,3.324,3.3894,3.469,3.5789,3.688,3.7753,3.8708,3.9119,3.9265,3.9352,3.9352,3.9424,3.9424,3.9424,3.9424,3.9424,3.9424,0.6437,0.6437,0.6437,0.6437,0.6437,0.6437,0.6437,0.6437,0.6437,0.6437,0.6437,0.6437,0.6833,0.7528,0.7925,0.8021,0.7694,0.6851,0.6336,0.6363,0.62,0.6236,0.6336,0.629,0.6217,0.614,0.6165,0.664,0.7716,0.8818,0.9853,1.1044,1.2154,1.2678,1.2732,1.2754,1.2732,1.2732,1.2651,1.2662,1.2737,1.2759,1.2646,1.2743,1.2748,1.2759,1.2759,1.2759,1.2759,1.2759,1.2759,1.2759,1.2759,1.2759,1.2759,1.2759,1.2759,1.2759,1.2759,1.2759,1.2759,1.2861,1.3152,1.3443,1.3823,1.4675,1.5893,1.7355,1.8575,1.9931,2.1283,2.2296,2.2876,2.3046,2.3447,2.3646,2.3845,2.4143,2.4341,2.4538,2.4735,2.4932,2.5178,2.5227,2.5228,2.5283,2.5651,2.5892,2.5914,2.5969,2.6435,2.6798,2.7158,2.8423,2.9897,3.108,3.2351,3.2982,3.3081,3.3496,3.4134,3.5318,3.6489,3.7434,3.8159,3.8723,3.9119,3.9192,3.9265,3.9352,3.9424,3.9424,3.9424,3.9424,3.9424,0.6437,0.6437,0.6437,0.6437,0.6437,0.6437,0.6437,0.6437,0.6437,0.6437,0.6437,0.6437,0.6537,0.6933,0.7627,0.7925,0.7614,0.6796,0.6407,0.6418,0.6298,0.6328,0.6388,0.6344,0.6309,0.6366,0.6457,0.7033,0.8021,0.9056,1.0112,1.122,1.2237,1.2759,1.2759,1.2759,1.2759,1.2764,1.2473,1.237,1.2667,1.2467,1.2467,1.2759,1.2759,1.2759,1.2759,1.2759,1.2759,1.2759,1.2759,1.2759,1.2759,1.2759,1.2759,1.2759,1.2759,1.2759,1.2759,1.2759,1.2759,1.2861,1.3055,1.3249,1.3539,1.4022,1.5337,1.7341,1.9367,2.106,2.13,2.2189,2.2676,2.2946,2.3147,2.3347,2.3655,2.3954,2.4143,2.444,2.4538,2.4726,2.4865,2.4965,2.4967,2.5034,2.5283,2.5435,2.5446,2.5654,2.5973,2.6334,2.6561,2.814,2.9806,3.0991,3.2077,3.281,3.3081,3.3081,3.3882,3.5074,3.6094,3.6894,3.7767,3.8575,3.8885,3.9031,3.9104,3.9177,3.9265,3.9424,3.9424,3.9424,3.9424,0.6437,0.6437,0.6437,0.6437,0.6437,0.6437,0.6437,0.6437,0.6437,0.6437,0.6437,0.6437,0.6437,0.6537,0.6833,0.7129,0.7033,0.6736,0.6437,0.6418,0.6385,0.6377,0.6434,0.6374,0.6391,0.652,0.693,0.7726,0.8718,0.93,1.0493,1.1868,1.2565,1.2759,1.2759,1.2759,1.2759,1.2667,1.237,1.2273,1.2764,1.2467,1.2565,1.2662,1.2759,1.2759,1.2759,1.2759,1.2759,1.2759,1.2759,1.2759,1.2759,1.2759,1.2759,1.2759,1.2759,1.2759,1.2759,1.2759,1.2759,1.2764,1.2953,1.3147,1.3346,1.3823,1.4962,1.716,1.9684,2.1405,2.1422,2.2107,2.2576,2.2754,2.2955,2.3147,2.3447,2.3646,2.3935,2.4187,2.4119,2.4207,2.4669,2.4723,2.4727,2.4823,2.5071,2.5114,2.5031,2.5387,2.5734,2.5893,2.6337,2.7925,2.9455,3.0687,3.1889,3.2711,3.3081,3.3081,3.3496,3.4524,3.5386,3.6094,3.7141,3.8352,3.8738,3.8885,3.8958,3.909,3.9265,3.9352,3.9424,3.9424,3.9424,0.6437,0.6437,0.6437,0.6437,0.6437,0.6437,0.6437,0.6437,0.6437,0.6437,0.6437,0.6437,0.6437,0.6437,0.6437,0.6437,0.6437,0.6437,0.6437,0.6437,0.6429,0.6434,0.6437,0.6437,0.6434,0.6528,0.7428,0.8517,0.9308,0.9899,1.1082,1.2165,1.2759,1.2759,1.2759,1.2759,1.2759,1.2662,1.2273,1.2273,1.237,1.2667,1.2759,1.2662,1.2759,1.2759,1.2759,1.2759,1.2759,1.2759,1.2759,1.2759,1.2759,1.2759,1.2759,1.2759,1.2759,1.2759,1.2759,1.2759,1.2759,1.2764,1.2953,1.305,1.334,1.3908,1.5057,1.6928,1.9399,2.0996,2.1097,2.1999,2.2466,2.2644,2.2846,2.3046,2.3247,2.3429,2.3556,2.3628,2.3499,2.3864,2.4408,2.4365,2.4458,2.4737,2.489,2.4905,2.4977,2.5336,2.5615,2.5698,2.6362,2.7667,2.906,3.0258,3.1577,3.2797,3.3081,3.3081,3.3411,3.3992,3.469,3.548,3.6908,3.7947,3.8352,3.8738,3.887,3.9031,3.9265,3.9352,3.9424,3.9424,3.9424,0.6437,0.6437,0.6437,0.6437,0.6437,0.6437,0.6437,0.6437,0.6437,0.6437,0.6437,0.6437,0.6437,0.6437,0.6437,0.6437,0.6437,0.6437,0.6437,0.6437,0.6437,0.6437,0.6437,0.6437,0.6437,0.6634,0.7528,0.852,0.9406,1.0288,1.1473,1.2462,1.2759,1.2759,1.2759,1.2759,1.2759,1.2764,1.2273,1.1883,1.1683,1.2375,1.2473,1.237,1.257,1.2759,1.2759,1.2759,1.2759,1.2759,1.2759,1.2759,1.2759,1.2759,1.2759,1.2759,1.2759,1.2759,1.2759,1.2759,1.2759,1.2759,1.2856,1.2953,1.3335,1.428,1.5229,1.5527,1.8333,2.0079,2.0516,2.1677,2.2323,2.2653,2.2653,2.2846,2.3046,2.3247,2.3367,2.3547,2.3474,2.3877,2.4365,2.4231,2.4122,2.4516,2.4785,2.4716,2.474,2.5094,2.5356,2.5515,2.5664,2.6943,2.8374,2.9568,3.1003,3.2525,3.2957,3.3068,3.3326,3.3666,3.416,3.5101,3.6452,3.7477,3.7947,3.8263,3.8634,3.8943,3.9104,3.9265,3.9424,3.9424,3.9424,0.6437,0.6437,0.6437,0.6437,0.6437,0.6437,0.6437,0.6437,0.6437,0.6437,0.6437,0.6437,0.6437,0.6437,0.6437,0.6437,0.6437,0.6437,0.6437,0.6437,0.6437,0.6437,0.6437,0.6437,0.6437,0.6634,0.7425,0.8021,0.9106,1.0288,1.1565,1.1868,1.2462,1.2759,1.2759,1.2759,1.2759,1.2759,1.2565,1.2175,1.1975,1.237,1.2662,1.2467,1.2667,1.2764,1.2759,1.2759,1.2759,1.2759,1.2759,1.2759,1.2759,1.2759,1.2759,1.2759,1.2759,1.2759,1.2759,1.2759,1.2759,1.2759,1.2759,1.2856,1.3335,1.428,1.5222,1.5406,1.7985,1.9486,2.0039,2.1303,2.2062,2.2458,2.2619,2.2754,2.2946,2.2946,2.3194,2.3277,2.3475,2.3772,2.4015,2.3938,2.405,2.4463,2.4716,2.4785,2.4562,2.44,2.4844,2.5159,2.5338,2.5859,2.7308,2.8689,3.0036,3.1424,3.2624,3.2735,3.3068,3.3496,3.3823,3.4468,3.5575,3.6517,3.7309,3.8023,3.8575,3.8811,3.8943,3.9104,3.9265,3.9409,3.9409,0.6437,0.6437,0.6437,0.6437,0.6437,0.6437,0.6437,0.6437,0.6437,0.6437,0.6437,0.6437,0.6437,0.6437,0.6437,0.6437,0.6437,0.6437,0.6437,0.6437,0.6437,0.6437,0.6437,0.6437,0.6437,0.6437,0.7528,0.8021,0.8715,0.9993,1.1268,1.1272,1.236,1.2759,1.2759,1.2759,1.2759,1.2759,1.2759,1.2467,1.2175,1.2467,1.2662,1.2565,1.2565,1.2667,1.2759,1.2565,1.2565,1.2759,1.2759,1.2759,1.2759,1.2759,1.2759,1.2759,1.2759,1.2759,1.2759,1.2759,1.2759,1.2759,1.2764,1.2861,1.305,1.3998,1.4561,1.4651,1.7215,1.8667,1.9613,2.0785,2.1974,2.2321,2.2466,2.271,2.2854,2.2846,2.285,2.2874,2.3126,2.344,2.3646,2.3626,2.3859,2.4356,2.4641,2.4811,2.4592,2.4254,2.4346,2.4848,2.4951,2.5319,2.6697,2.8094,2.9306,3.0396,3.1586,3.2488,3.2809,3.3129,3.3411,3.4134,3.4815,3.5561,3.6425,3.7477,3.8516,3.8664,3.8811,3.8958,3.9104,3.9265,3.9409,0.6437,0.6437,0.6437,0.6437,0.6437,0.6437,0.6437,0.6437,0.6437,0.6437,0.6437,0.6437,0.6437,0.6437,0.6437,0.6437,0.6437,0.6437,0.6437,0.6437,0.6437,0.6437,0.6437,0.6437,0.6437,0.6534,0.7329,0.7726,0.8418,0.9895,1.0877,1.137,1.2262,1.2662,1.2759,1.2759,1.2759,1.2759,1.2759,1.257,1.237,1.2467,1.2565,1.2273,1.2175,1.2273,1.2759,1.2467,1.237,1.2764,1.2759,1.2759,1.2759,1.2759,1.2759,1.2759,1.2759,1.2759,1.2759,1.2759,1.2759,1.2759,1.2764,1.2764,1.2856,1.305,1.3335,1.3817,1.63,1.7632,1.8669,1.9981,2.1603,2.2047,2.221,2.2472,2.2541,2.2636,2.2624,2.2597,2.2804,2.3269,2.3511,2.3628,2.3834,2.4313,2.4528,2.4688,2.4592,2.4351,2.4326,2.4477,2.4434,2.5125,2.6453,2.7651,2.8621,2.9662,3.0775,3.181,3.2537,3.2771,3.2965,3.3382,3.4061,3.4762,3.5682,3.693,3.7875,3.8397,3.8664,3.8885,3.9104,3.925,3.9337,0.6437,0.6437,0.6437,0.6437,0.6437,0.6437,0.6437,0.6437,0.6437,0.6437,0.6437,0.6437,0.6437,0.6437,0.6437,0.6437,0.6437,0.6437,0.6437,0.6437,0.6437,0.6437,0.6437,0.6437,0.6437,0.6537,0.6933,0.703,0.7226,0.9205,0.9998,1.0685,1.197,1.2565,1.2759,1.2759,1.2759,1.2759,1.2759,1.2667,1.2662,1.2662,1.2662,1.257,1.2467,1.2565,1.2759,1.2565,1.2667,1.2764,1.2759,1.2759,1.2759,1.2759,1.2759,1.2759,1.2759,1.2759,1.2759,1.2759,1.2759,1.2759,1.2759,1.2759,1.2759,1.2953,1.305,1.3943,1.5504,1.6975,1.7823,1.9662,2.1345,2.1636,2.1901,2.2124,2.2261,2.2347,2.2533,2.2516,2.2719,2.3085,2.3384,2.3565,2.389,2.4223,2.4393,2.4516,2.4419,2.421,2.4108,2.4049,2.4098,2.4316,2.5513,2.6749,2.7893,2.8847,2.9846,3.0793,3.159,3.2177,3.2334,3.2798,3.3257,3.4038,3.5008,3.6409,3.7368,3.7939,3.8413,3.8738,3.8958,3.9177,3.919,0.6437,0.6437,0.6437,0.6437,0.6437,0.6437,0.6437,0.6437,0.6437,0.6437,0.6437,0.6437,0.6437,0.6437,0.6437,0.6437,0.6437,0.6437,0.6437,0.6437,0.6437,0.6437,0.6437,0.6437,0.6437,0.6437,0.6437,0.6534,0.7229,0.8517,0.9505,1.0489,1.1477,1.2165,1.2759,1.2764,1.2764,1.2759,1.2759,1.2759,1.2759,1.2759,1.2759,1.2667,1.257,1.2565,1.2662,1.2565,1.2565,1.2667,1.2759,1.2759,1.2759,1.2759,1.2759,1.2759,1.2759,1.2759,1.2759,1.2759,1.2759,1.2759,1.2759,1.2759,1.2856,1.2953,1.2953,1.3238,1.5134,1.6718,1.7177,1.9123,2.0531,2.092,2.1505,2.1824,2.1944,2.2038,2.23,2.2451,2.2707,2.2937,2.3229,2.3511,2.3917,2.407,2.4212,2.4183,2.404,2.3842,2.3577,2.3657,2.3735,2.3971,2.433,2.5513,2.6695,2.7399,2.8437,2.9558,3.0373,3.1076,3.1583,3.1859,3.2453,3.3245,3.4059,3.5055,3.6386,3.7676,3.8119,3.859,3.8738,3.8929,3.8896,0.6437,0.6437,0.6437,0.6437,0.6437,0.6437,0.6437,0.6437,0.6437,0.6437,0.6437,0.6437,0.6437,0.6437,0.6437,0.6437,0.6437,0.6437,0.6437,0.6437,0.6437,0.6437,0.6437,0.6437,0.6437,0.6437,0.6437,0.6734,0.7624,0.8021,0.9106,1.0386,1.1077,1.1873,1.2662,1.2764,1.2764,1.2759,1.2662,1.2662,1.2565,1.2565,1.2565,1.2467,1.2273,1.237,1.2473,1.2467,1.2467,1.2759,1.2759,1.2759,1.2759,1.2759,1.2759,1.2759,1.2759,1.2759,1.2759,1.2759,1.2759,1.2759,1.2759,1.2759,1.2759,1.2856,1.2856,1.305,1.4758,1.5798,1.6869,1.8236,1.9531,2.0276,2.0844,2.1256,2.1366,2.1893,2.2189,2.2326,2.2498,2.2745,2.2946,2.3347,2.3737,2.4024,2.3943,2.3869,2.3645,2.3433,2.3252,2.3246,2.3342,2.3687,2.3994,2.4635,2.5519,2.6165,2.7064,2.8345,2.9341,3.0193,3.067,3.0931,3.1524,3.2171,3.2764,3.3429,3.5189,3.6878,3.7884,3.8355,3.8502,3.8664,3.8707,0.6437,0.6437,0.6437,0.6437,0.6437,0.6437,0.6437,0.6437,0.6437,0.6437,0.6437,0.6437,0.6437,0.6437,0.6437,0.6437,0.6437,0.6437,0.6437,0.6437,0.6437,0.6437,0.6437,0.6437,0.6437,0.6339,0.6339,0.6239,0.6537,0.7229,0.812,0.9304,1.0489,1.158,1.198,1.198,1.1688,1.1688,1.1688,1.1688,1.1785,1.1785,1.1785,1.1785,1.1883,1.2078,1.2375,1.237,1.2565,1.2759,1.2759,1.2759,1.2759,1.2759,1.2759,1.2759,1.2759,1.2759,1.2759,1.2759,1.2759,1.2759,1.2759,1.2759,1.2759,1.2759,1.2759,1.3141,1.4567,1.5419,1.6319,1.7961,1.9095,1.9338,1.9829,2.0309,2.0716,2.1519,2.2055,2.2257,2.2404,2.2567,2.2736,2.2409,2.2693,2.3277,2.3322,2.3487,2.3373,2.323,2.3033,2.2971,2.307,2.3323,2.368,2.4187,2.4591,2.5223,2.6172,2.7339,2.8318,2.9178,2.9779,3.0118,3.056,3.1035,3.1824,3.2809,3.458,3.6056,3.7128,3.8003,3.8325,3.8473,3.8546,0.6437,0.6437,0.6437,0.6437,0.6437,0.6437,0.6437,0.6437,0.6437,0.6437,0.6437,0.6437,0.6437,0.6437,0.6437,0.6437,0.6437,0.6437,0.6437,0.6437,0.6437,0.6437,0.6437,0.6437,0.6437,0.6339,0.6239,0.6139,0.6139,0.6736,0.7428,0.8315,0.9604,1.0395,1.0895,1.0998,1.1292,1.1292,1.1389,1.1292,1.1292,1.1292,1.1389,1.1487,1.1683,1.1883,1.2175,1.2473,1.257,1.2667,1.2759,1.2759,1.2759,1.2759,1.2759,1.2759,1.2759,1.2759,1.2759,1.2759,1.2759,1.2759,1.2759,1.2759,1.2759,1.2759,1.2759,1.3238,1.4376,1.5038,1.5805,1.7412,1.8094,1.8435,1.8776,1.9255,1.9485,2.0344,2.081,2.1032,2.1653,2.1929,2.2207,2.1769,2.144,2.2079,2.26,2.2847,2.2978,2.2862,2.2725,2.2617,2.2602,2.2895,2.3108,2.3425,2.392,2.4331,2.5301,2.6291,2.706,2.781,2.8561,2.9234,2.9609,3.0169,3.1098,3.2273,3.3779,3.521,3.6489,3.7274,3.79,3.8238,3.8414,0.6437,0.6437,0.6437,0.6437,0.6437,0.6437,0.6437,0.6437,0.6437,0.6437,0.6437,0.6437,0.6437,0.6437,0.6437,0.6437,0.6437,0.6437,0.6437,0.6437,0.6437,0.6437,0.6437,0.6437,0.6337,0.6337,0.6237,0.6039,0.5942,0.6239,0.6634,0.7226,0.8418,0.9015,0.9509,1.0109,1.06,1.0801,1.0801,1.0801,1.0806,1.09,1.0998,1.1194,1.1292,1.1585,1.1883,1.2078,1.2273,1.2467,1.2667,1.2759,1.2759,1.2759,1.2759,1.2759,1.2759,1.2759,1.2759,1.2759,1.2759,1.2759,1.2759,1.2759,1.2759,1.2759,1.2759,1.305,1.3811,1.4382,1.5146,1.6089,1.7037,1.7333,1.7606,1.7766,1.7984,1.8366,1.8893,1.9403,2.0213,2.0676,2.0696,2.0531,2.0233,2.0712,2.1205,2.1602,2.1863,2.2575,2.2372,2.2218,2.2232,2.2391,2.2663,2.2964,2.3221,2.3614,2.4319,2.5179,2.5917,2.6761,2.7673,2.845,2.8718,2.9328,3.0495,3.1609,3.275,3.417,3.5553,3.6678,3.7448,3.803,3.8104,0.6437,0.6437,0.6437,0.6437,0.6437,0.6437,0.6437,0.6437,0.6437,0.6437,0.6437,0.6437,0.6437,0.6437,0.6437,0.6437,0.6437,0.6437,0.6437,0.6437,0.6437,0.6437,0.6437,0.6437,0.6239,0.6139,0.5937,0.5837,0.5639,0.5741,0.5741,0.6037,0.7232,0.773,0.8127,0.8726,0.9422,0.9916,1.0117,1.0216,1.0216,1.0216,1.0408,1.0507,1.0703,1.0998,1.1194,1.1492,1.1683,1.2078,1.2175,1.237,1.2759,1.2759,1.2759,1.2759,1.2759,1.2759,1.2759,1.2759,1.2759,1.2759,1.2759,1.2759,1.2759,1.2759,1.2759,1.305,1.3335,1.3908,1.4382,1.5235,1.59,1.6183,1.6365,1.6473,1.6602,1.6845,1.7341,1.8152,1.8932,1.9333,1.9448,1.9147,1.8876,1.929,1.9712,2.0208,2.0864,2.1485,2.1998,2.1851,2.2008,2.2185,2.2274,2.2545,2.2685,2.2989,2.3647,2.4317,2.5094,2.5946,2.701,2.7753,2.8235,2.9081,3.0075,3.1185,3.2223,3.3252,3.4583,3.5841,3.6881,3.7462,3.7752,0.6437,0.6437,0.6437,0.6437,0.6437,0.6437,0.6437,0.6437,0.6437,0.6437,0.6437,0.6437,0.6437,0.6437,0.6437,0.6437,0.6437,0.6437,0.6437,0.6437,0.6437,0.6437,0.6437,0.6437,0.6337,0.6137,0.5839,0.5737,0.5438,0.5338,0.5338,0.5238,0.6239,0.6539,0.7036,0.7534,0.8134,0.873,0.913,0.9525,0.9624,0.9628,0.9723,0.9821,1.0117,1.0216,1.0605,1.09,1.1198,1.159,1.1688,1.198,1.2467,1.2662,1.2759,1.2759,1.2759,1.2759,1.2759,1.2759,1.2759,1.2759,1.2759,1.2759,1.2759,1.2759,1.2759,1.2856,1.3238,1.3619,1.3902,1.4382,1.4765,1.514,1.514,1.514,1.53,1.5473,1.6192,1.7064,1.7561,1.8051,1.8034,1.7631,1.7486,1.7704,1.8025,1.8401,1.9439,2.0509,2.1243,2.1545,2.1759,2.2008,2.2097,2.2185,2.2353,2.2618,2.3057,2.3734,2.4317,2.5158,2.6163,2.7092,2.8018,2.8858,2.9845,3.0732,3.169,3.2712,3.3734,3.5053,3.6057,3.6649,3.6896,0.6437,0.6437,0.6437,0.6437,0.6437,0.6437,0.6437,0.6437,0.6437,0.6437,0.6437,0.6437,0.6437,0.6437,0.6437,0.6437,0.6437,0.6437,0.6437,0.6437,0.6437,0.6437,0.6339,0.6337,0.6237,0.6237,0.6037,0.5636,0.5436,0.5236,0.5035,0.4834,0.5539,0.5939,0.6339,0.6739,0.7335,0.7736,0.8531,0.9027,0.9327,0.9529,0.9723,1.0117,1.0019,0.992,1.0605,1.0703,1.0605,1.09,1.1194,1.1394,1.1883,1.237,1.2565,1.2764,1.2764,1.2759,1.2759,1.2759,1.2759,1.2759,1.2759,1.2759,1.2759,1.2759,1.2759,1.2759,1.3044,1.3238,1.3522,1.3715,1.3998,1.4094,1.419,1.4196,1.4226,1.4419,1.4887,1.5716,1.6327,1.6665,1.6779,1.639,1.6247,1.6203,1.6303,1.6731,1.7749,1.9082,2.0113,2.087,2.15,2.1741,2.1919,2.2008,2.2176,2.2353,2.2706,2.296,2.3551,2.4402,2.5253,2.6588,2.7926,2.87,2.9537,3.0291,3.1044,3.1863,3.2994,3.4328,3.5238,3.5755,3.6142,0.6437,0.6437,0.6437,0.6437,0.6437,0.6437,0.6437,0.6437,0.6437,0.6437,0.6437,0.6437,0.6437,0.6437,0.6437,0.6437,0.6437,0.6437,0.6437,0.6437,0.6437,0.6339,0.6242,0.6237,0.6039,0.5739,0.5539,0.5438,0.5135,0.4832,0.4832,0.4834,0.5135,0.5438,0.5842,0.6239,0.6537,0.6936,0.7335,0.8131,0.8531,0.8733,0.9031,0.9525,0.9723,0.9723,1.0019,1.0019,1.0117,1.0511,1.0609,1.09,1.1389,1.1878,1.217,1.2273,1.257,1.2662,1.2764,1.2759,1.2759,1.2759,1.2759,1.2759,1.2759,1.2759,1.2759,1.2759,1.2856,1.2953,1.305,1.3141,1.3238,1.3238,1.3335,1.3244,1.3244,1.3562,1.3796,1.4342,1.4926,1.5175,1.5294,1.5232,1.501,1.4943,1.4855,1.521,1.5974,1.7196,1.8536,1.953,2.0942,2.1383,2.1651,2.1919,2.2008,2.2097,2.2362,2.2608,2.2862,2.3963,2.5158,2.667,2.7926,2.8462,2.9015,2.9549,3.0317,3.1097,3.205,3.332,3.4086,3.4697,3.5252,0.6312,0.6363,0.6418,0.6437,0.6437,0.6437,0.6437,0.6437,0.6437,0.6437,0.6437,0.6437,0.6437,0.6437,0.6437,0.6437,0.6437,0.6437,0.6437,0.6437,0.6437,0.6339,0.6239,0.6239,0.6039,0.5639,0.5438,0.5238,0.4834,0.4832,0.4832,0.4832,0.4834,0.5035,0.5539,0.5536,0.5737,0.6034,0.6237,0.6637,0.7534,0.8031,0.8733,0.9327,0.9624,0.9624,0.9624,0.9624,0.9723,1.0117,1.0314,1.0511,1.09,1.1389,1.1585,1.178,1.2078,1.2467,1.2467,1.257,1.2662,1.2759,1.2764,1.2764,1.2759,1.2759,1.2759,1.2759,1.2759,1.2856,1.2856,1.2953,1.2953,1.2953,1.305,1.2953,1.3055,1.3208,1.3367,1.3613,1.4109,1.4323,1.4427,1.452,1.4418,1.4601,1.4322,1.431,1.5051,1.5697,1.6908,1.8118,1.9521,2.0925,2.1482,2.1651,2.183,2.1919,2.2008,2.2264,2.2696,2.3963,2.5221,2.6329,2.7267,2.8007,2.8474,2.9106,2.9561,3.0241,3.1158,3.2196,3.2877,3.3716,3.4455,0.6154,0.6255,0.6366,0.6415,0.6418,0.6431,0.6437,0.6437,0.6437,0.6437,0.6437,0.6437,0.6437,0.6437,0.6437,0.6437,0.6437,0.6437,0.6437,0.6437,0.6437,0.6339,0.6239,0.6139,0.5939,0.5641,0.534,0.5037,0.4834,0.4832,0.4832,0.4832,0.4832,0.4834,0.4832,0.4832,0.5033,0.5133,0.5236,0.5438,0.6337,0.7434,0.8432,0.913,0.9525,0.9624,0.9624,0.9624,0.9624,0.9723,1.0019,1.0117,1.0413,1.0801,1.0998,1.1194,1.1585,1.1878,1.1975,1.2175,1.2467,1.257,1.2667,1.2667,1.2662,1.2759,1.2759,1.2759,1.2759,1.2759,1.2759,1.2759,1.2759,1.2759,1.2759,1.2759,1.2867,1.2969,1.3072,1.3169,1.3374,1.3579,1.3767,1.3852,1.4033,1.4208,1.4298,1.4298,1.449,1.5045,1.5886,1.6814,1.7933,1.933,2.0736,2.1195,2.1186,2.1741,2.1919,2.2097,2.252,2.3531,2.4542,2.5568,2.6505,2.7418,2.8247,2.8961,2.9328,2.9471,3.0607,3.1603,3.2164,3.2963,3.3747,0.61,0.6132,0.6249,0.6304,0.6317,0.6393,0.6437,0.6437,0.6437,0.6437,0.6437,0.6437,0.6437,0.6437,0.6437,0.6437,0.6437,0.6437,0.6437,0.6437,0.6437,0.6239,0.6042,0.5942,0.5739,0.5438,0.5138,0.4935,0.4832,0.4832,0.4832,0.4832,0.4832,0.4832,0.4832,0.4832,0.4832,0.4832,0.4834,0.5138,0.5939,0.6936,0.7736,0.8531,0.9232,0.943,0.9624,0.9624,0.9624,0.9624,0.9723,0.9821,1.0019,1.0314,1.0511,1.0708,1.1096,1.1292,1.1487,1.159,1.1883,1.217,1.2175,1.237,1.2467,1.2662,1.2759,1.2759,1.2759,1.2759,1.2759,1.2759,1.2759,1.2759,1.2759,1.2759,1.2861,1.2867,1.2964,1.3061,1.3152,1.3357,1.3551,1.3642,1.3841,1.4016,1.4202,1.4202,1.4298,1.4675,1.4956,1.5792,1.6626,1.8118,1.9695,2.0266,2.0538,2.1186,2.1741,2.1919,2.2344,2.2931,2.3953,2.4808,2.5986,2.7069,2.7891,2.8474,2.8736,2.9028,3.0215,3.1145,3.1656,3.2291,3.3193]}]]